<?xml version='1.0' encoding='UTF-8'?><gpx version="1.1" creator="JPX - https://github.com/jenetics/jpx" xmlns="http://www.topografix.com/GPX/1/1"><trk><trkseg><trkpt lat="40.843125455367435" lon="16.16287116116162"><ele>429.0</ele><time>2026-05-02T13:29:58.999Z</time></trkpt><trkpt lat="40.84315460831114" lon="16.16278541441577"><ele>429.0</ele><time>2026-05-02T13:29:59.999Z</time></trkpt><trkpt lat="40.84319782850218" lon="16.162681565893745"><ele>429.0</ele><time>2026-05-02T13:30:00.999Z</time></trkpt><trkpt lat="40.843249370224825" lon="16.162598672928823"><ele>429.0</ele><time>2026-05-02T13:30:01.999Z</time></trkpt><trkpt lat="40.843324168617876" lon="16.16256230111251"><ele>429.0</ele><time>2026-05-02T13:30:02.999Z</time></trkpt><trkpt lat="40.84338771731666" lon="16.162501485520597"><ele>429.0</ele><time>2026-05-02T13:30:03.999Z</time></trkpt><trkpt lat="40.8434483057872" lon="16.16243296267233"><ele>428.6</ele><time>2026-05-02T13:30:04.999Z</time></trkpt><trkpt lat="40.84351916501525" lon="16.162371634024044"><ele>428.2</ele><time>2026-05-02T13:30:05.999Z</time></trkpt><trkpt lat="40.84360220947878" lon="16.16230127813987"><ele>427.80000000000007</ele><time>2026-05-02T13:30:06.999Z</time></trkpt><trkpt lat="40.84368549615092" lon="16.16223526437485"><ele>427.40000000000003</ele><time>2026-05-02T13:30:07.999Z</time></trkpt><trkpt lat="40.8437773383102" lon="16.162166003806366"><ele>427.0</ele><time>2026-05-02T13:30:08.999Z</time></trkpt><trkpt lat="40.84387504740849" lon="16.16209084133457"><ele>428.0</ele><time>2026-05-02T13:30:09.999Z</time></trkpt><trkpt lat="40.843975297887816" lon="16.162015725339437"><ele>429.0</ele><time>2026-05-02T13:30:10.999Z</time></trkpt><trkpt lat="40.84407955727394" lon="16.161938567131234"><ele>430.0</ele><time>2026-05-02T13:30:11.999Z</time></trkpt><trkpt lat="40.84419867380052" lon="16.16184547747914"><ele>431.0</ele><time>2026-05-02T13:30:12.999Z</time></trkpt><trkpt lat="40.844324508973216" lon="16.16174577379135"><ele>431.0</ele><time>2026-05-02T13:30:13.999Z</time></trkpt><trkpt lat="40.844445057615985" lon="16.16165428358192"><ele>431.0</ele><time>2026-05-02T13:30:14.999Z</time></trkpt><trkpt lat="40.844573101203615" lon="16.161555950555027"><ele>431.0</ele><time>2026-05-02T13:30:15.999Z</time></trkpt><trkpt lat="40.844689878301836" lon="16.16146435300274"><ele>431.0</ele><time>2026-05-02T13:30:16.999Z</time></trkpt><trkpt lat="40.84480383291989" lon="16.161378248752055"><ele>430.5</ele><time>2026-05-02T13:30:17.999Z</time></trkpt><trkpt lat="40.8449230181194" lon="16.16130635581681"><ele>430.0</ele><time>2026-05-02T13:30:18.999Z</time></trkpt><trkpt lat="40.845047994729526" lon="16.161254528731067"><ele>429.5</ele><time>2026-05-02T13:30:19.999Z</time></trkpt><trkpt lat="40.84515694905982" lon="16.16120387074777"><ele>429.0</ele><time>2026-05-02T13:30:20.999Z</time></trkpt><trkpt lat="40.845270007613586" lon="16.161140928499936"><ele>430.25</ele><time>2026-05-02T13:30:21.999Z</time></trkpt><trkpt lat="40.84539668966241" lon="16.16106958529926"><ele>431.5</ele><time>2026-05-02T13:30:22.999Z</time></trkpt><trkpt lat="40.84551580573575" lon="16.16100648495637"><ele>432.75</ele><time>2026-05-02T13:30:23.999Z</time></trkpt><trkpt lat="40.84563319827618" lon="16.160959463923472"><ele>434.0</ele><time>2026-05-02T13:30:24.999Z</time></trkpt><trkpt lat="40.84575482173723" lon="16.16091243437481"><ele>434.0</ele><time>2026-05-02T13:30:25.999Z</time></trkpt><trkpt lat="40.8458539570357" lon="16.16086303436184"><ele>434.0</ele><time>2026-05-02T13:30:26.999Z</time></trkpt><trkpt lat="40.8459630720069" lon="16.160796988275727"><ele>434.0</ele><time>2026-05-02T13:30:27.999Z</time></trkpt><trkpt lat="40.84606588100402" lon="16.160720251577676"><ele>434.0</ele><time>2026-05-02T13:30:28.999Z</time></trkpt><trkpt lat="40.84615530241429" lon="16.160634582511694"><ele>435.75</ele><time>2026-05-02T13:30:29.999Z</time></trkpt><trkpt lat="40.84623507606583" lon="16.160534645278567"><ele>437.5</ele><time>2026-05-02T13:30:30.999Z</time></trkpt><trkpt lat="40.84630826588756" lon="16.16041012562381"><ele>439.25</ele><time>2026-05-02T13:30:31.999Z</time></trkpt><trkpt lat="40.84639220912062" lon="16.160270112929073"><ele>441.0</ele><time>2026-05-02T13:30:32.999Z</time></trkpt><trkpt lat="40.846474410517565" lon="16.16014765635037"><ele>441.0</ele><time>2026-05-02T13:30:33.999Z</time></trkpt><trkpt lat="40.846562842842964" lon="16.160056402678812"><ele>441.0</ele><time>2026-05-02T13:30:35Z</time></trkpt><trkpt lat="40.846631867300566" lon="16.159958092549733"><ele>441.0</ele><time>2026-05-02T13:30:36Z</time></trkpt><trkpt lat="40.8467258706566" lon="16.159893643461125"><ele>441.0</ele><time>2026-05-02T13:30:37Z</time></trkpt><trkpt lat="40.84680577811176" lon="16.159837156189354"><ele>441.0</ele><time>2026-05-02T13:30:38Z</time></trkpt><trkpt lat="40.846903682023616" lon="16.159776106308612"><ele>442.0</ele><time>2026-05-02T13:30:39Z</time></trkpt><trkpt lat="40.84701936249546" lon="16.15970393570465"><ele>443.0</ele><time>2026-05-02T13:30:40Z</time></trkpt><trkpt lat="40.84714551189393" lon="16.159605497297026"><ele>444.0</ele><time>2026-05-02T13:30:41Z</time></trkpt><trkpt lat="40.84729401856875" lon="16.15953122134438"><ele>445.0</ele><time>2026-05-02T13:30:42Z</time></trkpt><trkpt lat="40.84743563482415" lon="16.159442869852953"><ele>445.0</ele><time>2026-05-02T13:30:43Z</time></trkpt><trkpt lat="40.84758995554955" lon="16.159357045805834"><ele>445.0</ele><time>2026-05-02T13:30:44Z</time></trkpt><trkpt lat="40.84774950861867" lon="16.159277612574382"><ele>445.0</ele><time>2026-05-02T13:30:45Z</time></trkpt><trkpt lat="40.847916436646386" lon="16.159176255421663"><ele>446.33333333333337</ele><time>2026-05-02T13:30:46Z</time></trkpt><trkpt lat="40.848074359218735" lon="16.159079356529148"><ele>447.66666666666663</ele><time>2026-05-02T13:30:47Z</time></trkpt><trkpt lat="40.84822064331848" lon="16.158965137390105"><ele>449.0</ele><time>2026-05-02T13:30:48Z</time></trkpt><trkpt lat="40.84835700059721" lon="16.158905722721947"><ele>448.6</ele><time>2026-05-02T13:30:49Z</time></trkpt><trkpt lat="40.84846386623954" lon="16.158843056640812"><ele>448.2</ele><time>2026-05-02T13:30:50Z</time></trkpt><trkpt lat="40.848554474718675" lon="16.158765017234405"><ele>447.80000000000007</ele><time>2026-05-02T13:30:51Z</time></trkpt><trkpt lat="40.848640491862774" lon="16.158709983555635"><ele>447.40000000000003</ele><time>2026-05-02T13:30:52Z</time></trkpt><trkpt lat="40.84872284969573" lon="16.15864222816261"><ele>447.0</ele><time>2026-05-02T13:30:53Z</time></trkpt><trkpt lat="40.84880135921485" lon="16.1585650759407"><ele>447.0</ele><time>2026-05-02T13:30:54Z</time></trkpt><trkpt lat="40.84887254136784" lon="16.15848687059227"><ele>447.00000000000006</ele><time>2026-05-02T13:30:55Z</time></trkpt><trkpt lat="40.848945331484515" lon="16.15839628956702"><ele>447.00000000000006</ele><time>2026-05-02T13:30:56Z</time></trkpt><trkpt lat="40.849035762888" lon="16.15833234223064"><ele>447.0</ele><time>2026-05-02T13:30:57Z</time></trkpt><trkpt lat="40.84910932525058" lon="16.158265006538517"><ele>447.0</ele><time>2026-05-02T13:30:58Z</time></trkpt><trkpt lat="40.8491674591873" lon="16.15818843689093"><ele>448.40000000000003</ele><time>2026-05-02T13:30:59Z</time></trkpt><trkpt lat="40.84925590389497" lon="16.15812780486757"><ele>449.80000000000007</ele><time>2026-05-02T13:31:00Z</time></trkpt><trkpt lat="40.849341647481474" lon="16.158100512544284"><ele>451.2</ele><time>2026-05-02T13:31:01Z</time></trkpt><trkpt lat="40.849425232455665" lon="16.15804401829881"><ele>452.6</ele><time>2026-05-02T13:31:02Z</time></trkpt><trkpt lat="40.84951929678839" lon="16.15801344075703"><ele>454.0</ele><time>2026-05-02T13:31:03Z</time></trkpt><trkpt lat="40.84963181435235" lon="16.157978474119346"><ele>455.75</ele><time>2026-05-02T13:31:04Z</time></trkpt><trkpt lat="40.84974939255847" lon="16.157941321858054"><ele>457.5</ele><time>2026-05-02T13:31:05Z</time></trkpt><trkpt lat="40.8498790239843" lon="16.15789661233544"><ele>459.25</ele><time>2026-05-02T13:31:06Z</time></trkpt><trkpt lat="40.84999478859835" lon="16.157870055809926"><ele>461.0</ele><time>2026-05-02T13:31:07Z</time></trkpt><trkpt lat="40.850107607238165" lon="16.15785181591371"><ele>461.4</ele><time>2026-05-02T13:31:08Z</time></trkpt><trkpt lat="40.85022593998561" lon="16.157832103597105"><ele>461.8</ele><time>2026-05-02T13:31:09Z</time></trkpt><trkpt lat="40.85032040308502" lon="16.1578046660269"><ele>462.19999999999993</ele><time>2026-05-02T13:31:10Z</time></trkpt><trkpt lat="40.8504083016791" lon="16.15776045189357"><ele>462.59999999999997</ele><time>2026-05-02T13:31:11Z</time></trkpt><trkpt lat="40.850499240301886" lon="16.157692923233466"><ele>463.0</ele><time>2026-05-02T13:31:12Z</time></trkpt><trkpt lat="40.85060011360193" lon="16.157606851579786"><ele>463.0</ele><time>2026-05-02T13:31:13Z</time></trkpt><trkpt lat="40.850712527669195" lon="16.157516422505456"><ele>463.0</ele><time>2026-05-02T13:31:14Z</time></trkpt><trkpt lat="40.85081635760387" lon="16.15743376669315"><ele>463.0</ele><time>2026-05-02T13:31:15Z</time></trkpt><trkpt lat="40.85091064986325" lon="16.157350978481926"><ele>463.0</ele><time>2026-05-02T13:31:16Z</time></trkpt><trkpt lat="40.850987847059415" lon="16.157272402469122"><ele>464.75</ele><time>2026-05-02T13:31:17Z</time></trkpt><trkpt lat="40.85107403495139" lon="16.157180679983398"><ele>466.5</ele><time>2026-05-02T13:31:18Z</time></trkpt><trkpt lat="40.85115824735884" lon="16.157087677911033"><ele>468.25</ele><time>2026-05-02T13:31:19Z</time></trkpt><trkpt lat="40.85125483425717" lon="16.15698062007226"><ele>470.0</ele><time>2026-05-02T13:31:20Z</time></trkpt><trkpt lat="40.85136088441032" lon="16.15686204715273"><ele>470.0</ele><time>2026-05-02T13:31:21Z</time></trkpt><trkpt lat="40.85146548965177" lon="16.156743186643173"><ele>470.0</ele><time>2026-05-02T13:31:22Z</time></trkpt><trkpt lat="40.851565989440154" lon="16.15662442735194"><ele>470.0</ele><time>2026-05-02T13:31:23Z</time></trkpt><trkpt lat="40.851662820958516" lon="16.156520553891422"><ele>470.0</ele><time>2026-05-02T13:31:24Z</time></trkpt><trkpt lat="40.851734164556945" lon="16.156434621666065"><ele>471.66666666666663</ele><time>2026-05-02T13:31:25Z</time></trkpt><trkpt lat="40.851798763205366" lon="16.15637051727549"><ele>473.3333333333333</ele><time>2026-05-02T13:31:26Z</time></trkpt><trkpt lat="40.85188244619548" lon="16.156314756453206"><ele>475.0</ele><time>2026-05-02T13:31:27Z</time></trkpt><trkpt lat="40.851961916189175" lon="16.156275327774267"><ele>476.66666666666663</ele><time>2026-05-02T13:31:28Z</time></trkpt><trkpt lat="40.85204401033448" lon="16.15627511722031"><ele>478.3333333333333</ele><time>2026-05-02T13:31:29Z</time></trkpt><trkpt lat="40.85212983173627" lon="16.156252252758783"><ele>480.0</ele><time>2026-05-02T13:31:30Z</time></trkpt><trkpt lat="40.85222462028779" lon="16.15627918706158"><ele>480.0</ele><time>2026-05-02T13:31:31Z</time></trkpt><trkpt lat="40.85232086387219" lon="16.15630328185602"><ele>480.0</ele><time>2026-05-02T13:31:32Z</time></trkpt><trkpt lat="40.85241201803805" lon="16.15632361066469"><ele>480.0</ele><time>2026-05-02T13:31:33Z</time></trkpt><trkpt lat="40.85250756619684" lon="16.15633933912971"><ele>480.0</ele><time>2026-05-02T13:31:34Z</time></trkpt><trkpt lat="40.85261673527597" lon="16.156338440225333"><ele>480.0</ele><time>2026-05-02T13:31:35Z</time></trkpt><trkpt lat="40.85271945988538" lon="16.156335941469738"><ele>482.4</ele><time>2026-05-02T13:31:36Z</time></trkpt><trkpt lat="40.85283323810648" lon="16.15635637378154"><ele>484.8</ele><time>2026-05-02T13:31:37Z</time></trkpt><trkpt lat="40.85293262552929" lon="16.15634404696638"><ele>487.20000000000005</ele><time>2026-05-02T13:31:38Z</time></trkpt><trkpt lat="40.85300102786561" lon="16.156315103441163"><ele>489.6</ele><time>2026-05-02T13:31:39Z</time></trkpt><trkpt lat="40.85307013348603" lon="16.15629364506399"><ele>492.0</ele><time>2026-05-02T13:31:40Z</time></trkpt><trkpt lat="40.85317588440597" lon="16.156210953975528"><ele>492.0</ele><time>2026-05-02T13:31:42Z</time></trkpt><trkpt lat="40.853218909500825" lon="16.156140098686485"><ele>492.00000000000006</ele><time>2026-05-02T13:31:43Z</time></trkpt><trkpt lat="40.85325710461323" lon="16.1560200990979"><ele>492.00000000000006</ele><time>2026-05-02T13:31:44Z</time></trkpt><trkpt lat="40.85327829285986" lon="16.155890322549322"><ele>492.0</ele><time>2026-05-02T13:31:45Z</time></trkpt><trkpt lat="40.853283668298836" lon="16.155762846301986"><ele>492.0</ele><time>2026-05-02T13:31:46Z</time></trkpt><trkpt lat="40.85328626094253" lon="16.155617156304494"><ele>494.25</ele><time>2026-05-02T13:31:46.999Z</time></trkpt><trkpt lat="40.853277530510304" lon="16.155461596019656"><ele>496.5</ele><time>2026-05-02T13:31:47.999Z</time></trkpt><trkpt lat="40.85326542405261" lon="16.155316327897086"><ele>498.75</ele><time>2026-05-02T13:31:48.999Z</time></trkpt><trkpt lat="40.85327788658176" lon="16.15516087645929"><ele>501.0</ele><time>2026-05-02T13:31:49.999Z</time></trkpt><trkpt lat="40.853271236452" lon="16.155005143835574"><ele>502.4</ele><time>2026-05-02T13:31:50.999Z</time></trkpt><trkpt lat="40.85325093278119" lon="16.154852539116558"><ele>503.8</ele><time>2026-05-02T13:31:51.999Z</time></trkpt><trkpt lat="40.853247815294" lon="16.15470504697265"><ele>505.19999999999993</ele><time>2026-05-02T13:31:52.999Z</time></trkpt><trkpt lat="40.8532355961054" lon="16.154572188953704"><ele>506.59999999999997</ele><time>2026-05-02T13:31:53.999Z</time></trkpt><trkpt lat="40.85322035608883" lon="16.154464926704925"><ele>508.0</ele><time>2026-05-02T13:31:54.999Z</time></trkpt><trkpt lat="40.85320577990488" lon="16.154344969212744"><ele>508.00000000000006</ele><time>2026-05-02T13:31:56.999Z</time></trkpt><trkpt lat="40.85319622177342" lon="16.154255850544445"><ele>508.0</ele><time>2026-05-02T13:31:59.999Z</time></trkpt><trkpt lat="40.85316153241794" lon="16.15413265571253"><ele>508.0</ele><time>2026-05-02T13:32:35.999Z</time></trkpt><trkpt lat="40.85313961859353" lon="16.15404531383903"><ele>508.0</ele><time>2026-05-02T13:32:36.999Z</time></trkpt><trkpt lat="40.85310844109024" lon="16.1539204882345"><ele>508.00000000000006</ele><time>2026-05-02T13:32:37.999Z</time></trkpt><trkpt lat="40.85308534114999" lon="16.153792460310736"><ele>508.0</ele><time>2026-05-02T13:32:38.999Z</time></trkpt><trkpt lat="40.85306801677074" lon="16.153659888446587"><ele>507.75</ele><time>2026-05-02T13:32:40Z</time></trkpt><trkpt lat="40.853059990990154" lon="16.15352753942373"><ele>507.5</ele><time>2026-05-02T13:32:41Z</time></trkpt><trkpt lat="40.8530682943937" lon="16.15338956338013"><ele>507.25</ele><time>2026-05-02T13:32:42Z</time></trkpt><trkpt lat="40.85310071632531" lon="16.153233552887965"><ele>507.0</ele><time>2026-05-02T13:32:43Z</time></trkpt><trkpt lat="40.85314699965559" lon="16.153070502826385"><ele>504.75</ele><time>2026-05-02T13:32:44Z</time></trkpt><trkpt lat="40.85319325065379" lon="16.152903483604398"><ele>502.5</ele><time>2026-05-02T13:32:45Z</time></trkpt><trkpt lat="40.85325466749349" lon="16.15275211854904"><ele>500.25</ele><time>2026-05-02T13:32:46Z</time></trkpt><trkpt lat="40.85330092422367" lon="16.15260489999759"><ele>498.0</ele><time>2026-05-02T13:32:47Z</time></trkpt><trkpt lat="40.853336358065164" lon="16.152458749183946"><ele>496.4</ele><time>2026-05-02T13:32:48Z</time></trkpt><trkpt lat="40.85335469579389" lon="16.152308873844177"><ele>494.79999999999995</ele><time>2026-05-02T13:32:49Z</time></trkpt><trkpt lat="40.853336058868784" lon="16.152173302446485"><ele>493.2</ele><time>2026-05-02T13:32:50Z</time></trkpt><trkpt lat="40.853308318153296" lon="16.15204757302713"><ele>491.6</ele><time>2026-05-02T13:32:51Z</time></trkpt><trkpt lat="40.85325893160962" lon="16.15191131418964"><ele>490.0</ele><time>2026-05-02T13:32:52Z</time></trkpt><trkpt lat="40.85320350711496" lon="16.151747064394936"><ele>490.0</ele><time>2026-05-02T13:32:53Z</time></trkpt><trkpt lat="40.853145848784294" lon="16.15158834264084"><ele>490.0</ele><time>2026-05-02T13:32:54Z</time></trkpt><trkpt lat="40.853091630222295" lon="16.15144063408852"><ele>490.0</ele><time>2026-05-02T13:32:55Z</time></trkpt><trkpt lat="40.85304026304871" lon="16.151298655096106"><ele>490.0</ele><time>2026-05-02T13:32:56Z</time></trkpt><trkpt lat="40.85299101130196" lon="16.151153264217957"><ele>489.0</ele><time>2026-05-02T13:32:57Z</time></trkpt><trkpt lat="40.85296003450318" lon="16.15099010436726"><ele>488.0</ele><time>2026-05-02T13:32:58Z</time></trkpt><trkpt lat="40.85294789201752" lon="16.150817735268898"><ele>487.0</ele><time>2026-05-02T13:32:59Z</time></trkpt><trkpt lat="40.852952599653136" lon="16.15063362120385"><ele>486.0</ele><time>2026-05-02T13:33:00Z</time></trkpt><trkpt lat="40.85296098605032" lon="16.150450029609516"><ele>483.75</ele><time>2026-05-02T13:33:01Z</time></trkpt><trkpt lat="40.852970432061475" lon="16.150274185582468"><ele>481.5</ele><time>2026-05-02T13:33:02Z</time></trkpt><trkpt lat="40.85298162354013" lon="16.150095321670438"><ele>479.25</ele><time>2026-05-02T13:33:03Z</time></trkpt><trkpt lat="40.85299731359259" lon="16.149905048406048"><ele>477.0</ele><time>2026-05-02T13:33:04Z</time></trkpt><trkpt lat="40.853013506290374" lon="16.14971810281877"><ele>474.5</ele><time>2026-05-02T13:33:05Z</time></trkpt><trkpt lat="40.853032120429106" lon="16.149544071577182"><ele>472.0</ele><time>2026-05-02T13:33:06Z</time></trkpt><trkpt lat="40.853054831370315" lon="16.149376940421906"><ele>469.5</ele><time>2026-05-02T13:33:07Z</time></trkpt><trkpt lat="40.853081943741635" lon="16.14921782251602"><ele>467.0</ele><time>2026-05-02T13:33:08Z</time></trkpt><trkpt lat="40.85310319565154" lon="16.1490659074988"><ele>464.75</ele><time>2026-05-02T13:33:09Z</time></trkpt><trkpt lat="40.85313267396805" lon="16.14891926561534"><ele>462.5</ele><time>2026-05-02T13:33:10Z</time></trkpt><trkpt lat="40.85311730691482" lon="16.14874958124505"><ele>460.25</ele><time>2026-05-02T13:33:11Z</time></trkpt><trkpt lat="40.853076527440905" lon="16.148588789704085"><ele>458.0</ele><time>2026-05-02T13:33:12Z</time></trkpt><trkpt lat="40.85302733557158" lon="16.148444330214986"><ele>458.0</ele><time>2026-05-02T13:33:13Z</time></trkpt><trkpt lat="40.85301823481231" lon="16.148293545241316"><ele>458.0</ele><time>2026-05-02T13:33:14Z</time></trkpt><trkpt lat="40.85303234691548" lon="16.14814463301686"><ele>458.0</ele><time>2026-05-02T13:33:15Z</time></trkpt><trkpt lat="40.85307489135667" lon="16.148002481383127"><ele>458.0</ele><time>2026-05-02T13:33:16Z</time></trkpt><trkpt lat="40.853111477960276" lon="16.147852725564576"><ele>455.75</ele><time>2026-05-02T13:33:17Z</time></trkpt><trkpt lat="40.853122884636925" lon="16.1476938754983"><ele>453.5</ele><time>2026-05-02T13:33:18Z</time></trkpt><trkpt lat="40.85311667701701" lon="16.147521302964073"><ele>451.25</ele><time>2026-05-02T13:33:19Z</time></trkpt><trkpt lat="40.853104605530824" lon="16.14733858648883"><ele>449.0</ele><time>2026-05-02T13:33:20Z</time></trkpt><trkpt lat="40.853091509224974" lon="16.14715324617257"><ele>447.25</ele><time>2026-05-02T13:33:21Z</time></trkpt><trkpt lat="40.853078650223324" lon="16.14697036652039"><ele>445.5</ele><time>2026-05-02T13:33:22Z</time></trkpt><trkpt lat="40.85307121763775" lon="16.146789194325798"><ele>443.75</ele><time>2026-05-02T13:33:23Z</time></trkpt><trkpt lat="40.8530621272114" lon="16.146604094974574"><ele>442.0</ele><time>2026-05-02T13:33:24Z</time></trkpt><trkpt lat="40.853049530512315" lon="16.146403901203772"><ele>439.33333333333337</ele><time>2026-05-02T13:33:25Z</time></trkpt><trkpt lat="40.85303254974559" lon="16.146174640151383"><ele>436.66666666666663</ele><time>2026-05-02T13:33:26Z</time></trkpt><trkpt lat="40.853014889373306" lon="16.14591791091951"><ele>434.0</ele><time>2026-05-02T13:33:27Z</time></trkpt><trkpt lat="40.853001454949805" lon="16.14565428489429"><ele>430.66666666666663</ele><time>2026-05-02T13:33:28Z</time></trkpt><trkpt lat="40.85299073323245" lon="16.145381823180262"><ele>427.33333333333337</ele><time>2026-05-02T13:33:29Z</time></trkpt><trkpt lat="40.852978849463106" lon="16.145109604912577"><ele>424.0</ele><time>2026-05-02T13:33:30Z</time></trkpt><trkpt lat="40.85296435889009" lon="16.14484044419642"><ele>422.33333333333337</ele><time>2026-05-02T13:33:31Z</time></trkpt><trkpt lat="40.85295027418615" lon="16.144568350276042"><ele>420.66666666666663</ele><time>2026-05-02T13:33:32Z</time></trkpt><trkpt lat="40.85293803516292" lon="16.14429253018612"><ele>419.0</ele><time>2026-05-02T13:33:33Z</time></trkpt><trkpt lat="40.852925430117374" lon="16.14400818535969"><ele>418.0</ele><time>2026-05-02T13:33:34Z</time></trkpt><trkpt lat="40.85291492764699" lon="16.143721706387183"><ele>417.0</ele><time>2026-05-02T13:33:35Z</time></trkpt><trkpt lat="40.85290518611392" lon="16.143433110018407"><ele>416.0</ele><time>2026-05-02T13:33:36Z</time></trkpt><trkpt lat="40.85289765032297" lon="16.143142342654894"><ele>414.66666666666663</ele><time>2026-05-02T13:33:37Z</time></trkpt><trkpt lat="40.85289386298324" lon="16.14286305461187"><ele>413.33333333333337</ele><time>2026-05-02T13:33:38Z</time></trkpt><trkpt lat="40.852891977801015" lon="16.142593155374524"><ele>412.0</ele><time>2026-05-02T13:33:39Z</time></trkpt><trkpt lat="40.85288873983992" lon="16.14232398237475"><ele>412.0</ele><time>2026-05-02T13:33:40Z</time></trkpt><trkpt lat="40.852902000511634" lon="16.14207793550218"><ele>412.0</ele><time>2026-05-02T13:33:41Z</time></trkpt><trkpt lat="40.85289843720071" lon="16.141849578006134"><ele>412.0</ele><time>2026-05-02T13:33:42Z</time></trkpt><trkpt lat="40.852894219840316" lon="16.141639500852936"><ele>412.0</ele><time>2026-05-02T13:33:43Z</time></trkpt><trkpt lat="40.85289040354239" lon="16.141449277602344"><ele>412.0</ele><time>2026-05-02T13:33:44Z</time></trkpt><trkpt lat="40.852875239730956" lon="16.141276601116864"><ele>412.0</ele><time>2026-05-02T13:33:45Z</time></trkpt><trkpt lat="40.852888584930234" lon="16.141117073853415"><ele>412.0</ele><time>2026-05-02T13:33:46Z</time></trkpt><trkpt lat="40.85291849869241" lon="16.14096779255626"><ele>412.0</ele><time>2026-05-02T13:33:47Z</time></trkpt><trkpt lat="40.85297161572957" lon="16.140829993346106"><ele>412.0</ele><time>2026-05-02T13:33:47.999Z</time></trkpt><trkpt lat="40.85304600054869" lon="16.140705533974458"><ele>412.0</ele><time>2026-05-02T13:33:48.999Z</time></trkpt><trkpt lat="40.85314773737948" lon="16.140567260328503"><ele>412.0</ele><time>2026-05-02T13:33:49.999Z</time></trkpt><trkpt lat="40.85326644909291" lon="16.140425300567117"><ele>412.0</ele><time>2026-05-02T13:33:50.999Z</time></trkpt><trkpt lat="40.853399028686376" lon="16.140293388811465"><ele>412.0</ele><time>2026-05-02T13:33:51.999Z</time></trkpt><trkpt lat="40.853530231335334" lon="16.140175580806776"><ele>412.0</ele><time>2026-05-02T13:33:52.999Z</time></trkpt><trkpt lat="40.85364718828487" lon="16.14005373049852"><ele>412.0</ele><time>2026-05-02T13:33:53.999Z</time></trkpt><trkpt lat="40.85376532127076" lon="16.13991328552338"><ele>412.0</ele><time>2026-05-02T13:33:54.999Z</time></trkpt><trkpt lat="40.85389328554401" lon="16.139748670449166"><ele>412.0</ele><time>2026-05-02T13:33:55.999Z</time></trkpt><trkpt lat="40.85402460112979" lon="16.139573250322684"><ele>412.0</ele><time>2026-05-02T13:33:56.999Z</time></trkpt><trkpt lat="40.85417077622328" lon="16.139374599950255"><ele>412.0</ele><time>2026-05-02T13:33:57.999Z</time></trkpt><trkpt lat="40.85431576440126" lon="16.139178158936502"><ele>412.0</ele><time>2026-05-02T13:33:58.999Z</time></trkpt><trkpt lat="40.854448604950484" lon="16.13899681000692"><ele>409.33333333333337</ele><time>2026-05-02T13:33:59.999Z</time></trkpt><trkpt lat="40.854578315961874" lon="16.13881852987033"><ele>406.66666666666663</ele><time>2026-05-02T13:34:00.999Z</time></trkpt><trkpt lat="40.85471485915887" lon="16.13863684178401"><ele>404.0</ele><time>2026-05-02T13:34:01.999Z</time></trkpt><trkpt lat="40.85484409129901" lon="16.138465213063693"><ele>404.0</ele><time>2026-05-02T13:34:02.999Z</time></trkpt><trkpt lat="40.8549691458436" lon="16.13829244885089"><ele>404.0</ele><time>2026-05-02T13:34:03.999Z</time></trkpt><trkpt lat="40.85508446582067" lon="16.13813638758615"><ele>404.0</ele><time>2026-05-02T13:34:04.999Z</time></trkpt><trkpt lat="40.85519035851496" lon="16.137988084954763"><ele>401.66666666666663</ele><time>2026-05-02T13:34:05.999Z</time></trkpt><trkpt lat="40.85529629483292" lon="16.137841452658606"><ele>399.33333333333337</ele><time>2026-05-02T13:34:06.999Z</time></trkpt><trkpt lat="40.85540697017534" lon="16.137690125502104"><ele>397.0</ele><time>2026-05-02T13:34:07.999Z</time></trkpt><trkpt lat="40.85551787804856" lon="16.137534066920715"><ele>396.0</ele><time>2026-05-02T13:34:08.999Z</time></trkpt><trkpt lat="40.855633253756544" lon="16.137371057127506"><ele>395.0</ele><time>2026-05-02T13:34:09.999Z</time></trkpt><trkpt lat="40.85574555710239" lon="16.137210688358692"><ele>394.0</ele><time>2026-05-02T13:34:10.999Z</time></trkpt><trkpt lat="40.85586153097689" lon="16.13704467039217"><ele>394.0</ele><time>2026-05-02T13:34:11.999Z</time></trkpt><trkpt lat="40.855988110882365" lon="16.136866129642947"><ele>394.0</ele><time>2026-05-02T13:34:12.999Z</time></trkpt><trkpt lat="40.8561224630889" lon="16.13668308896987"><ele>394.0</ele><time>2026-05-02T13:34:13.999Z</time></trkpt><trkpt lat="40.85625881968547" lon="16.136499312861606"><ele>395.0</ele><time>2026-05-02T13:34:14.999Z</time></trkpt><trkpt lat="40.85638094032909" lon="16.136334961961268"><ele>396.0</ele><time>2026-05-02T13:34:15.999Z</time></trkpt><trkpt lat="40.8564888771379" lon="16.136186060954454"><ele>397.0</ele><time>2026-05-02T13:34:16.999Z</time></trkpt><trkpt lat="40.85659230903147" lon="16.136045870486843"><ele>397.0</ele><time>2026-05-02T13:34:17.999Z</time></trkpt><trkpt lat="40.85668501050003" lon="16.135917594366667"><ele>397.0</ele><time>2026-05-02T13:34:18.999Z</time></trkpt><trkpt lat="40.85676396081964" lon="16.13580450448455"><ele>397.0</ele><time>2026-05-02T13:34:19.999Z</time></trkpt><trkpt lat="40.856834645000355" lon="16.13570812767088"><ele>397.0</ele><time>2026-05-02T13:34:20.999Z</time></trkpt><trkpt lat="40.85689620929951" lon="16.13562468139553"><ele>397.0</ele><time>2026-05-02T13:34:21.999Z</time></trkpt><trkpt lat="40.85694068009536" lon="16.13556085364741"><ele>396.8</ele><time>2026-05-02T13:34:22.999Z</time></trkpt><trkpt lat="40.856993504578256" lon="16.135514286546513"><ele>396.6</ele><time>2026-05-02T13:34:23.999Z</time></trkpt><trkpt lat="40.857054846870525" lon="16.135433724712378"><ele>396.40000000000003</ele><time>2026-05-02T13:34:25.999Z</time></trkpt><trkpt lat="40.856966795836044" lon="16.13529240844847"><ele>396.20000000000005</ele><time>2026-05-02T13:34:26.999Z</time></trkpt><trkpt lat="40.85689505299986" lon="16.135227608710153"><ele>396.0</ele><time>2026-05-02T13:34:27.999Z</time></trkpt><trkpt lat="40.85678845920129" lon="16.13515575821023"><ele>396.33333333333337</ele><time>2026-05-02T13:34:28.999Z</time></trkpt><trkpt lat="40.85666192802478" lon="16.135035852733107"><ele>396.6666666666667</ele><time>2026-05-02T13:34:29.999Z</time></trkpt><trkpt lat="40.85650011406811" lon="16.134914551371956"><ele>397.0</ele><time>2026-05-02T13:34:30.999Z</time></trkpt><trkpt lat="40.85634093860926" lon="16.13479873820237"><ele>396.33333333333337</ele><time>2026-05-02T13:34:31.999Z</time></trkpt><trkpt lat="40.85621039069938" lon="16.134688998270825"><ele>395.66666666666663</ele><time>2026-05-02T13:34:32.999Z</time></trkpt><trkpt lat="40.85606654580515" lon="16.13454070298842"><ele>395.0</ele><time>2026-05-02T13:34:33.999Z</time></trkpt><trkpt lat="40.85592273994681" lon="16.134375710598487"><ele>393.66666666666663</ele><time>2026-05-02T13:34:34.999Z</time></trkpt><trkpt lat="40.855755265375656" lon="16.13418637127425"><ele>392.33333333333337</ele><time>2026-05-02T13:34:35.999Z</time></trkpt><trkpt lat="40.855581240461056" lon="16.134009512018267"><ele>391.0</ele><time>2026-05-02T13:34:36.999Z</time></trkpt><trkpt lat="40.85542598546419" lon="16.133857141303817"><ele>390.6666666666667</ele><time>2026-05-02T13:34:37.999Z</time></trkpt><trkpt lat="40.85528556779452" lon="16.133719434457884"><ele>390.33333333333337</ele><time>2026-05-02T13:34:38.999Z</time></trkpt><trkpt lat="40.85516007593431" lon="16.133593821959295"><ele>390.0</ele><time>2026-05-02T13:34:39.999Z</time></trkpt><trkpt lat="40.855038069408586" lon="16.133464538846617"><ele>389.0</ele><time>2026-05-02T13:34:40.999Z</time></trkpt><trkpt lat="40.85490983424845" lon="16.13331342933427"><ele>388.0</ele><time>2026-05-02T13:34:41.999Z</time></trkpt><trkpt lat="40.85479341886507" lon="16.133144309608085"><ele>387.0</ele><time>2026-05-02T13:34:42.999Z</time></trkpt><trkpt lat="40.85468808300269" lon="16.132981464540844"><ele>387.0</ele><time>2026-05-02T13:34:43.999Z</time></trkpt><trkpt lat="40.85458269858694" lon="16.1328226087516"><ele>387.0</ele><time>2026-05-02T13:34:45Z</time></trkpt><trkpt lat="40.854484455644695" lon="16.132674517547844"><ele>387.0</ele><time>2026-05-02T13:34:46Z</time></trkpt><trkpt lat="40.85438346372735" lon="16.13254569179676"><ele>387.0</ele><time>2026-05-02T13:34:47Z</time></trkpt><trkpt lat="40.8543206758703" lon="16.1323896403185"><ele>383.5</ele><time>2026-05-02T13:34:48Z</time></trkpt><trkpt lat="40.85427902628979" lon="16.13224674331174"><ele>380.0</ele><time>2026-05-02T13:34:49Z</time></trkpt><trkpt lat="40.854259254110836" lon="16.132077861586033"><ele>376.5</ele><time>2026-05-02T13:34:50Z</time></trkpt><trkpt lat="40.854264306899495" lon="16.131883429716346"><ele>373.0</ele><time>2026-05-02T13:34:51Z</time></trkpt><trkpt lat="40.85428037783269" lon="16.13167892207029"><ele>371.75</ele><time>2026-05-02T13:34:52Z</time></trkpt><trkpt lat="40.8543080159499" lon="16.131487784502053"><ele>370.5</ele><time>2026-05-02T13:34:53Z</time></trkpt><trkpt lat="40.854343735759294" lon="16.13131470956356"><ele>369.25</ele><time>2026-05-02T13:34:54Z</time></trkpt><trkpt lat="40.85438316684405" lon="16.131149188717252"><ele>368.0</ele><time>2026-05-02T13:34:55Z</time></trkpt><trkpt lat="40.85442599505471" lon="16.131002289080243"><ele>368.0</ele><time>2026-05-02T13:34:56Z</time></trkpt><trkpt lat="40.854460941550336" lon="16.130857250284283"><ele>368.0</ele><time>2026-05-02T13:34:57Z</time></trkpt><trkpt lat="40.85448723141521" lon="16.130696485266526"><ele>368.0</ele><time>2026-05-02T13:34:58Z</time></trkpt><trkpt lat="40.854508552036975" lon="16.130535630240644"><ele>368.0</ele><time>2026-05-02T13:34:59Z</time></trkpt><trkpt lat="40.854522493857864" lon="16.130387282243404"><ele>364.5</ele><time>2026-05-02T13:35:00Z</time></trkpt><trkpt lat="40.85452677926422" lon="16.130253268392842"><ele>361.0</ele><time>2026-05-02T13:35:01Z</time></trkpt><trkpt lat="40.854516378695536" lon="16.130118722184175"><ele>357.5</ele><time>2026-05-02T13:35:02Z</time></trkpt><trkpt lat="40.85449024440471" lon="16.129964349518833"><ele>354.0</ele><time>2026-05-02T13:35:03Z</time></trkpt><trkpt lat="40.854457238180146" lon="16.129780596658208"><ele>350.6666666666667</ele><time>2026-05-02T13:35:04Z</time></trkpt><trkpt lat="40.85437943132753" lon="16.129596022847863"><ele>347.33333333333337</ele><time>2026-05-02T13:35:05Z</time></trkpt><trkpt lat="40.85430599809299" lon="16.1293664116431"><ele>344.0</ele><time>2026-05-02T13:35:06Z</time></trkpt><trkpt lat="40.85423866870046" lon="16.129124367487854"><ele>341.6666666666667</ele><time>2026-05-02T13:35:07Z</time></trkpt><trkpt lat="40.85418470028602" lon="16.128888087457227"><ele>339.3333333333333</ele><time>2026-05-02T13:35:08Z</time></trkpt><trkpt lat="40.854135398379476" lon="16.128659837312778"><ele>337.0</ele><time>2026-05-02T13:35:09Z</time></trkpt><trkpt lat="40.854091074414164" lon="16.128437913924714"><ele>335.66666666666663</ele><time>2026-05-02T13:35:10Z</time></trkpt><trkpt lat="40.85405360898915" lon="16.128221939602856"><ele>334.3333333333333</ele><time>2026-05-02T13:35:11Z</time></trkpt><trkpt lat="40.854016993624306" lon="16.128020308674742"><ele>333.0</ele><time>2026-05-02T13:35:12Z</time></trkpt><trkpt lat="40.85399746943384" lon="16.127831396093992"><ele>333.0</ele><time>2026-05-02T13:35:13Z</time></trkpt><trkpt lat="40.85395833749056" lon="16.127658325977958"><ele>333.0</ele><time>2026-05-02T13:35:14Z</time></trkpt><trkpt lat="40.85391227475159" lon="16.12749359023495"><ele>333.0</ele><time>2026-05-02T13:35:15Z</time></trkpt><trkpt lat="40.853856286957175" lon="16.127333021465148"><ele>333.0</ele><time>2026-05-02T13:35:16Z</time></trkpt><trkpt lat="40.85378134633719" lon="16.12717382800735"><ele>333.0</ele><time>2026-05-02T13:35:17Z</time></trkpt><trkpt lat="40.85368347837758" lon="16.12703583224259"><ele>333.0</ele><time>2026-05-02T13:35:18Z</time></trkpt><trkpt lat="40.85356952334539" lon="16.12691290420133"><ele>333.0</ele><time>2026-05-02T13:35:19Z</time></trkpt><trkpt lat="40.853437141329074" lon="16.126802291384166"><ele>333.0</ele><time>2026-05-02T13:35:20Z</time></trkpt><trkpt lat="40.85331157803589" lon="16.12666927950986"><ele>333.0</ele><time>2026-05-02T13:35:21Z</time></trkpt><trkpt lat="40.85318667880975" lon="16.12654501628673"><ele>333.0</ele><time>2026-05-02T13:35:22Z</time></trkpt><trkpt lat="40.85306866045777" lon="16.126403264691827"><ele>333.0</ele><time>2026-05-02T13:35:23Z</time></trkpt><trkpt lat="40.85293243225249" lon="16.126274007747455"><ele>333.0</ele><time>2026-05-02T13:35:24Z</time></trkpt><trkpt lat="40.8527984261475" lon="16.126147791121706"><ele>333.0</ele><time>2026-05-02T13:35:25Z</time></trkpt><trkpt lat="40.852659841626235" lon="16.126018682706615"><ele>333.0</ele><time>2026-05-02T13:35:26Z</time></trkpt><trkpt lat="40.85250547051953" lon="16.12587781478824"><ele>332.6666666666667</ele><time>2026-05-02T13:35:27Z</time></trkpt><trkpt lat="40.852337482396536" lon="16.12572733985149"><ele>332.33333333333337</ele><time>2026-05-02T13:35:28Z</time></trkpt><trkpt lat="40.85216632875686" lon="16.12556981533496"><ele>332.0</ele><time>2026-05-02T13:35:29Z</time></trkpt><trkpt lat="40.851987721325024" lon="16.125400991416218"><ele>332.0</ele><time>2026-05-02T13:35:30Z</time></trkpt><trkpt lat="40.8518088774749" lon="16.125217303377827"><ele>332.0</ele><time>2026-05-02T13:35:31Z</time></trkpt><trkpt lat="40.85164189698083" lon="16.125047122366087"><ele>332.0</ele><time>2026-05-02T13:35:32Z</time></trkpt><trkpt lat="40.851490328664916" lon="16.124894901497388"><ele>331.5</ele><time>2026-05-02T13:35:33Z</time></trkpt><trkpt lat="40.85134765215564" lon="16.12477814330167"><ele>331.0</ele><time>2026-05-02T13:35:34Z</time></trkpt><trkpt lat="40.85125410142831" lon="16.124654158658586"><ele>330.5</ele><time>2026-05-02T13:35:35Z</time></trkpt><trkpt lat="40.85117213682232" lon="16.124565651978543"><ele>330.0</ele><time>2026-05-02T13:35:36Z</time></trkpt><trkpt lat="40.851092329771454" lon="16.12450502779021"><ele>330.0</ele><time>2026-05-02T13:35:37Z</time></trkpt><trkpt lat="40.85103780386648" lon="16.12443989451848"><ele>330.0</ele><time>2026-05-02T13:35:38Z</time></trkpt><trkpt lat="40.85098595398836" lon="16.124318301951075"><ele>330.0</ele><time>2026-05-02T13:35:40Z</time></trkpt><trkpt lat="40.85093601802856" lon="16.124200242275098"><ele>330.0</ele><time>2026-05-02T13:35:41Z</time></trkpt><trkpt lat="40.85085020719454" lon="16.124049099566214"><ele>330.0</ele><time>2026-05-02T13:35:42Z</time></trkpt><trkpt lat="40.85073961863814" lon="16.12389770420902"><ele>330.3333333333333</ele><time>2026-05-02T13:35:43Z</time></trkpt><trkpt lat="40.850619830364906" lon="16.123711105224444"><ele>330.66666666666663</ele><time>2026-05-02T13:35:44Z</time></trkpt><trkpt lat="40.85046750442161" lon="16.123512619847162"><ele>331.0</ele><time>2026-05-02T13:35:45Z</time></trkpt><trkpt lat="40.850283470897935" lon="16.12330296690083"><ele>332.5</ele><time>2026-05-02T13:35:46Z</time></trkpt><trkpt lat="40.85011835712214" lon="16.123080085903126"><ele>334.0</ele><time>2026-05-02T13:35:47Z</time></trkpt><trkpt lat="40.84995098677194" lon="16.122861848817955"><ele>334.0</ele><time>2026-05-02T13:35:48Z</time></trkpt><trkpt lat="40.84980579078429" lon="16.122646194238992"><ele>334.0</ele><time>2026-05-02T13:35:48.999Z</time></trkpt><trkpt lat="40.84964251379193" lon="16.122429405688425"><ele>336.5</ele><time>2026-05-02T13:35:49.999Z</time></trkpt><trkpt lat="40.849476800788096" lon="16.122209180578672"><ele>339.0</ele><time>2026-05-02T13:35:50.999Z</time></trkpt><trkpt lat="40.84931581002793" lon="16.121998293847568"><ele>339.6666666666667</ele><time>2026-05-02T13:35:51.999Z</time></trkpt><trkpt lat="40.84915929480525" lon="16.12182550957141"><ele>340.33333333333337</ele><time>2026-05-02T13:35:52.999Z</time></trkpt><trkpt lat="40.84904163647017" lon="16.12164129870425"><ele>341.0</ele><time>2026-05-02T13:35:53.999Z</time></trkpt><trkpt lat="40.84892242492801" lon="16.12147587588288"><ele>341.0</ele><time>2026-05-02T13:35:54.999Z</time></trkpt><trkpt lat="40.8488103493041" lon="16.12131579283614"><ele>341.0</ele><time>2026-05-02T13:35:55.999Z</time></trkpt><trkpt lat="40.84875616185992" lon="16.121111366969934"><ele>341.0</ele><time>2026-05-02T13:35:56.999Z</time></trkpt><trkpt lat="40.84871883448974" lon="16.12090068856762"><ele>343.0</ele><time>2026-05-02T13:35:57.999Z</time></trkpt><trkpt lat="40.84869279584878" lon="16.12067855508866"><ele>345.0</ele><time>2026-05-02T13:35:58.999Z</time></trkpt><trkpt lat="40.84865338706387" lon="16.120434220058307"><ele>347.0</ele><time>2026-05-02T13:35:59.999Z</time></trkpt><trkpt lat="40.84862989753576" lon="16.12016617871335"><ele>347.6666666666667</ele><time>2026-05-02T13:36:00.999Z</time></trkpt><trkpt lat="40.84859791596301" lon="16.11987643594812"><ele>348.3333333333333</ele><time>2026-05-02T13:36:01.999Z</time></trkpt><trkpt lat="40.8485625837321" lon="16.119580168196663"><ele>349.0</ele><time>2026-05-02T13:36:02.999Z</time></trkpt><trkpt lat="40.84853710288169" lon="16.119301517522807"><ele>349.66666666666663</ele><time>2026-05-02T13:36:03.999Z</time></trkpt><trkpt lat="40.848512710831045" lon="16.119015617111078"><ele>350.3333333333333</ele><time>2026-05-02T13:36:04.999Z</time></trkpt><trkpt lat="40.84848146847993" lon="16.118741564524033"><ele>351.0</ele><time>2026-05-02T13:36:05.999Z</time></trkpt><trkpt lat="40.84845124303598" lon="16.118466699323765"><ele>348.3333333333333</ele><time>2026-05-02T13:36:06.999Z</time></trkpt><trkpt lat="40.84844150929635" lon="16.118221797456762"><ele>345.66666666666663</ele><time>2026-05-02T13:36:07.999Z</time></trkpt><trkpt lat="40.84841564328561" lon="16.118006959340775"><ele>343.0</ele><time>2026-05-02T13:36:08.999Z</time></trkpt><trkpt lat="40.84838679737687" lon="16.117805011840254"><ele>343.0</ele><time>2026-05-02T13:36:09.999Z</time></trkpt><trkpt lat="40.848341087508615" lon="16.117599771214675"><ele>343.0</ele><time>2026-05-02T13:36:10.999Z</time></trkpt><trkpt lat="40.84830938075491" lon="16.11738497770694"><ele>343.0</ele><time>2026-05-02T13:36:11.999Z</time></trkpt><trkpt lat="40.84826382188792" lon="16.117160150383857"><ele>344.0</ele><time>2026-05-02T13:36:12.999Z</time></trkpt><trkpt lat="40.84821259497669" lon="16.116935840698872"><ele>345.0</ele><time>2026-05-02T13:36:13.999Z</time></trkpt><trkpt lat="40.84815060877097" lon="16.11670718797988"><ele>346.0</ele><time>2026-05-02T13:36:14.999Z</time></trkpt><trkpt lat="40.8480758345905" lon="16.116478341259675"><ele>347.0</ele><time>2026-05-02T13:36:15.999Z</time></trkpt><trkpt lat="40.84801315123902" lon="16.11622429722057"><ele>348.0</ele><time>2026-05-02T13:36:16.999Z</time></trkpt><trkpt lat="40.8479411588759" lon="16.115986118886386"><ele>349.0</ele><time>2026-05-02T13:36:17.999Z</time></trkpt><trkpt lat="40.84786561274122" lon="16.115779880044247"><ele>350.25</ele><time>2026-05-02T13:36:18.999Z</time></trkpt><trkpt lat="40.847808974896054" lon="16.115587584520142"><ele>351.5</ele><time>2026-05-02T13:36:19.999Z</time></trkpt><trkpt lat="40.84777014824321" lon="16.115400114337692"><ele>352.75</ele><time>2026-05-02T13:36:20.999Z</time></trkpt><trkpt lat="40.84775139836339" lon="16.11521010317214"><ele>354.0</ele><time>2026-05-02T13:36:21.999Z</time></trkpt><trkpt lat="40.84777636753518" lon="16.115028202091516"><ele>354.0</ele><time>2026-05-02T13:36:22.999Z</time></trkpt><trkpt lat="40.847806669563646" lon="16.11484276292359"><ele>354.0</ele><time>2026-05-02T13:36:23.999Z</time></trkpt><trkpt lat="40.8478378723744" lon="16.114617027160005"><ele>354.0</ele><time>2026-05-02T13:36:24.999Z</time></trkpt><trkpt lat="40.84789344826466" lon="16.11437281847048"><ele>354.0</ele><time>2026-05-02T13:36:25.999Z</time></trkpt><trkpt lat="40.847940537398394" lon="16.114113866122576"><ele>354.0</ele><time>2026-05-02T13:36:26.999Z</time></trkpt><trkpt lat="40.847988968696356" lon="16.11385028401218"><ele>354.0</ele><time>2026-05-02T13:36:27.999Z</time></trkpt><trkpt lat="40.8480418319687" lon="16.11359666881193"><ele>354.6666666666667</ele><time>2026-05-02T13:36:28.999Z</time></trkpt><trkpt lat="40.84809176114401" lon="16.113331084610902"><ele>355.33333333333337</ele><time>2026-05-02T13:36:29.999Z</time></trkpt><trkpt lat="40.84813513066068" lon="16.11306139981385"><ele>356.0</ele><time>2026-05-02T13:36:30.999Z</time></trkpt><trkpt lat="40.84816754582158" lon="16.112783945230955"><ele>356.0</ele><time>2026-05-02T13:36:31.999Z</time></trkpt><trkpt lat="40.84818237870025" lon="16.11249340592028"><ele>356.0</ele><time>2026-05-02T13:36:32.999Z</time></trkpt><trkpt lat="40.848183582753535" lon="16.11221324923172"><ele>356.0</ele><time>2026-05-02T13:36:33.999Z</time></trkpt><trkpt lat="40.84818819492038" lon="16.11195728655481"><ele>355.33333333333337</ele><time>2026-05-02T13:36:34.999Z</time></trkpt><trkpt lat="40.84819863399379" lon="16.111725850530608"><ele>354.6666666666667</ele><time>2026-05-02T13:36:35.999Z</time></trkpt><trkpt lat="40.84820601676756" lon="16.111508253051532"><ele>354.0</ele><time>2026-05-02T13:36:36.999Z</time></trkpt><trkpt lat="40.848208473765375" lon="16.111314577599124"><ele>354.79999999999995</ele><time>2026-05-02T13:36:37.999Z</time></trkpt><trkpt lat="40.848211802291026" lon="16.111135252581754"><ele>355.59999999999997</ele><time>2026-05-02T13:36:38.999Z</time></trkpt><trkpt lat="40.84821303696814" lon="16.11098900933528"><ele>356.4</ele><time>2026-05-02T13:36:39.999Z</time></trkpt><trkpt lat="40.848203145112684" lon="16.11086760345039"><ele>357.2</ele><time>2026-05-02T13:36:40.999Z</time></trkpt><trkpt lat="40.848187662413835" lon="16.11072896899469"><ele>358.0</ele><time>2026-05-02T13:36:41.999Z</time></trkpt><trkpt lat="40.84813379354569" lon="16.110584044271175"><ele>359.0</ele><time>2026-05-02T13:36:42.999Z</time></trkpt><trkpt lat="40.84804707808033" lon="16.1104464129909"><ele>360.0</ele><time>2026-05-02T13:36:43.999Z</time></trkpt><trkpt lat="40.84796315752853" lon="16.11029194660406"><ele>361.0</ele><time>2026-05-02T13:36:44.999Z</time></trkpt><trkpt lat="40.84786852661536" lon="16.11012666541561"><ele>362.0</ele><time>2026-05-02T13:36:45.999Z</time></trkpt><trkpt lat="40.847765488527365" lon="16.10995270428968"><ele>361.33333333333337</ele><time>2026-05-02T13:36:46.999Z</time></trkpt><trkpt lat="40.84766759466172" lon="16.109755946521478"><ele>360.6666666666667</ele><time>2026-05-02T13:36:47.999Z</time></trkpt><trkpt lat="40.847554831949" lon="16.109561781976343"><ele>360.0</ele><time>2026-05-02T13:36:48.999Z</time></trkpt><trkpt lat="40.847438866550426" lon="16.109365097609583"><ele>359.0</ele><time>2026-05-02T13:36:49.999Z</time></trkpt><trkpt lat="40.84732084881822" lon="16.109170518577944"><ele>358.0</ele><time>2026-05-02T13:36:51Z</time></trkpt><trkpt lat="40.84720040646131" lon="16.108972010515732"><ele>357.0</ele><time>2026-05-02T13:36:52Z</time></trkpt><trkpt lat="40.84708039117122" lon="16.108774205968302"><ele>357.0</ele><time>2026-05-02T13:36:53Z</time></trkpt><trkpt lat="40.84695849924412" lon="16.108575648175332"><ele>357.0</ele><time>2026-05-02T13:36:54Z</time></trkpt><trkpt lat="40.846830354979915" lon="16.108367056629092"><ele>357.0</ele><time>2026-05-02T13:36:55Z</time></trkpt><trkpt lat="40.84669915162259" lon="16.10814828691875"><ele>356.0</ele><time>2026-05-02T13:36:56Z</time></trkpt><trkpt lat="40.84655156270528" lon="16.107935035250463"><ele>355.0</ele><time>2026-05-02T13:36:57Z</time></trkpt><trkpt lat="40.84641659403296" lon="16.107705762284905"><ele>354.0</ele><time>2026-05-02T13:36:58Z</time></trkpt><trkpt lat="40.846277627962884" lon="16.107477070244116"><ele>357.0</ele><time>2026-05-02T13:36:59Z</time></trkpt><trkpt lat="40.84613012030521" lon="16.107238550558925"><ele>360.0</ele><time>2026-05-02T13:37:00Z</time></trkpt><trkpt lat="40.845980349276964" lon="16.107001758841456"><ele>357.0</ele><time>2026-05-02T13:37:01Z</time></trkpt><trkpt lat="40.84582540208347" lon="16.10676553054694"><ele>354.0</ele><time>2026-05-02T13:37:02Z</time></trkpt><trkpt lat="40.845664455010336" lon="16.10653294872329"><ele>354.0</ele><time>2026-05-02T13:37:03Z</time></trkpt><trkpt lat="40.845497951841494" lon="16.106298894198204"><ele>354.0</ele><time>2026-05-02T13:37:04Z</time></trkpt><trkpt lat="40.84532813173221" lon="16.10606443185464"><ele>354.0</ele><time>2026-05-02T13:37:05Z</time></trkpt><trkpt lat="40.84515989416107" lon="16.105831566459287"><ele>354.0</ele><time>2026-05-02T13:37:06Z</time></trkpt><trkpt lat="40.8449982806355" lon="16.105602498881662"><ele>352.0</ele><time>2026-05-02T13:37:07Z</time></trkpt><trkpt lat="40.844847902756484" lon="16.105396546411512"><ele>350.0</ele><time>2026-05-02T13:37:08Z</time></trkpt><trkpt lat="40.84470809295581" lon="16.10520032956969"><ele>348.0</ele><time>2026-05-02T13:37:09Z</time></trkpt><trkpt lat="40.84457950591333" lon="16.105017410490145"><ele>349.0</ele><time>2026-05-02T13:37:10Z</time></trkpt><trkpt lat="40.844455670172444" lon="16.10484470384505"><ele>350.0</ele><time>2026-05-02T13:37:11Z</time></trkpt><trkpt lat="40.844337994769035" lon="16.10468148513838"><ele>351.0</ele><time>2026-05-02T13:37:12Z</time></trkpt><trkpt lat="40.84421977652665" lon="16.104511179223515"><ele>350.3333333333333</ele><time>2026-05-02T13:37:13Z</time></trkpt><trkpt lat="40.844103225818166" lon="16.104340944562317"><ele>349.66666666666663</ele><time>2026-05-02T13:37:14Z</time></trkpt><trkpt lat="40.84398568370598" lon="16.104174578603892"><ele>349.0</ele><time>2026-05-02T13:37:15Z</time></trkpt><trkpt lat="40.84386534744071" lon="16.104006520310893"><ele>349.0</ele><time>2026-05-02T13:37:16Z</time></trkpt><trkpt lat="40.843738033022966" lon="16.103834201287516"><ele>349.0</ele><time>2026-05-02T13:37:17Z</time></trkpt><trkpt lat="40.84360523945785" lon="16.103648970415854"><ele>349.0</ele><time>2026-05-02T13:37:18Z</time></trkpt><trkpt lat="40.84347573620764" lon="16.10346259316692"><ele>348.0</ele><time>2026-05-02T13:37:19Z</time></trkpt><trkpt lat="40.8433411156896" lon="16.10327367086359"><ele>347.0</ele><time>2026-05-02T13:37:20Z</time></trkpt><trkpt lat="40.84321348479699" lon="16.103063317811532"><ele>346.0</ele><time>2026-05-02T13:37:21Z</time></trkpt><trkpt lat="40.84307220000969" lon="16.10289410629207"><ele>346.0</ele><time>2026-05-02T13:37:22Z</time></trkpt><trkpt lat="40.84295707724022" lon="16.10273112170476"><ele>346.0</ele><time>2026-05-02T13:37:23Z</time></trkpt><trkpt lat="40.842853462384156" lon="16.102590431616896"><ele>346.0</ele><time>2026-05-02T13:37:24Z</time></trkpt><trkpt lat="40.84276065240616" lon="16.102456113045267"><ele>345.4</ele><time>2026-05-02T13:37:25Z</time></trkpt><trkpt lat="40.84267162128675" lon="16.102341875097512"><ele>344.8</ele><time>2026-05-02T13:37:26Z</time></trkpt><trkpt lat="40.84260511213089" lon="16.102245668595515"><ele>344.2</ele><time>2026-05-02T13:37:27Z</time></trkpt><trkpt lat="40.84255405806826" lon="16.102169441781175"><ele>343.59999999999997</ele><time>2026-05-02T13:37:28Z</time></trkpt><trkpt lat="40.84251495676533" lon="16.102101620361793"><ele>343.0</ele><time>2026-05-02T13:37:29Z</time></trkpt><trkpt lat="40.84246372064321" lon="16.101989356937832"><ele>343.0</ele><time>2026-05-02T13:37:31Z</time></trkpt><trkpt lat="40.84256680804663" lon="16.101833029728574"><ele>343.0</ele><time>2026-05-02T13:37:32Z</time></trkpt><trkpt lat="40.842558114734686" lon="16.101686324382054"><ele>343.0</ele><time>2026-05-02T13:37:33Z</time></trkpt><trkpt lat="40.8425692230393" lon="16.10153661893761"><ele>343.0</ele><time>2026-05-02T13:37:34Z</time></trkpt><trkpt lat="40.842571031117984" lon="16.101367269501267"><ele>344.25</ele><time>2026-05-02T13:37:35Z</time></trkpt><trkpt lat="40.8425669460132" lon="16.101167986646058"><ele>345.5</ele><time>2026-05-02T13:37:36Z</time></trkpt><trkpt lat="40.842557605434244" lon="16.100992576110386"><ele>346.75</ele><time>2026-05-02T13:37:37Z</time></trkpt><trkpt lat="40.84254206396036" lon="16.100826635430955"><ele>348.0</ele><time>2026-05-02T13:37:38Z</time></trkpt><trkpt lat="40.84253146494175" lon="16.100652681051685"><ele>349.3333333333333</ele><time>2026-05-02T13:37:39Z</time></trkpt><trkpt lat="40.8425242298511" lon="16.100450866056686"><ele>350.66666666666663</ele><time>2026-05-02T13:37:40Z</time></trkpt><trkpt lat="40.8425277283986" lon="16.10025235395545"><ele>352.0</ele><time>2026-05-02T13:37:41Z</time></trkpt><trkpt lat="40.842527521856944" lon="16.100035674484005"><ele>353.3333333333333</ele><time>2026-05-02T13:37:42Z</time></trkpt><trkpt lat="40.84253549195865" lon="16.099836195879465"><ele>354.6666666666667</ele><time>2026-05-02T13:37:43Z</time></trkpt><trkpt lat="40.84253721575071" lon="16.099642212120376"><ele>356.0</ele><time>2026-05-02T13:37:44Z</time></trkpt><trkpt lat="40.842531215337665" lon="16.099441135143067"><ele>356.0</ele><time>2026-05-02T13:37:45Z</time></trkpt><trkpt lat="40.842524142343365" lon="16.09921955595994"><ele>356.0</ele><time>2026-05-02T13:37:46Z</time></trkpt><trkpt lat="40.842509130209265" lon="16.098988029092585"><ele>356.0</ele><time>2026-05-02T13:37:47Z</time></trkpt><trkpt lat="40.84248606893226" lon="16.098743610773397"><ele>357.0</ele><time>2026-05-02T13:37:48Z</time></trkpt><trkpt lat="40.842463194281855" lon="16.09849283582345"><ele>358.0</ele><time>2026-05-02T13:37:49Z</time></trkpt><trkpt lat="40.842448154648416" lon="16.098249116781716"><ele>359.0</ele><time>2026-05-02T13:37:50Z</time></trkpt><trkpt lat="40.842432882728346" lon="16.09803366795339"><ele>360.0</ele><time>2026-05-02T13:37:51Z</time></trkpt><trkpt lat="40.842417247639" lon="16.09784536239224"><ele>361.0</ele><time>2026-05-02T13:37:52Z</time></trkpt><trkpt lat="40.84240612770951" lon="16.097670370181945"><ele>362.0</ele><time>2026-05-02T13:37:52.999Z</time></trkpt><trkpt lat="40.84239590781986" lon="16.097496842365107"><ele>363.0</ele><time>2026-05-02T13:37:53.999Z</time></trkpt><trkpt lat="40.84239318797358" lon="16.097302717628658"><ele>363.6666666666667</ele><time>2026-05-02T13:37:54.999Z</time></trkpt><trkpt lat="40.842405592492796" lon="16.097082867146344"><ele>364.33333333333337</ele><time>2026-05-02T13:37:55.999Z</time></trkpt><trkpt lat="40.842428205593016" lon="16.096852347857293"><ele>365.0</ele><time>2026-05-02T13:37:56.999Z</time></trkpt><trkpt lat="40.84246249895729" lon="16.09661884449019"><ele>365.0</ele><time>2026-05-02T13:37:57.999Z</time></trkpt><trkpt lat="40.84250928697606" lon="16.096399077882126"><ele>365.0</ele><time>2026-05-02T13:37:58.999Z</time></trkpt><trkpt lat="40.84256891026092" lon="16.096174575102328"><ele>365.0</ele><time>2026-05-02T13:37:59.999Z</time></trkpt><trkpt lat="40.84263017470201" lon="16.095942854659246"><ele>368.0</ele><time>2026-05-02T13:38:00.999Z</time></trkpt><trkpt lat="40.84269047015686" lon="16.095715710529834"><ele>371.0</ele><time>2026-05-02T13:38:01.999Z</time></trkpt><trkpt lat="40.84274891538878" lon="16.095493080057157"><ele>374.0</ele><time>2026-05-02T13:38:02.999Z</time></trkpt><trkpt lat="40.8428010198725" lon="16.09525775357012"><ele>374.0</ele><time>2026-05-02T13:38:03.999Z</time></trkpt><trkpt lat="40.84285455975161" lon="16.094999926246462"><ele>374.0</ele><time>2026-05-02T13:38:04.999Z</time></trkpt><trkpt lat="40.84290401864771" lon="16.09475357143618"><ele>374.0</ele><time>2026-05-02T13:38:05.999Z</time></trkpt><trkpt lat="40.84295059633465" lon="16.09453518599826"><ele>374.25</ele><time>2026-05-02T13:38:06.999Z</time></trkpt><trkpt lat="40.84299389200881" lon="16.094342458561478"><ele>374.5</ele><time>2026-05-02T13:38:07.999Z</time></trkpt><trkpt lat="40.84303088203322" lon="16.094174378058028"><ele>374.75</ele><time>2026-05-02T13:38:08.999Z</time></trkpt><trkpt lat="40.843068214772565" lon="16.094000827617226"><ele>375.0</ele><time>2026-05-02T13:38:09.999Z</time></trkpt><trkpt lat="40.84309818652997" lon="16.093817673860286"><ele>375.3333333333333</ele><time>2026-05-02T13:38:10.999Z</time></trkpt><trkpt lat="40.843116944324755" lon="16.09361956113397"><ele>375.66666666666663</ele><time>2026-05-02T13:38:11.999Z</time></trkpt><trkpt lat="40.84312295062456" lon="16.0933988802362"><ele>376.0</ele><time>2026-05-02T13:38:12.999Z</time></trkpt><trkpt lat="40.8431210648528" lon="16.093153826942572"><ele>376.0</ele><time>2026-05-02T13:38:13.999Z</time></trkpt><trkpt lat="40.843117920271474" lon="16.092902462327107"><ele>376.0</ele><time>2026-05-02T13:38:14.999Z</time></trkpt><trkpt lat="40.843117342636745" lon="16.092643235962782"><ele>376.0</ele><time>2026-05-02T13:38:15.999Z</time></trkpt><trkpt lat="40.843118819522886" lon="16.092370482378396"><ele>376.0</ele><time>2026-05-02T13:38:16.999Z</time></trkpt><trkpt lat="40.84311882112084" lon="16.09209537482972"><ele>376.0</ele><time>2026-05-02T13:38:17.999Z</time></trkpt><trkpt lat="40.84311496825124" lon="16.09184178537464"><ele>376.0</ele><time>2026-05-02T13:38:18.999Z</time></trkpt><trkpt lat="40.84313118633876" lon="16.09158861051122"><ele>377.0</ele><time>2026-05-02T13:38:19.999Z</time></trkpt><trkpt lat="40.84313221935911" lon="16.09133172677104"><ele>378.0</ele><time>2026-05-02T13:38:20.999Z</time></trkpt><trkpt lat="40.843121016100554" lon="16.091067488722263"><ele>379.0</ele><time>2026-05-02T13:38:21.999Z</time></trkpt><trkpt lat="40.84312333843286" lon="16.090777266272916"><ele>380.5</ele><time>2026-05-02T13:38:22.999Z</time></trkpt><trkpt lat="40.84312385070587" lon="16.090464330405123"><ele>382.0</ele><time>2026-05-02T13:38:23.999Z</time></trkpt><trkpt lat="40.8431223401377" lon="16.090135615294685"><ele>383.0</ele><time>2026-05-02T13:38:24.999Z</time></trkpt><trkpt lat="40.84312119183092" lon="16.08984662944014"><ele>384.0</ele><time>2026-05-02T13:38:25.999Z</time></trkpt><trkpt lat="40.843125030405304" lon="16.089589773931515"><ele>385.0</ele><time>2026-05-02T13:38:26.999Z</time></trkpt><trkpt lat="40.84312676239762" lon="16.08936297848825"><ele>385.0</ele><time>2026-05-02T13:38:27.999Z</time></trkpt><trkpt lat="40.84312411287464" lon="16.08915903351933"><ele>385.0</ele><time>2026-05-02T13:38:28.999Z</time></trkpt><trkpt lat="40.843124093111065" lon="16.088969676843984"><ele>385.0</ele><time>2026-05-02T13:38:29.999Z</time></trkpt><trkpt lat="40.84312618140108" lon="16.088795979302038"><ele>385.0</ele><time>2026-05-02T13:38:30.999Z</time></trkpt><trkpt lat="40.84312456698132" lon="16.08862808901767"><ele>385.5</ele><time>2026-05-02T13:38:31.999Z</time></trkpt><trkpt lat="40.8431417907737" lon="16.088474141604"><ele>386.0</ele><time>2026-05-02T13:38:32.999Z</time></trkpt><trkpt lat="40.843145215087276" lon="16.088337111923213"><ele>386.5</ele><time>2026-05-02T13:38:33.999Z</time></trkpt><trkpt lat="40.843151318032106" lon="16.08819439598928"><ele>387.0</ele><time>2026-05-02T13:38:34.999Z</time></trkpt><trkpt lat="40.84316839311325" lon="16.088028689394378"><ele>388.0</ele><time>2026-05-02T13:38:35.999Z</time></trkpt><trkpt lat="40.84321936691848" lon="16.087848168129916"><ele>389.0</ele><time>2026-05-02T13:38:36.999Z</time></trkpt><trkpt lat="40.843264087243604" lon="16.087653253874464"><ele>390.0</ele><time>2026-05-02T13:38:37.999Z</time></trkpt><trkpt lat="40.84330907635834" lon="16.087439517496566"><ele>391.25</ele><time>2026-05-02T13:38:38.999Z</time></trkpt><trkpt lat="40.8433493740814" lon="16.08723539588878"><ele>392.5</ele><time>2026-05-02T13:38:39.999Z</time></trkpt><trkpt lat="40.84336973520677" lon="16.087053787829515"><ele>393.75</ele><time>2026-05-02T13:38:40.999Z</time></trkpt><trkpt lat="40.84341249022988" lon="16.08690996667868"><ele>395.0</ele><time>2026-05-02T13:38:41.999Z</time></trkpt><trkpt lat="40.84342455787724" lon="16.08677031067101"><ele>394.99999999999994</ele><time>2026-05-02T13:38:42.999Z</time></trkpt><trkpt lat="40.8434460350699" lon="16.08665638642112"><ele>395.0</ele><time>2026-05-02T13:38:43.999Z</time></trkpt><trkpt lat="40.84345426324974" lon="16.086555490301095"><ele>395.0</ele><time>2026-05-02T13:38:44.999Z</time></trkpt><trkpt lat="40.843459007882004" lon="16.08647112139325"><ele>395.0</ele><time>2026-05-02T13:38:45.999Z</time></trkpt><trkpt lat="40.84347608589898" lon="16.08636683516326"><ele>394.99999999999994</ele><time>2026-05-02T13:38:48.999Z</time></trkpt><trkpt lat="40.84357102230973" lon="16.08630845862653"><ele>395.0</ele><time>2026-05-02T13:38:51.999Z</time></trkpt><trkpt lat="40.8436578684401" lon="16.08621591201534"><ele>395.8</ele><time>2026-05-02T13:38:53.999Z</time></trkpt><trkpt lat="40.84370857097772" lon="16.086163723382334"><ele>396.6</ele><time>2026-05-02T13:38:54.999Z</time></trkpt><trkpt lat="40.84377961976533" lon="16.086091562769486"><ele>397.4</ele><time>2026-05-02T13:38:55.999Z</time></trkpt><trkpt lat="40.843866722852916" lon="16.086005159120617"><ele>398.2</ele><time>2026-05-02T13:38:57Z</time></trkpt><trkpt lat="40.843963970217224" lon="16.085916619843772"><ele>399.0</ele><time>2026-05-02T13:38:58Z</time></trkpt><trkpt lat="40.84407872811606" lon="16.085805459805485"><ele>399.75</ele><time>2026-05-02T13:38:59Z</time></trkpt><trkpt lat="40.84420420885657" lon="16.085722354827215"><ele>400.5</ele><time>2026-05-02T13:39:00Z</time></trkpt><trkpt lat="40.84430336318237" lon="16.08562833731213"><ele>401.25</ele><time>2026-05-02T13:39:01Z</time></trkpt><trkpt lat="40.84439578537483" lon="16.08555147855579"><ele>402.0</ele><time>2026-05-02T13:39:02Z</time></trkpt><trkpt lat="40.84450718445996" lon="16.085499101878387"><ele>402.75</ele><time>2026-05-02T13:39:03Z</time></trkpt><trkpt lat="40.844613707730836" lon="16.08545925853068"><ele>403.5</ele><time>2026-05-02T13:39:04Z</time></trkpt><trkpt lat="40.84471951239649" lon="16.085425172756157"><ele>404.25</ele><time>2026-05-02T13:39:05Z</time></trkpt><trkpt lat="40.844838906157285" lon="16.085376190713493"><ele>405.0</ele><time>2026-05-02T13:39:06Z</time></trkpt><trkpt lat="40.844967817154995" lon="16.085339964808888"><ele>405.0</ele><time>2026-05-02T13:39:07Z</time></trkpt><trkpt lat="40.84509145573084" lon="16.08527464126667"><ele>405.0</ele><time>2026-05-02T13:39:08Z</time></trkpt><trkpt lat="40.845222174779465" lon="16.085244448413075"><ele>405.0</ele><time>2026-05-02T13:39:09Z</time></trkpt><trkpt lat="40.84534394087075" lon="16.085231153216128"><ele>405.0</ele><time>2026-05-02T13:39:10Z</time></trkpt><trkpt lat="40.845470828780996" lon="16.08522372418083"><ele>406.25</ele><time>2026-05-02T13:39:11Z</time></trkpt><trkpt lat="40.84560100526017" lon="16.0852482777554"><ele>407.5</ele><time>2026-05-02T13:39:12Z</time></trkpt><trkpt lat="40.84573175362742" lon="16.08527844993799"><ele>408.75</ele><time>2026-05-02T13:39:13Z</time></trkpt><trkpt lat="40.84584942960017" lon="16.085305605509426"><ele>410.0</ele><time>2026-05-02T13:39:14Z</time></trkpt><trkpt lat="40.845886186877316" lon="16.08541455689377"><ele>410.0</ele><time>2026-05-02T13:39:15Z</time></trkpt><trkpt lat="40.845947504333004" lon="16.08543756330691"><ele>410.0</ele><time>2026-05-02T13:39:16Z</time></trkpt><trkpt lat="40.846100862557364" lon="16.08515278414251"><ele>410.0</ele><time>2026-05-02T13:39:17Z</time></trkpt><trkpt lat="40.846200305506294" lon="16.085147775126348"><ele>410.0</ele><time>2026-05-02T13:39:18Z</time></trkpt><trkpt lat="40.84629195999116" lon="16.08513593099829"><ele>411.2</ele><time>2026-05-02T13:39:19Z</time></trkpt><trkpt lat="40.84637537897938" lon="16.085123149966446"><ele>412.4</ele><time>2026-05-02T13:39:20Z</time></trkpt><trkpt lat="40.846470703915756" lon="16.085133658153556"><ele>413.6</ele><time>2026-05-02T13:39:21Z</time></trkpt><trkpt lat="40.84657165602392" lon="16.085178540421122"><ele>414.8</ele><time>2026-05-02T13:39:22Z</time></trkpt><trkpt lat="40.84667375301568" lon="16.085237072732504"><ele>416.0</ele><time>2026-05-02T13:39:23Z</time></trkpt><trkpt lat="40.84677798116938" lon="16.08530378671165"><ele>417.8</ele><time>2026-05-02T13:39:24Z</time></trkpt><trkpt lat="40.84688070383925" lon="16.085363314910367"><ele>419.6</ele><time>2026-05-02T13:39:25Z</time></trkpt><trkpt lat="40.84698606175781" lon="16.085412216842865"><ele>421.4</ele><time>2026-05-02T13:39:26Z</time></trkpt><trkpt lat="40.84707149819115" lon="16.08546704043744"><ele>423.2</ele><time>2026-05-02T13:39:27Z</time></trkpt><trkpt lat="40.84714869130219" lon="16.085536768888606"><ele>425.0</ele><time>2026-05-02T13:39:28Z</time></trkpt><trkpt lat="40.847207584438685" lon="16.085609327085688"><ele>425.0</ele><time>2026-05-02T13:39:29Z</time></trkpt><trkpt lat="40.8472759797435" lon="16.085691234288955"><ele>425.0</ele><time>2026-05-02T13:39:30Z</time></trkpt><trkpt lat="40.847356933456226" lon="16.08579852858188"><ele>425.0</ele><time>2026-05-02T13:39:31Z</time></trkpt><trkpt lat="40.84742448663617" lon="16.08591099479345"><ele>425.0</ele><time>2026-05-02T13:39:32Z</time></trkpt><trkpt lat="40.847491039632395" lon="16.086036632816555"><ele>425.0</ele><time>2026-05-02T13:39:33Z</time></trkpt><trkpt lat="40.84755544335917" lon="16.086160598179365"><ele>425.4</ele><time>2026-05-02T13:39:34Z</time></trkpt><trkpt lat="40.847612013570306" lon="16.086283181350925"><ele>425.8</ele><time>2026-05-02T13:39:35Z</time></trkpt><trkpt lat="40.84765533856214" lon="16.08638347106929"><ele>426.20000000000005</ele><time>2026-05-02T13:39:36Z</time></trkpt><trkpt lat="40.84769633935266" lon="16.086473266584438"><ele>426.6</ele><time>2026-05-02T13:39:37Z</time></trkpt><trkpt lat="40.84774266349284" lon="16.086580361116187"><ele>427.0</ele><time>2026-05-02T13:39:38Z</time></trkpt><trkpt lat="40.84778804388884" lon="16.086692820507785"><ele>430.20000000000005</ele><time>2026-05-02T13:39:39Z</time></trkpt><trkpt lat="40.84784121443853" lon="16.08680903339726"><ele>433.40000000000003</ele><time>2026-05-02T13:39:40Z</time></trkpt><trkpt lat="40.847897500290216" lon="16.086919010095304"><ele>436.59999999999997</ele><time>2026-05-02T13:39:41Z</time></trkpt><trkpt lat="40.84794678921161" lon="16.087025659733328"><ele>439.79999999999995</ele><time>2026-05-02T13:39:42Z</time></trkpt><trkpt lat="40.847997642204625" lon="16.08713972087522"><ele>443.0</ele><time>2026-05-02T13:39:43Z</time></trkpt><trkpt lat="40.84804330582015" lon="16.08726386401184"><ele>442.99999999999994</ele><time>2026-05-02T13:39:44Z</time></trkpt><trkpt lat="40.84807625409465" lon="16.08736223172513"><ele>443.0</ele><time>2026-05-02T13:39:45Z</time></trkpt><trkpt lat="40.848096741927414" lon="16.087455947605662"><ele>443.0</ele><time>2026-05-02T13:39:46Z</time></trkpt><trkpt lat="40.848126079794426" lon="16.087560965114314"><ele>443.0</ele><time>2026-05-02T13:39:47Z</time></trkpt><trkpt lat="40.84818723104813" lon="16.0876381354143"><ele>442.99999999999994</ele><time>2026-05-02T13:39:49Z</time></trkpt><trkpt lat="40.84825718267973" lon="16.087699715184115"><ele>443.0</ele><time>2026-05-02T13:39:51Z</time></trkpt><trkpt lat="40.848339130320724" lon="16.087739353993136"><ele>443.16666666666663</ele><time>2026-05-02T13:39:53Z</time></trkpt><trkpt lat="40.84842001257616" lon="16.087745365901494"><ele>443.3333333333333</ele><time>2026-05-02T13:39:55Z</time></trkpt><trkpt lat="40.84852753795799" lon="16.08772441892982"><ele>443.5</ele><time>2026-05-02T13:40:16.999Z</time></trkpt><trkpt lat="40.84859154959335" lon="16.087706307841614"><ele>443.66666666666663</ele><time>2026-05-02T13:40:17.999Z</time></trkpt><trkpt lat="40.84865964518701" lon="16.08768312435915"><ele>443.8333333333333</ele><time>2026-05-02T13:40:18.999Z</time></trkpt><trkpt lat="40.84873994611087" lon="16.087650715293698"><ele>444.0</ele><time>2026-05-02T13:40:19.999Z</time></trkpt><trkpt lat="40.84882127095322" lon="16.087601608189093"><ele>445.42857142857144</ele><time>2026-05-02T13:40:20.999Z</time></trkpt><trkpt lat="40.84888636515926" lon="16.087530750872634"><ele>446.8571428571429</ele><time>2026-05-02T13:40:21.999Z</time></trkpt><trkpt lat="40.848956760929596" lon="16.08746224651151"><ele>448.28571428571433</ele><time>2026-05-02T13:40:22.999Z</time></trkpt><trkpt lat="40.84901465265261" lon="16.0874249134903"><ele>449.7142857142857</ele><time>2026-05-02T13:40:23.999Z</time></trkpt><trkpt lat="40.849072262182965" lon="16.08738653285779"><ele>451.1428571428572</ele><time>2026-05-02T13:40:24.999Z</time></trkpt><trkpt lat="40.849132069512784" lon="16.087344500933806"><ele>452.5714285714286</ele><time>2026-05-02T13:40:25.999Z</time></trkpt><trkpt lat="40.849185817774504" lon="16.087299414536908"><ele>454.0</ele><time>2026-05-02T13:40:26.999Z</time></trkpt><trkpt lat="40.849278737223464" lon="16.087212890878327"><ele>455.33333333333337</ele><time>2026-05-02T13:40:28.999Z</time></trkpt><trkpt lat="40.849358265760245" lon="16.087146286835488"><ele>456.6666666666667</ele><time>2026-05-02T13:40:30.999Z</time></trkpt><trkpt lat="40.849424031555465" lon="16.087091663343273"><ele>458.0</ele><time>2026-05-02T13:40:32.999Z</time></trkpt><trkpt lat="40.849527977367146" lon="16.08701206903774"><ele>459.33333333333337</ele><time>2026-05-02T13:40:34.999Z</time></trkpt><trkpt lat="40.84957652122477" lon="16.086942113414217"><ele>460.6666666666667</ele><time>2026-05-02T13:40:36.999Z</time></trkpt><trkpt lat="40.84964679784503" lon="16.08688042337323"><ele>462.0</ele><time>2026-05-02T13:40:38.999Z</time></trkpt><trkpt lat="40.84976032842798" lon="16.086789452698735"><ele>462.0</ele><time>2026-05-02T13:40:40.999Z</time></trkpt><trkpt lat="40.849836710593046" lon="16.086741390365983"><ele>462.00000000000006</ele><time>2026-05-02T13:40:41.999Z</time></trkpt><trkpt lat="40.849905787874405" lon="16.086687350702572"><ele>462.00000000000006</ele><time>2026-05-02T13:40:42.999Z</time></trkpt><trkpt lat="40.850009233792896" lon="16.086609150459598"><ele>462.0</ele><time>2026-05-02T13:40:44.999Z</time></trkpt><trkpt lat="40.85011937666412" lon="16.086514747066303"><ele>462.0</ele><time>2026-05-02T13:40:46.999Z</time></trkpt><trkpt lat="40.850221550888534" lon="16.086445515579044"><ele>464.20000000000005</ele><time>2026-05-02T13:40:48.999Z</time></trkpt><trkpt lat="40.85033873880322" lon="16.08637641086022"><ele>466.40000000000003</ele><time>2026-05-02T13:40:50.999Z</time></trkpt><trkpt lat="40.850400235319675" lon="16.086327791815492"><ele>468.59999999999997</ele><time>2026-05-02T13:40:51.999Z</time></trkpt><trkpt lat="40.85049882221979" lon="16.086259630221818"><ele>470.79999999999995</ele><time>2026-05-02T13:40:53.999Z</time></trkpt><trkpt lat="40.850595205130155" lon="16.086181723141877"><ele>473.0</ele><time>2026-05-02T13:40:55.999Z</time></trkpt><trkpt lat="40.85067011697379" lon="16.086150722920426"><ele>473.0</ele><time>2026-05-02T13:40:57.999Z</time></trkpt><trkpt lat="40.85080093670655" lon="16.086066203353468"><ele>472.99999999999994</ele><time>2026-05-02T13:40:59.999Z</time></trkpt><trkpt lat="40.850874273208106" lon="16.086020022630617"><ele>472.99999999999994</ele><time>2026-05-02T13:41:00.999Z</time></trkpt><trkpt lat="40.850951941180405" lon="16.085962766339442"><ele>473.0</ele><time>2026-05-02T13:41:01.999Z</time></trkpt><trkpt lat="40.85101895265279" lon="16.085911706571302"><ele>473.0</ele><time>2026-05-02T13:41:03Z</time></trkpt><trkpt lat="40.851092794956024" lon="16.085861451410523"><ele>474.99999999999994</ele><time>2026-05-02T13:41:04Z</time></trkpt><trkpt lat="40.85115328243161" lon="16.085810285348394"><ele>477.0</ele><time>2026-05-02T13:41:05Z</time></trkpt><trkpt lat="40.851242164796595" lon="16.085750810027015"><ele>479.0</ele><time>2026-05-02T13:41:06Z</time></trkpt><trkpt lat="40.85132871551394" lon="16.08569599970628"><ele>481.0</ele><time>2026-05-02T13:41:07Z</time></trkpt><trkpt lat="40.851413652336625" lon="16.0856426475232"><ele>482.99999999999994</ele><time>2026-05-02T13:41:08Z</time></trkpt><trkpt lat="40.8514845309288" lon="16.085588394497197"><ele>485.0</ele><time>2026-05-02T13:41:09Z</time></trkpt><trkpt lat="40.85155238697951" lon="16.08553463321392"><ele>484.99999999999994</ele><time>2026-05-02T13:41:10Z</time></trkpt><trkpt lat="40.85162584957794" lon="16.085478728747002"><ele>485.0</ele><time>2026-05-02T13:41:11Z</time></trkpt><trkpt lat="40.85169187965364" lon="16.085430477299546"><ele>485.0</ele><time>2026-05-02T13:41:12Z</time></trkpt><trkpt lat="40.85173878513953" lon="16.08535901763764"><ele>485.0</ele><time>2026-05-02T13:41:13Z</time></trkpt><trkpt lat="40.851805008440145" lon="16.085253875102172"><ele>484.99999999999994</ele><time>2026-05-02T13:41:14Z</time></trkpt><trkpt lat="40.85187183300391" lon="16.08515868676693"><ele>485.0</ele><time>2026-05-02T13:41:15Z</time></trkpt><trkpt lat="40.85194093981231" lon="16.085071534627065"><ele>487.4</ele><time>2026-05-02T13:41:16Z</time></trkpt><trkpt lat="40.85201851926006" lon="16.084979357789578"><ele>489.8</ele><time>2026-05-02T13:41:17Z</time></trkpt><trkpt lat="40.852102168868626" lon="16.084884983593405"><ele>492.20000000000005</ele><time>2026-05-02T13:41:18Z</time></trkpt><trkpt lat="40.8521888650587" lon="16.0847782557574"><ele>494.6</ele><time>2026-05-02T13:41:19Z</time></trkpt><trkpt lat="40.85227025339175" lon="16.08467928873438"><ele>497.0</ele><time>2026-05-02T13:41:20Z</time></trkpt><trkpt lat="40.85233720916781" lon="16.08459457554408"><ele>497.0</ele><time>2026-05-02T13:41:21Z</time></trkpt><trkpt lat="40.852398123128644" lon="16.084518360159752"><ele>497.00000000000006</ele><time>2026-05-02T13:41:22Z</time></trkpt><trkpt lat="40.85246671581402" lon="16.084423941527696"><ele>497.00000000000006</ele><time>2026-05-02T13:41:23Z</time></trkpt><trkpt lat="40.85255098825568" lon="16.084331102610744"><ele>497.0</ele><time>2026-05-02T13:41:24Z</time></trkpt><trkpt lat="40.85262714457193" lon="16.08424969412419"><ele>497.0</ele><time>2026-05-02T13:41:25Z</time></trkpt><trkpt lat="40.8527075021822" lon="16.084123328442335"><ele>498.49999999999994</ele><time>2026-05-02T13:41:27Z</time></trkpt><trkpt lat="40.85274531084089" lon="16.084046629081136"><ele>500.0</ele><time>2026-05-02T13:41:28Z</time></trkpt><trkpt lat="40.85285096012852" lon="16.08397476453052"><ele>501.5</ele><time>2026-05-02T13:41:30Z</time></trkpt><trkpt lat="40.852915869309676" lon="16.083954404139043"><ele>503.0</ele><time>2026-05-02T13:41:31Z</time></trkpt><trkpt lat="40.852986164953165" lon="16.083951460993507"><ele>504.49999999999994</ele><time>2026-05-02T13:41:32Z</time></trkpt><trkpt lat="40.853075840529726" lon="16.08394854291848"><ele>506.0</ele><time>2026-05-02T13:41:33Z</time></trkpt><trkpt lat="40.853169777840186" lon="16.083946455145757"><ele>505.99999999999994</ele><time>2026-05-02T13:41:34Z</time></trkpt><trkpt lat="40.8532608911377" lon="16.0839543648102"><ele>506.0</ele><time>2026-05-02T13:41:35Z</time></trkpt><trkpt lat="40.85335302030052" lon="16.083960614344328"><ele>506.0</ele><time>2026-05-02T13:41:36Z</time></trkpt><trkpt lat="40.85344466004896" lon="16.08396220890481"><ele>506.0</ele><time>2026-05-02T13:41:37Z</time></trkpt><trkpt lat="40.85353012450781" lon="16.083969534151887"><ele>505.99999999999994</ele><time>2026-05-02T13:41:38Z</time></trkpt><trkpt lat="40.853605661399726" lon="16.08399415881308"><ele>506.0</ele><time>2026-05-02T13:41:39Z</time></trkpt><trkpt lat="40.853709479403804" lon="16.084093058566"><ele>508.66666666666663</ele><time>2026-05-02T13:41:41Z</time></trkpt><trkpt lat="40.85373465165055" lon="16.08416990501503"><ele>511.3333333333333</ele><time>2026-05-02T13:41:42Z</time></trkpt><trkpt lat="40.85374874708181" lon="16.084271810132044"><ele>514.0</ele><time>2026-05-02T13:41:43Z</time></trkpt><trkpt lat="40.85375882024534" lon="16.084390874837002"><ele>516.6666666666666</ele><time>2026-05-02T13:41:44Z</time></trkpt><trkpt lat="40.853760794761904" lon="16.084515270689124"><ele>519.3333333333334</ele><time>2026-05-02T13:41:45Z</time></trkpt><trkpt lat="40.8537672576939" lon="16.0846475532284"><ele>522.0</ele><time>2026-05-02T13:41:46Z</time></trkpt><trkpt lat="40.85378291315874" lon="16.0847832288246"><ele>522.0</ele><time>2026-05-02T13:41:47Z</time></trkpt><trkpt lat="40.853795857627446" lon="16.08491021585948"><ele>522.0</ele><time>2026-05-02T13:41:48Z</time></trkpt><trkpt lat="40.85381291475059" lon="16.085036022926673"><ele>522.0</ele><time>2026-05-02T13:41:49Z</time></trkpt><trkpt lat="40.85383165546788" lon="16.085155208311207"><ele>522.0</ele><time>2026-05-02T13:41:50Z</time></trkpt><trkpt lat="40.85385180561071" lon="16.085278646376192"><ele>522.0</ele><time>2026-05-02T13:41:51Z</time></trkpt><trkpt lat="40.85386869557436" lon="16.08543519427149"><ele>522.8333333333334</ele><time>2026-05-02T13:41:52Z</time></trkpt><trkpt lat="40.85388132209974" lon="16.085583395821654"><ele>523.6666666666666</ele><time>2026-05-02T13:41:53Z</time></trkpt><trkpt lat="40.853887263268604" lon="16.08571075790884"><ele>524.5</ele><time>2026-05-02T13:41:54Z</time></trkpt><trkpt lat="40.853906830045716" lon="16.085796871915033"><ele>525.3333333333333</ele><time>2026-05-02T13:41:55Z</time></trkpt><trkpt lat="40.85397022552608" lon="16.085845482842622"><ele>526.1666666666666</ele><time>2026-05-02T13:41:57Z</time></trkpt><trkpt lat="40.85402960965575" lon="16.08578797709439"><ele>527.0</ele><time>2026-05-02T13:42:05.999Z</time></trkpt><trkpt lat="40.85409277421594" lon="16.085737765028128"><ele>527.0</ele><time>2026-05-02T13:42:18.999Z</time></trkpt><trkpt lat="40.85413392471388" lon="16.085673853631484"><ele>527.0</ele><time>2026-05-02T13:42:19.999Z</time></trkpt><trkpt lat="40.85416934465182" lon="16.085576899144638"><ele>527.0</ele><time>2026-05-02T13:42:20.999Z</time></trkpt><trkpt lat="40.85420799585983" lon="16.085482047735262"><ele>527.0</ele><time>2026-05-02T13:42:21.999Z</time></trkpt><trkpt lat="40.85425785129913" lon="16.085386892373077"><ele>527.0</ele><time>2026-05-02T13:42:22.999Z</time></trkpt><trkpt lat="40.85432369749077" lon="16.085275070899133"><ele>527.0</ele><time>2026-05-02T13:42:23.999Z</time></trkpt><trkpt lat="40.85439263647193" lon="16.08517016230033"><ele>530.25</ele><time>2026-05-02T13:42:24.999Z</time></trkpt><trkpt lat="40.85447086260741" lon="16.085077196019963"><ele>533.5</ele><time>2026-05-02T13:42:25.999Z</time></trkpt><trkpt lat="40.85455169350868" lon="16.084982954075844"><ele>536.75</ele><time>2026-05-02T13:42:26.999Z</time></trkpt><trkpt lat="40.854642024904834" lon="16.084870396725396"><ele>540.0</ele><time>2026-05-02T13:42:27.999Z</time></trkpt><trkpt lat="40.8547395104186" lon="16.08473209585844"><ele>540.0</ele><time>2026-05-02T13:42:28.999Z</time></trkpt><trkpt lat="40.85482438463566" lon="16.084600828695066"><ele>540.0</ele><time>2026-05-02T13:42:29.999Z</time></trkpt><trkpt lat="40.85490486502853" lon="16.084479626023317"><ele>540.0</ele><time>2026-05-02T13:42:30.999Z</time></trkpt><trkpt lat="40.85498282842834" lon="16.084360250495056"><ele>540.0</ele><time>2026-05-02T13:42:31.999Z</time></trkpt><trkpt lat="40.85504447516656" lon="16.08424260835441"><ele>540.0</ele><time>2026-05-02T13:42:32.999Z</time></trkpt><trkpt lat="40.855106528700496" lon="16.08411078831552"><ele>540.0</ele><time>2026-05-02T13:42:33.999Z</time></trkpt><trkpt lat="40.85517092058259" lon="16.083960830742708"><ele>540.0</ele><time>2026-05-02T13:42:34.999Z</time></trkpt><trkpt lat="40.85523730134795" lon="16.08381405371993"><ele>540.0</ele><time>2026-05-02T13:42:35.999Z</time></trkpt><trkpt lat="40.855311411642944" lon="16.083683922002056"><ele>543.25</ele><time>2026-05-02T13:42:36.999Z</time></trkpt><trkpt lat="40.85538819451571" lon="16.083559418656343"><ele>546.5</ele><time>2026-05-02T13:42:37.999Z</time></trkpt><trkpt lat="40.8554617269347" lon="16.08341630891647"><ele>549.75</ele><time>2026-05-02T13:42:38.999Z</time></trkpt><trkpt lat="40.855531243260735" lon="16.083267578090425"><ele>553.0</ele><time>2026-05-02T13:42:39.999Z</time></trkpt><trkpt lat="40.85559261041543" lon="16.083106098083825"><ele>553.0</ele><time>2026-05-02T13:42:40.999Z</time></trkpt><trkpt lat="40.85565980912672" lon="16.08294064815748"><ele>553.0</ele><time>2026-05-02T13:42:41.999Z</time></trkpt><trkpt lat="40.85572550718725" lon="16.08279358423696"><ele>553.0</ele><time>2026-05-02T13:42:42.999Z</time></trkpt><trkpt lat="40.855771246028546" lon="16.082658422549866"><ele>553.0</ele><time>2026-05-02T13:42:43.999Z</time></trkpt><trkpt lat="40.85580872685122" lon="16.082488560903585"><ele>553.25</ele><time>2026-05-02T13:42:44.999Z</time></trkpt><trkpt lat="40.855839783007326" lon="16.08229467630365"><ele>553.5</ele><time>2026-05-02T13:42:45.999Z</time></trkpt><trkpt lat="40.85586389615796" lon="16.082149662920173"><ele>553.75</ele><time>2026-05-02T13:42:46.999Z</time></trkpt><trkpt lat="40.855890150681404" lon="16.082013602042924"><ele>554.0</ele><time>2026-05-02T13:42:47.999Z</time></trkpt><trkpt lat="40.855922093213664" lon="16.081844974008792"><ele>554.0</ele><time>2026-05-02T13:42:48.999Z</time></trkpt><trkpt lat="40.85594428184231" lon="16.08165524215944"><ele>554.0</ele><time>2026-05-02T13:42:49.999Z</time></trkpt><trkpt lat="40.85596524048983" lon="16.08144818776209"><ele>554.0</ele><time>2026-05-02T13:42:50.999Z</time></trkpt><trkpt lat="40.85598909763521" lon="16.081216694744185"><ele>556.0</ele><time>2026-05-02T13:42:51.999Z</time></trkpt><trkpt lat="40.85601721915467" lon="16.080962890612973"><ele>558.0</ele><time>2026-05-02T13:42:52.999Z</time></trkpt><trkpt lat="40.85606093386842" lon="16.08070616798095"><ele>560.0</ele><time>2026-05-02T13:42:53.999Z</time></trkpt><trkpt lat="40.85609549335796" lon="16.080443367630924"><ele>561.0</ele><time>2026-05-02T13:42:54.999Z</time></trkpt><trkpt lat="40.856129924702444" lon="16.080192507139742"><ele>562.0</ele><time>2026-05-02T13:42:55.999Z</time></trkpt><trkpt lat="40.85616174337716" lon="16.079933955043696"><ele>563.0</ele><time>2026-05-02T13:42:56.999Z</time></trkpt><trkpt lat="40.85618356565018" lon="16.07966759155429"><ele>563.6666666666666</ele><time>2026-05-02T13:42:57.999Z</time></trkpt><trkpt lat="40.85618368684149" lon="16.079401153157274"><ele>564.3333333333334</ele><time>2026-05-02T13:42:58.999Z</time></trkpt><trkpt lat="40.85618332811784" lon="16.079129725212276"><ele>565.0</ele><time>2026-05-02T13:42:59.999Z</time></trkpt><trkpt lat="40.856166658396475" lon="16.078851635407425"><ele>565.6666666666667</ele><time>2026-05-02T13:43:00.999Z</time></trkpt><trkpt lat="40.856142177053066" lon="16.07860365777076"><ele>566.3333333333334</ele><time>2026-05-02T13:43:01.999Z</time></trkpt><trkpt lat="40.85612627799971" lon="16.07837173510971"><ele>567.0</ele><time>2026-05-02T13:43:02.999Z</time></trkpt><trkpt lat="40.85611794132578" lon="16.078140268300608"><ele>568.6666666666666</ele><time>2026-05-02T13:43:03.999Z</time></trkpt><trkpt lat="40.8561203938538" lon="16.077903728332164"><ele>570.3333333333333</ele><time>2026-05-02T13:43:04.999Z</time></trkpt><trkpt lat="40.856156782877164" lon="16.07766800214926"><ele>572.0</ele><time>2026-05-02T13:43:05.999Z</time></trkpt><trkpt lat="40.85617680339611" lon="16.077410298218915"><ele>572.6666666666666</ele><time>2026-05-02T13:43:06.999Z</time></trkpt><trkpt lat="40.85625247154354" lon="16.07715620662816"><ele>573.3333333333334</ele><time>2026-05-02T13:43:07.999Z</time></trkpt><trkpt lat="40.85633560722054" lon="16.076893730862114"><ele>574.0</ele><time>2026-05-02T13:43:09Z</time></trkpt><trkpt lat="40.85642452319157" lon="16.07661310064073"><ele>575.0</ele><time>2026-05-02T13:43:10Z</time></trkpt><trkpt lat="40.85653723349468" lon="16.076323776818843"><ele>576.0</ele><time>2026-05-02T13:43:11Z</time></trkpt><trkpt lat="40.85664923662379" lon="16.076037732933514"><ele>576.0</ele><time>2026-05-02T13:43:12Z</time></trkpt><trkpt lat="40.8567627530187" lon="16.075770833298613"><ele>576.0</ele><time>2026-05-02T13:43:13Z</time></trkpt><trkpt lat="40.856876169947334" lon="16.075506791234414"><ele>577.0</ele><time>2026-05-02T13:43:14Z</time></trkpt><trkpt lat="40.856997529270174" lon="16.075241356297383"><ele>578.0</ele><time>2026-05-02T13:43:15Z</time></trkpt><trkpt lat="40.85713170388892" lon="16.074979613480785"><ele>578.0</ele><time>2026-05-02T13:43:16Z</time></trkpt><trkpt lat="40.85726698016008" lon="16.07472617092859"><ele>578.0</ele><time>2026-05-02T13:43:17Z</time></trkpt><trkpt lat="40.8573837258475" lon="16.074495916551776"><ele>578.0</ele><time>2026-05-02T13:43:18Z</time></trkpt><trkpt lat="40.85748754634187" lon="16.074279459093823"><ele>577.0</ele><time>2026-05-02T13:43:19Z</time></trkpt><trkpt lat="40.85758849308538" lon="16.074059271812306"><ele>576.0</ele><time>2026-05-02T13:43:20Z</time></trkpt><trkpt lat="40.85769259175024" lon="16.073825207300228"><ele>575.0</ele><time>2026-05-02T13:43:21Z</time></trkpt><trkpt lat="40.857797313527904" lon="16.07358454573931"><ele>575.0</ele><time>2026-05-02T13:43:22Z</time></trkpt><trkpt lat="40.85791104188932" lon="16.07337120392431"><ele>575.0</ele><time>2026-05-02T13:43:23Z</time></trkpt><trkpt lat="40.85797445266314" lon="16.07312570365033"><ele>575.0</ele><time>2026-05-02T13:43:24Z</time></trkpt><trkpt lat="40.85803521241448" lon="16.07289405433829"><ele>575.6666666666666</ele><time>2026-05-02T13:43:25Z</time></trkpt><trkpt lat="40.8580943161924" lon="16.072660801101737"><ele>576.3333333333334</ele><time>2026-05-02T13:43:26Z</time></trkpt><trkpt lat="40.85818690458008" lon="16.072439387887265"><ele>577.0</ele><time>2026-05-02T13:43:27Z</time></trkpt><trkpt lat="40.85828458698713" lon="16.07219976864427"><ele>577.0</ele><time>2026-05-02T13:43:28Z</time></trkpt><trkpt lat="40.85838538964736" lon="16.07193398462426"><ele>577.0</ele><time>2026-05-02T13:43:29Z</time></trkpt><trkpt lat="40.85850943739963" lon="16.07165938444555"><ele>577.0</ele><time>2026-05-02T13:43:30Z</time></trkpt><trkpt lat="40.85863228885843" lon="16.071380773906405"><ele>577.0</ele><time>2026-05-02T13:43:31Z</time></trkpt><trkpt lat="40.858745365505946" lon="16.071122194599692"><ele>577.0</ele><time>2026-05-02T13:43:32Z</time></trkpt><trkpt lat="40.858851796712315" lon="16.070882039090517"><ele>577.0</ele><time>2026-05-02T13:43:33Z</time></trkpt><trkpt lat="40.85895477081934" lon="16.070654521179243"><ele>577.0</ele><time>2026-05-02T13:43:34Z</time></trkpt><trkpt lat="40.85905714773739" lon="16.070443952229123"><ele>577.0</ele><time>2026-05-02T13:43:35Z</time></trkpt><trkpt lat="40.8591656471347" lon="16.070263063957153"><ele>577.0</ele><time>2026-05-02T13:43:36Z</time></trkpt><trkpt lat="40.85929831161624" lon="16.07015795911887"><ele>577.0</ele><time>2026-05-02T13:43:37Z</time></trkpt><trkpt lat="40.859433046649634" lon="16.070057089573126"><ele>577.3333333333334</ele><time>2026-05-02T13:43:38Z</time></trkpt><trkpt lat="40.859571021194874" lon="16.06995723232629"><ele>577.6666666666666</ele><time>2026-05-02T13:43:39Z</time></trkpt><trkpt lat="40.859685380996055" lon="16.06980792497633"><ele>578.0</ele><time>2026-05-02T13:43:40Z</time></trkpt><trkpt lat="40.85979217882194" lon="16.06962735377009"><ele>578.0</ele><time>2026-05-02T13:43:41Z</time></trkpt><trkpt lat="40.85990131763409" lon="16.069404013136115"><ele>578.0</ele><time>2026-05-02T13:43:42Z</time></trkpt><trkpt lat="40.86002589421892" lon="16.069160405604876"><ele>578.0</ele><time>2026-05-02T13:43:43Z</time></trkpt><trkpt lat="40.860161513772375" lon="16.068908575676662"><ele>578.5</ele><time>2026-05-02T13:43:44Z</time></trkpt><trkpt lat="40.860299715141856" lon="16.068655232238342"><ele>579.0</ele><time>2026-05-02T13:43:45Z</time></trkpt><trkpt lat="40.860454810849355" lon="16.06841843844149"><ele>578.5</ele><time>2026-05-02T13:43:46Z</time></trkpt><trkpt lat="40.860589429173025" lon="16.068148565021364"><ele>578.0</ele><time>2026-05-02T13:43:47Z</time></trkpt><trkpt lat="40.860728149352106" lon="16.067909906786344"><ele>578.0</ele><time>2026-05-02T13:43:48Z</time></trkpt><trkpt lat="40.860856440608366" lon="16.067689401379727"><ele>578.0</ele><time>2026-05-02T13:43:49Z</time></trkpt><trkpt lat="40.86098597638049" lon="16.06749419976677"><ele>578.0</ele><time>2026-05-02T13:43:50Z</time></trkpt><trkpt lat="40.86109553404193" lon="16.067294460053738"><ele>578.0</ele><time>2026-05-02T13:43:51Z</time></trkpt><trkpt lat="40.86117128406104" lon="16.067083524444833"><ele>578.0</ele><time>2026-05-02T13:43:52Z</time></trkpt><trkpt lat="40.861255567636526" lon="16.066882247936835"><ele>578.0</ele><time>2026-05-02T13:43:53Z</time></trkpt><trkpt lat="40.86133629646902" lon="16.06667311334037"><ele>578.5</ele><time>2026-05-02T13:43:54Z</time></trkpt><trkpt lat="40.861404958823805" lon="16.06647648828363"><ele>579.0</ele><time>2026-05-02T13:43:55Z</time></trkpt><trkpt lat="40.861464341838314" lon="16.06630296205139"><ele>579.5</ele><time>2026-05-02T13:43:56Z</time></trkpt><trkpt lat="40.86152008269796" lon="16.066157270283142"><ele>580.0</ele><time>2026-05-02T13:43:57Z</time></trkpt><trkpt lat="40.86156045743798" lon="16.066049872531057"><ele>580.0</ele><time>2026-05-02T13:43:58Z</time></trkpt><trkpt lat="40.86162816990575" lon="16.065929107563434"><ele>580.0</ele><time>2026-05-02T13:44:00Z</time></trkpt><trkpt lat="40.861664872019894" lon="16.065815199752812"><ele>580.0</ele><time>2026-05-02T13:44:02Z</time></trkpt><trkpt lat="40.861468383624356" lon="16.065552271193184"><ele>579.6666666666667</ele><time>2026-05-02T13:44:04Z</time></trkpt><trkpt lat="40.86141385242458" lon="16.065466435384536"><ele>579.3333333333334</ele><time>2026-05-02T13:44:05Z</time></trkpt><trkpt lat="40.861363916499684" lon="16.06537007464977"><ele>579.0</ele><time>2026-05-02T13:44:07Z</time></trkpt><trkpt lat="40.86133092721996" lon="16.06526654014901"><ele>578.6666666666666</ele><time>2026-05-02T13:44:28.999Z</time></trkpt><trkpt lat="40.86129529496816" lon="16.06519378291895"><ele>578.3333333333333</ele><time>2026-05-02T13:44:29.999Z</time></trkpt><trkpt lat="40.861249019127555" lon="16.06511047009384"><ele>578.0</ele><time>2026-05-02T13:44:30.999Z</time></trkpt><trkpt lat="40.86119011135097" lon="16.065016087813508"><ele>577.75</ele><time>2026-05-02T13:44:31.999Z</time></trkpt><trkpt lat="40.861131951433805" lon="16.064911690830638"><ele>577.5</ele><time>2026-05-02T13:44:32.999Z</time></trkpt><trkpt lat="40.86106736083816" lon="16.064787388484948"><ele>577.25</ele><time>2026-05-02T13:44:33.999Z</time></trkpt><trkpt lat="40.86099943477932" lon="16.064654784598233"><ele>577.0</ele><time>2026-05-02T13:44:34.999Z</time></trkpt><trkpt lat="40.860930428737454" lon="16.06452124803224"><ele>577.0</ele><time>2026-05-02T13:44:35.999Z</time></trkpt><trkpt lat="40.86085679504602" lon="16.064375877448036"><ele>577.0</ele><time>2026-05-02T13:44:36.999Z</time></trkpt><trkpt lat="40.8607804719324" lon="16.064226365250068"><ele>577.0</ele><time>2026-05-02T13:44:37.999Z</time></trkpt><trkpt lat="40.860706180440125" lon="16.064080412698804"><ele>577.0</ele><time>2026-05-02T13:44:38.999Z</time></trkpt><trkpt lat="40.86062942119955" lon="16.063933102442874"><ele>576.0</ele><time>2026-05-02T13:44:39.999Z</time></trkpt><trkpt lat="40.86055581319935" lon="16.063782761483953"><ele>575.0</ele><time>2026-05-02T13:44:40.999Z</time></trkpt><trkpt lat="40.860480732720085" lon="16.06363039279402"><ele>574.0</ele><time>2026-05-02T13:44:41.999Z</time></trkpt><trkpt lat="40.860402112690714" lon="16.063468650301942"><ele>573.0</ele><time>2026-05-02T13:44:42.999Z</time></trkpt><trkpt lat="40.860324486823146" lon="16.06329852985691"><ele>572.5</ele><time>2026-05-02T13:44:43.999Z</time></trkpt><trkpt lat="40.86025028961892" lon="16.06313011362047"><ele>572.0</ele><time>2026-05-02T13:44:44.999Z</time></trkpt><trkpt lat="40.86018617007772" lon="16.062972287331977"><ele>571.5</ele><time>2026-05-02T13:44:45.999Z</time></trkpt><trkpt lat="40.86012329870365" lon="16.06281138460481"><ele>571.0</ele><time>2026-05-02T13:44:46.999Z</time></trkpt><trkpt lat="40.860062403993375" lon="16.062656493040564"><ele>571.0</ele><time>2026-05-02T13:44:47.999Z</time></trkpt><trkpt lat="40.86000282258475" lon="16.062503348321922"><ele>571.0</ele><time>2026-05-02T13:44:48.999Z</time></trkpt><trkpt lat="40.85995069948931" lon="16.062362686673517"><ele>571.0</ele><time>2026-05-02T13:44:49.999Z</time></trkpt><trkpt lat="40.85989611256397" lon="16.062225544367948"><ele>571.0</ele><time>2026-05-02T13:44:50.999Z</time></trkpt><trkpt lat="40.85984332179858" lon="16.06210516255281"><ele>569.8333333333334</ele><time>2026-05-02T13:44:51.999Z</time></trkpt><trkpt lat="40.85979216272316" lon="16.062013075582325"><ele>568.6666666666667</ele><time>2026-05-02T13:44:52.999Z</time></trkpt><trkpt lat="40.85974516963499" lon="16.06193433841137"><ele>567.5</ele><time>2026-05-02T13:44:53.999Z</time></trkpt><trkpt lat="40.85966952968212" lon="16.061829339656153"><ele>566.3333333333334</ele><time>2026-05-02T13:44:55.999Z</time></trkpt><trkpt lat="40.85962104319113" lon="16.061759609473146"><ele>565.1666666666666</ele><time>2026-05-02T13:44:57.999Z</time></trkpt><trkpt lat="40.85955777662944" lon="16.06170058244823"><ele>564.0</ele><time>2026-05-02T13:45:01.999Z</time></trkpt><trkpt lat="40.85948823896748" lon="16.061663230236594"><ele>564.0</ele><time>2026-05-02T13:45:04.999Z</time></trkpt><trkpt lat="40.859410505394685" lon="16.061640878424054"><ele>564.0</ele><time>2026-05-02T13:45:07.999Z</time></trkpt><trkpt lat="40.85933734398568" lon="16.061675893964875"><ele>564.0</ele><time>2026-05-02T13:45:11.999Z</time></trkpt><trkpt lat="40.859284693758234" lon="16.06157677698677"><ele>564.0</ele><time>2026-05-02T13:45:12.999Z</time></trkpt><trkpt lat="40.8592564422714" lon="16.061663194331782"><ele>564.0</ele><time>2026-05-02T13:45:15Z</time></trkpt><trkpt lat="40.85919073919363" lon="16.06163279480591"><ele>564.0</ele><time>2026-05-02T13:45:18Z</time></trkpt><trkpt lat="40.85913215936781" lon="16.061584107896213"><ele>560.3333333333334</ele><time>2026-05-02T13:45:21Z</time></trkpt><trkpt lat="40.85914461057214" lon="16.06110731318444"><ele>556.6666666666667</ele><time>2026-05-02T13:45:24Z</time></trkpt><trkpt lat="40.85913099799502" lon="16.06102135281089"><ele>553.0</ele><time>2026-05-02T13:45:27Z</time></trkpt><trkpt lat="40.85907800636821" lon="16.06092928839505"><ele>553.0</ele><time>2026-05-02T13:45:30Z</time></trkpt><trkpt lat="40.85905565192646" lon="16.060842221553088"><ele>553.0</ele><time>2026-05-02T13:45:32Z</time></trkpt><trkpt lat="40.8590292718787" lon="16.060721425922605"><ele>553.0</ele><time>2026-05-02T13:45:34Z</time></trkpt><trkpt lat="40.85897594532045" lon="16.06061051753436"><ele>553.0</ele><time>2026-05-02T13:45:36Z</time></trkpt><trkpt lat="40.858918755089064" lon="16.060518967996693"><ele>553.0</ele><time>2026-05-02T13:45:38Z</time></trkpt><trkpt lat="40.858861529366095" lon="16.060428112975845"><ele>553.0</ele><time>2026-05-02T13:45:40Z</time></trkpt><trkpt lat="40.85878743502755" lon="16.060357359537054"><ele>551.1666666666667</ele><time>2026-05-02T13:45:42Z</time></trkpt><trkpt lat="40.85873532077178" lon="16.060280795590945"><ele>549.3333333333334</ele><time>2026-05-02T13:45:44Z</time></trkpt><trkpt lat="40.858695766903125" lon="16.060169808442"><ele>547.5</ele><time>2026-05-02T13:45:47Z</time></trkpt><trkpt lat="40.858650508024475" lon="16.060098914426863"><ele>545.6666666666666</ele><time>2026-05-02T13:45:49Z</time></trkpt><trkpt lat="40.858598623983724" lon="16.060011280080055"><ele>543.8333333333333</ele><time>2026-05-02T13:45:52Z</time></trkpt><trkpt lat="40.85849067066901" lon="16.060014114025677"><ele>542.0</ele><time>2026-05-02T13:45:55Z</time></trkpt><trkpt lat="40.85843354308552" lon="16.059943668573776"><ele>539.0</ele><time>2026-05-02T13:45:58Z</time></trkpt><trkpt lat="40.8583580806038" lon="16.05987853301065"><ele>536.0</ele><time>2026-05-02T13:46:01Z</time></trkpt><trkpt lat="40.85831048320664" lon="16.059803944780512"><ele>533.0</ele><time>2026-05-02T13:46:05Z</time></trkpt><trkpt lat="40.85827017783796" lon="16.059734987288532"><ele>530.0</ele><time>2026-05-02T13:46:30.999Z</time></trkpt><trkpt lat="40.858230427487044" lon="16.059665473364166"><ele>527.0</ele><time>2026-05-02T13:46:54.999Z</time></trkpt><trkpt lat="40.85817969231294" lon="16.05957674956453"><ele>524.0</ele><time>2026-05-02T13:47:03.999Z</time></trkpt><trkpt lat="40.85813958098545" lon="16.059506604388623"><ele>521.0</ele><time>2026-05-02T13:47:06.999Z</time></trkpt><trkpt lat="40.85809249041971" lon="16.059424254170533"><ele>521.0</ele><time>2026-05-02T13:47:11.999Z</time></trkpt><trkpt lat="40.85804941448762" lon="16.05934892459358"><ele>521.0</ele><time>2026-05-02T13:47:14.999Z</time></trkpt><trkpt lat="40.85801067775594" lon="16.05928225287746"><ele>521.0</ele><time>2026-05-02T13:47:16.999Z</time></trkpt><trkpt lat="40.85795660425527" lon="16.0591910710532"><ele>521.0</ele><time>2026-05-02T13:47:21Z</time></trkpt><trkpt lat="40.85790922665568" lon="16.05911411025907"><ele>521.0</ele><time>2026-05-02T13:47:23Z</time></trkpt><trkpt lat="40.85786814017913" lon="16.05904736884215"><ele>521.0</ele><time>2026-05-02T13:47:30Z</time></trkpt><trkpt lat="40.85781815983541" lon="16.058971867648545"><ele>521.0</ele><time>2026-05-02T13:47:33Z</time></trkpt><trkpt lat="40.85775503987161" lon="16.058881690110827"><ele>518.1666666666666</ele><time>2026-05-02T13:47:35Z</time></trkpt><trkpt lat="40.85768626963451" lon="16.058791665730848"><ele>515.3333333333333</ele><time>2026-05-02T13:47:37Z</time></trkpt><trkpt lat="40.857600592711556" lon="16.058686361605567"><ele>512.5</ele><time>2026-05-02T13:47:39Z</time></trkpt><trkpt lat="40.85755136210639" lon="16.058625853072325"><ele>509.66666666666663</ele><time>2026-05-02T13:47:40Z</time></trkpt><trkpt lat="40.85748193326659" lon="16.058569760766865"><ele>506.8333333333333</ele><time>2026-05-02T13:47:41Z</time></trkpt><trkpt lat="40.857429087313996" lon="16.058492973560192"><ele>504.0</ele><time>2026-05-02T13:47:42Z</time></trkpt><trkpt lat="40.85736934449083" lon="16.058422817890886"><ele>503.2</ele><time>2026-05-02T13:47:43Z</time></trkpt><trkpt lat="40.85731113933714" lon="16.058341604614196"><ele>502.4</ele><time>2026-05-02T13:47:44Z</time></trkpt><trkpt lat="40.857246406189475" lon="16.058248690728703"><ele>501.6</ele><time>2026-05-02T13:47:45Z</time></trkpt><trkpt lat="40.8571916747438" lon="16.058155107724613"><ele>500.8</ele><time>2026-05-02T13:47:46Z</time></trkpt><trkpt lat="40.85712447835685" lon="16.058052819190628"><ele>500.0</ele><time>2026-05-02T13:47:47Z</time></trkpt><trkpt lat="40.85706364205517" lon="16.057948187548696"><ele>497.8</ele><time>2026-05-02T13:47:48Z</time></trkpt><trkpt lat="40.85700431050797" lon="16.057850937106785"><ele>495.6</ele><time>2026-05-02T13:47:49Z</time></trkpt><trkpt lat="40.85694228650837" lon="16.057750857961306"><ele>493.4</ele><time>2026-05-02T13:47:50Z</time></trkpt><trkpt lat="40.85689175123863" lon="16.057633331589294"><ele>491.2</ele><time>2026-05-02T13:47:51Z</time></trkpt><trkpt lat="40.856825395443124" lon="16.057537714031582"><ele>489.0</ele><time>2026-05-02T13:47:52Z</time></trkpt><trkpt lat="40.85676351251083" lon="16.057428175522563"><ele>485.6</ele><time>2026-05-02T13:47:53Z</time></trkpt><trkpt lat="40.85670202749167" lon="16.057321686532138"><ele>482.2</ele><time>2026-05-02T13:47:54Z</time></trkpt><trkpt lat="40.85661473928233" lon="16.057239961836352"><ele>478.80000000000007</ele><time>2026-05-02T13:47:55Z</time></trkpt><trkpt lat="40.85654910051096" lon="16.057136092813"><ele>475.40000000000003</ele><time>2026-05-02T13:47:56Z</time></trkpt><trkpt lat="40.85646884653176" lon="16.05705698545015"><ele>472.0</ele><time>2026-05-02T13:47:57Z</time></trkpt><trkpt lat="40.856408434106484" lon="16.05698244837291"><ele>472.00000000000006</ele><time>2026-05-02T13:47:58Z</time></trkpt><trkpt lat="40.85635328739121" lon="16.056931987265767"><ele>472.0</ele><time>2026-05-02T13:47:59Z</time></trkpt><trkpt lat="40.85629415734306" lon="16.05688754206282"><ele>472.0</ele><time>2026-05-02T13:48:00Z</time></trkpt><trkpt lat="40.85623057990601" lon="16.056838088484426"><ele>472.0</ele><time>2026-05-02T13:48:01Z</time></trkpt><trkpt lat="40.856164992815955" lon="16.056767582749533"><ele>472.00000000000006</ele><time>2026-05-02T13:48:02Z</time></trkpt><trkpt lat="40.85608741772821" lon="16.05672575893081"><ele>472.0</ele><time>2026-05-02T13:48:03Z</time></trkpt><trkpt lat="40.856014945365445" lon="16.056687098267037"><ele>472.00000000000006</ele><time>2026-05-02T13:48:04Z</time></trkpt><trkpt lat="40.85595396551215" lon="16.056639782572596"><ele>472.0</ele><time>2026-05-02T13:48:05Z</time></trkpt><trkpt lat="40.855888655492" lon="16.056587633378093"><ele>472.0</ele><time>2026-05-02T13:48:06Z</time></trkpt><trkpt lat="40.85582194128484" lon="16.05652906432097"><ele>472.0</ele><time>2026-05-02T13:48:07Z</time></trkpt><trkpt lat="40.855752065456095" lon="16.056464127608848"><ele>472.00000000000006</ele><time>2026-05-02T13:48:08Z</time></trkpt><trkpt lat="40.85568533769283" lon="16.056399353469907"><ele>472.0</ele><time>2026-05-02T13:48:09Z</time></trkpt><trkpt lat="40.85561069235342" lon="16.05632360427988"><ele>469.33333333333337</ele><time>2026-05-02T13:48:10Z</time></trkpt><trkpt lat="40.855537748092864" lon="16.056245745891413"><ele>466.6666666666667</ele><time>2026-05-02T13:48:11Z</time></trkpt><trkpt lat="40.85547552495552" lon="16.056171542654788"><ele>464.0</ele><time>2026-05-02T13:48:12Z</time></trkpt><trkpt lat="40.85542889917566" lon="16.056100844880714"><ele>461.33333333333337</ele><time>2026-05-02T13:48:13Z</time></trkpt><trkpt lat="40.85537693091053" lon="16.05602072863619"><ele>458.6666666666667</ele><time>2026-05-02T13:48:14Z</time></trkpt><trkpt lat="40.85536214566625" lon="16.05588800991638"><ele>456.0</ele><time>2026-05-02T13:48:15.999Z</time></trkpt><trkpt lat="40.85534894864435" lon="16.05572943481769"><ele>454.6</ele><time>2026-05-02T13:48:17.999Z</time></trkpt><trkpt lat="40.85534856643231" lon="16.05560208486092"><ele>453.20000000000005</ele><time>2026-05-02T13:48:18.999Z</time></trkpt><trkpt lat="40.85534997019779" lon="16.055508875021246"><ele>451.79999999999995</ele><time>2026-05-02T13:48:19.999Z</time></trkpt><trkpt lat="40.85533951496792" lon="16.055423096528994"><ele>450.4</ele><time>2026-05-02T13:48:21.999Z</time></trkpt><trkpt lat="40.85529653154279" lon="16.055320757647696"><ele>449.0</ele><time>2026-05-02T13:48:25.999Z</time></trkpt><trkpt lat="40.85509215548162" lon="16.05541274810353"><ele>448.2</ele><time>2026-05-02T13:48:26.999Z</time></trkpt><trkpt lat="40.854996642891514" lon="16.055474385350816"><ele>447.4</ele><time>2026-05-02T13:48:27.999Z</time></trkpt><trkpt lat="40.854888811967356" lon="16.055526822257715"><ele>446.6</ele><time>2026-05-02T13:48:28.999Z</time></trkpt><trkpt lat="40.85480175911794" lon="16.055589703433093"><ele>445.8</ele><time>2026-05-02T13:48:29.999Z</time></trkpt><trkpt lat="40.85475147849235" lon="16.055645792000035"><ele>445.0</ele><time>2026-05-02T13:48:31.999Z</time></trkpt><trkpt lat="40.854817043255416" lon="16.05557837224725"><ele>445.0</ele><time>2026-05-02T13:48:40.999Z</time></trkpt><trkpt lat="40.85490198827734" lon="16.05552225658373"><ele>445.0</ele><time>2026-05-02T13:48:41.999Z</time></trkpt><trkpt lat="40.855003147838026" lon="16.055491875598136"><ele>445.0</ele><time>2026-05-02T13:48:42.999Z</time></trkpt><trkpt lat="40.85506361567123" lon="16.05545903578985"><ele>445.0</ele><time>2026-05-02T13:48:43.999Z</time></trkpt><trkpt lat="40.8551953324581" lon="16.055420357735397"><ele>445.0</ele><time>2026-05-02T13:48:45.999Z</time></trkpt><trkpt lat="40.85528723345963" lon="16.055369375457403"><ele>445.00000000000006</ele><time>2026-05-02T13:48:47.999Z</time></trkpt><trkpt lat="40.855269550330135" lon="16.055274600672504"><ele>445.0</ele><time>2026-05-02T13:48:50.999Z</time></trkpt><trkpt lat="40.85519247267623" lon="16.05515329823025"><ele>445.0</ele><time>2026-05-02T13:48:52.999Z</time></trkpt><trkpt lat="40.8551382742178" lon="16.05510126592846"><ele>445.0</ele><time>2026-05-02T13:48:53.999Z</time></trkpt><trkpt lat="40.85508149473747" lon="16.055062719864065"><ele>445.00000000000006</ele><time>2026-05-02T13:48:54.999Z</time></trkpt><trkpt lat="40.855030954940844" lon="16.05499922842233"><ele>445.0</ele><time>2026-05-02T13:51:58Z</time></trkpt><trkpt lat="40.85501826097277" lon="16.05490370626054"><ele>445.0</ele><time>2026-05-02T13:52:01Z</time></trkpt><trkpt lat="40.85496185475719" lon="16.054828570309397"><ele>445.0</ele><time>2026-05-02T13:52:05Z</time></trkpt><trkpt lat="40.8549041867618" lon="16.054997156857254"><ele>445.0</ele><time>2026-05-02T13:52:06Z</time></trkpt><trkpt lat="40.85483470459107" lon="16.054980720075065"><ele>445.0</ele><time>2026-05-02T13:52:10Z</time></trkpt><trkpt lat="40.85484922579063" lon="16.054612157689647"><ele>444.33333333333337</ele><time>2026-05-02T13:52:23.999Z</time></trkpt><trkpt lat="40.85482739616959" lon="16.054507907112075"><ele>443.6666666666667</ele><time>2026-05-02T13:52:27.999Z</time></trkpt><trkpt lat="40.85479536138357" lon="16.05439897665165"><ele>443.0</ele><time>2026-05-02T13:52:29.999Z</time></trkpt><trkpt lat="40.85476830676044" lon="16.054321824684234"><ele>442.33333333333337</ele><time>2026-05-02T13:52:30.999Z</time></trkpt><trkpt lat="40.854740184441546" lon="16.054241871836496"><ele>441.6666666666667</ele><time>2026-05-02T13:52:31.999Z</time></trkpt><trkpt lat="40.85466543147302" lon="16.054113010520638"><ele>441.0</ele><time>2026-05-02T13:52:33.999Z</time></trkpt><trkpt lat="40.85461541135909" lon="16.054040733005994"><ele>439.3333333333333</ele><time>2026-05-02T13:52:34.999Z</time></trkpt><trkpt lat="40.85457772136542" lon="16.053970445579836"><ele>437.66666666666663</ele><time>2026-05-02T13:52:35.999Z</time></trkpt><trkpt lat="40.854521115368364" lon="16.053846600871093"><ele>436.0</ele><time>2026-05-02T13:52:37.999Z</time></trkpt><trkpt lat="40.85446087400881" lon="16.05372667856171"><ele>434.3333333333333</ele><time>2026-05-02T13:52:39.999Z</time></trkpt><trkpt lat="40.85443108968065" lon="16.053643746159082"><ele>432.66666666666663</ele><time>2026-05-02T13:52:40.999Z</time></trkpt><trkpt lat="40.85440455814983" lon="16.05355091752249"><ele>431.0</ele><time>2026-05-02T13:52:41.999Z</time></trkpt><trkpt lat="40.85437151843761" lon="16.053433066024006"><ele>430.99999999999994</ele><time>2026-05-02T13:52:43.999Z</time></trkpt><trkpt lat="40.85433658758028" lon="16.053346806307022"><ele>431.0</ele><time>2026-05-02T13:52:45.999Z</time></trkpt><trkpt lat="40.85435610282207" lon="16.053256746204063"><ele>431.0</ele><time>2026-05-02T13:52:48.999Z</time></trkpt><trkpt lat="40.85442178271053" lon="16.05329177874415"><ele>431.0</ele><time>2026-05-02T13:52:50.999Z</time></trkpt><trkpt lat="40.8544889090859" lon="16.05327686007978"><ele>430.99999999999994</ele><time>2026-05-02T13:53:04.999Z</time></trkpt><trkpt lat="40.85461550786861" lon="16.053234421206675"><ele>431.0</ele><time>2026-05-02T13:53:06.999Z</time></trkpt><trkpt lat="40.854694495130076" lon="16.05320206062225"><ele>430.49999999999994</ele><time>2026-05-02T13:53:07.999Z</time></trkpt><trkpt lat="40.854768491077806" lon="16.053149721043"><ele>430.0</ele><time>2026-05-02T13:53:08.999Z</time></trkpt><trkpt lat="40.85484373644607" lon="16.053127514060172"><ele>429.5</ele><time>2026-05-02T13:53:09.999Z</time></trkpt><trkpt lat="40.854922294743986" lon="16.053072123745423"><ele>429.0</ele><time>2026-05-02T13:53:10.999Z</time></trkpt><trkpt lat="40.8550124005737" lon="16.053041449470577"><ele>428.49999999999994</ele><time>2026-05-02T13:53:11.999Z</time></trkpt><trkpt lat="40.85509393737146" lon="16.05298898076786"><ele>428.0</ele><time>2026-05-02T13:53:12.999Z</time></trkpt><trkpt lat="40.855171369543555" lon="16.05293932907664"><ele>427.99999999999994</ele><time>2026-05-02T13:53:13.999Z</time></trkpt><trkpt lat="40.8552448447711" lon="16.05288386284053"><ele>428.0</ele><time>2026-05-02T13:53:14.999Z</time></trkpt><trkpt lat="40.85532012244158" lon="16.052837586761513"><ele>428.0</ele><time>2026-05-02T13:53:15.999Z</time></trkpt><trkpt lat="40.85536774268963" lon="16.052759639669386"><ele>428.0</ele><time>2026-05-02T13:53:16.999Z</time></trkpt><trkpt lat="40.85538241036474" lon="16.052658761677414"><ele>427.99999999999994</ele><time>2026-05-02T13:53:17.999Z</time></trkpt><trkpt lat="40.85538721500433" lon="16.052561508992813"><ele>428.0</ele><time>2026-05-02T13:53:18.999Z</time></trkpt><trkpt lat="40.85536676751444" lon="16.0524519860559"><ele>427.2</ele><time>2026-05-02T13:53:19.999Z</time></trkpt><trkpt lat="40.855323298636705" lon="16.05233549942286"><ele>426.4</ele><time>2026-05-02T13:53:20.999Z</time></trkpt><trkpt lat="40.855271850122" lon="16.05220640237597"><ele>425.59999999999997</ele><time>2026-05-02T13:53:21.999Z</time></trkpt><trkpt lat="40.85522680133278" lon="16.052069840235205"><ele>424.79999999999995</ele><time>2026-05-02T13:53:22.999Z</time></trkpt><trkpt lat="40.85517071362565" lon="16.051939784145187"><ele>424.0</ele><time>2026-05-02T13:53:23.999Z</time></trkpt><trkpt lat="40.85512752561326" lon="16.05180791701746"><ele>422.0</ele><time>2026-05-02T13:53:24.999Z</time></trkpt><trkpt lat="40.85507782802124" lon="16.051684179502498"><ele>420.0</ele><time>2026-05-02T13:53:25.999Z</time></trkpt><trkpt lat="40.85500475713879" lon="16.05158486757358"><ele>418.0</ele><time>2026-05-02T13:53:26.999Z</time></trkpt><trkpt lat="40.85493731133891" lon="16.051477213838872"><ele>416.0</ele><time>2026-05-02T13:53:27.999Z</time></trkpt><trkpt lat="40.85488216253577" lon="16.051348488570476"><ele>414.0</ele><time>2026-05-02T13:53:28.999Z</time></trkpt><trkpt lat="40.8548170545009" lon="16.05123785947186"><ele>413.6666666666667</ele><time>2026-05-02T13:53:29.999Z</time></trkpt><trkpt lat="40.854757108456454" lon="16.05113111237298"><ele>413.33333333333337</ele><time>2026-05-02T13:53:30.999Z</time></trkpt><trkpt lat="40.85469968893901" lon="16.051037892397115"><ele>413.0</ele><time>2026-05-02T13:53:31.999Z</time></trkpt><trkpt lat="40.85468001477809" lon="16.050934838460226"><ele>412.6666666666667</ele><time>2026-05-02T13:53:32.999Z</time></trkpt><trkpt lat="40.85470245790706" lon="16.05083715324688"><ele>412.33333333333337</ele><time>2026-05-02T13:53:33.999Z</time></trkpt><trkpt lat="40.85473101289592" lon="16.05072731253829"><ele>412.0</ele><time>2026-05-02T13:53:34.999Z</time></trkpt><trkpt lat="40.85475877138099" lon="16.05057927330317"><ele>411.25</ele><time>2026-05-02T13:53:35.999Z</time></trkpt><trkpt lat="40.854825962398095" lon="16.050417493999"><ele>410.5</ele><time>2026-05-02T13:53:37Z</time></trkpt><trkpt lat="40.85490361727161" lon="16.050237367192693"><ele>409.75</ele><time>2026-05-02T13:53:38Z</time></trkpt><trkpt lat="40.85497960821905" lon="16.050092508289122"><ele>409.0</ele><time>2026-05-02T13:53:39Z</time></trkpt><trkpt lat="40.85506885458975" lon="16.04997628218082"><ele>409.2</ele><time>2026-05-02T13:53:40Z</time></trkpt><trkpt lat="40.85515695538745" lon="16.049886906123888"><ele>409.4</ele><time>2026-05-02T13:53:41Z</time></trkpt><trkpt lat="40.855247207666864" lon="16.049841822356015"><ele>409.6</ele><time>2026-05-02T13:53:42Z</time></trkpt><trkpt lat="40.85533355489213" lon="16.049787197382763"><ele>409.8</ele><time>2026-05-02T13:53:43Z</time></trkpt><trkpt lat="40.85541506915477" lon="16.049733573122527"><ele>410.0</ele><time>2026-05-02T13:53:44Z</time></trkpt><trkpt lat="40.85547125114858" lon="16.049689924364817"><ele>410.0</ele><time>2026-05-02T13:53:45Z</time></trkpt><trkpt lat="40.85537889841853" lon="16.049157914652877"><ele>410.0</ele><time>2026-05-02T13:53:46Z</time></trkpt><trkpt lat="40.85537869866367" lon="16.049036555982305"><ele>409.4</ele><time>2026-05-02T13:53:47Z</time></trkpt><trkpt lat="40.855360015786296" lon="16.04892066381654"><ele>408.8</ele><time>2026-05-02T13:53:48Z</time></trkpt><trkpt lat="40.85532576269406" lon="16.048829871408767"><ele>408.20000000000005</ele><time>2026-05-02T13:53:49Z</time></trkpt><trkpt lat="40.85528187579584" lon="16.048732938204004"><ele>407.6</ele><time>2026-05-02T13:53:50Z</time></trkpt><trkpt lat="40.855216992868186" lon="16.048632469552675"><ele>407.0</ele><time>2026-05-02T13:53:51Z</time></trkpt><trkpt lat="40.855143445422776" lon="16.048521843998518"><ele>407.0</ele><time>2026-05-02T13:53:52Z</time></trkpt><trkpt lat="40.85505431459222" lon="16.048406874268007"><ele>407.0</ele><time>2026-05-02T13:53:53Z</time></trkpt><trkpt lat="40.85496684398486" lon="16.04828915032122"><ele>407.0</ele><time>2026-05-02T13:53:54Z</time></trkpt><trkpt lat="40.85488304247609" lon="16.048163044124454"><ele>407.0</ele><time>2026-05-02T13:53:55Z</time></trkpt><trkpt lat="40.85479940184539" lon="16.048019204072272"><ele>407.0</ele><time>2026-05-02T13:53:56Z</time></trkpt><trkpt lat="40.85471830945121" lon="16.047882724672853"><ele>407.0</ele><time>2026-05-02T13:53:57Z</time></trkpt><trkpt lat="40.854640966237625" lon="16.04776251121126"><ele>407.0</ele><time>2026-05-02T13:53:58Z</time></trkpt><trkpt lat="40.85456366343828" lon="16.047642997607056"><ele>407.0</ele><time>2026-05-02T13:53:59Z</time></trkpt><trkpt lat="40.8544958623596" lon="16.047530552096475"><ele>407.20000000000005</ele><time>2026-05-02T13:54:00Z</time></trkpt><trkpt lat="40.85443025318052" lon="16.0474150437968"><ele>407.4</ele><time>2026-05-02T13:54:01Z</time></trkpt><trkpt lat="40.85436826466039" lon="16.047307712904352"><ele>407.6</ele><time>2026-05-02T13:54:02Z</time></trkpt><trkpt lat="40.85430744835359" lon="16.04722086726544"><ele>407.79999999999995</ele><time>2026-05-02T13:54:03Z</time></trkpt><trkpt lat="40.854246982223415" lon="16.047154574718245"><ele>408.0</ele><time>2026-05-02T13:54:04Z</time></trkpt><trkpt lat="40.85413825923207" lon="16.047089451360314"><ele>409.0</ele><time>2026-05-02T13:54:06Z</time></trkpt><trkpt lat="40.85399468848134" lon="16.047076059077174"><ele>410.0</ele><time>2026-05-02T13:54:08Z</time></trkpt><trkpt lat="40.85390188152232" lon="16.047090613262625"><ele>411.0</ele><time>2026-05-02T13:54:09Z</time></trkpt><trkpt lat="40.85380118568652" lon="16.047134306632806"><ele>412.0</ele><time>2026-05-02T13:54:10Z</time></trkpt><trkpt lat="40.85370348936567" lon="16.047196628085267"><ele>412.0</ele><time>2026-05-02T13:54:11Z</time></trkpt><trkpt lat="40.85360764768994" lon="16.047278992040283"><ele>412.0</ele><time>2026-05-02T13:54:12Z</time></trkpt><trkpt lat="40.853512207651754" lon="16.047361741161083"><ele>412.0</ele><time>2026-05-02T13:54:12.999Z</time></trkpt><trkpt lat="40.85340818882983" lon="16.047445695939945"><ele>412.0</ele><time>2026-05-02T13:54:13.999Z</time></trkpt><trkpt lat="40.853297929989274" lon="16.04753521732031"><ele>412.00000000000006</ele><time>2026-05-02T13:54:14.999Z</time></trkpt><trkpt lat="40.85319281155637" lon="16.04760316658129"><ele>412.0</ele><time>2026-05-02T13:54:15.999Z</time></trkpt><trkpt lat="40.85309892482015" lon="16.047649386382055"><ele>412.0</ele><time>2026-05-02T13:54:16.999Z</time></trkpt><trkpt lat="40.85302670078008" lon="16.047682686255932"><ele>412.0</ele><time>2026-05-02T13:54:17.999Z</time></trkpt><trkpt lat="40.85296248922457" lon="16.04772803055141"><ele>412.00000000000006</ele><time>2026-05-02T13:54:18.999Z</time></trkpt><trkpt lat="40.85291487177546" lon="16.047789644817346"><ele>412.0</ele><time>2026-05-02T13:54:19.999Z</time></trkpt><trkpt lat="40.85283829871819" lon="16.047920424361248"><ele>412.0</ele><time>2026-05-02T13:54:21.999Z</time></trkpt><trkpt lat="40.85276881588311" lon="16.04805553340177"><ele>412.0</ele><time>2026-05-02T13:54:23.999Z</time></trkpt><trkpt lat="40.85269642175839" lon="16.048194851706338"><ele>412.0</ele><time>2026-05-02T13:54:25.999Z</time></trkpt><trkpt lat="40.85260888870644" lon="16.048319855453272"><ele>412.0</ele><time>2026-05-02T13:54:27.999Z</time></trkpt><trkpt lat="40.85254426271092" lon="16.048378992809845"><ele>411.1666666666667</ele><time>2026-05-02T13:54:28.999Z</time></trkpt><trkpt lat="40.85246775588523" lon="16.04846011663425"><ele>410.33333333333337</ele><time>2026-05-02T13:54:29.999Z</time></trkpt><trkpt lat="40.852415955373345" lon="16.048526589160065"><ele>409.5</ele><time>2026-05-02T13:54:30.999Z</time></trkpt><trkpt lat="40.85235631918144" lon="16.048630432199957"><ele>408.66666666666663</ele><time>2026-05-02T13:54:32.999Z</time></trkpt><trkpt lat="40.852316068749964" lon="16.048718821374027"><ele>407.8333333333333</ele><time>2026-05-02T13:54:34.999Z</time></trkpt><trkpt lat="40.85225561617619" lon="16.048792556618075"><ele>407.0</ele><time>2026-05-02T13:54:36.999Z</time></trkpt><trkpt lat="40.85222018954785" lon="16.048861949651204"><ele>407.0</ele><time>2026-05-02T13:54:38.999Z</time></trkpt><trkpt lat="40.85219158194199" lon="16.048953079396124"><ele>407.0</ele><time>2026-05-02T13:54:42.999Z</time></trkpt><trkpt lat="40.852226373999656" lon="16.0488378964001"><ele>407.0</ele><time>2026-05-02T13:54:53.999Z</time></trkpt><trkpt lat="40.85232967843669" lon="16.048701015071245"><ele>407.0</ele><time>2026-05-02T13:54:55.999Z</time></trkpt><trkpt lat="40.85237873836132" lon="16.04861343381013"><ele>407.0</ele><time>2026-05-02T13:54:56.999Z</time></trkpt><trkpt lat="40.85243031093755" lon="16.04851949518018"><ele>406.99999999999994</ele><time>2026-05-02T13:54:57.999Z</time></trkpt><trkpt lat="40.85249814778101" lon="16.048419708284637"><ele>407.0</ele><time>2026-05-02T13:54:58.999Z</time></trkpt><trkpt lat="40.852580254690935" lon="16.048324805958146"><ele>407.0</ele><time>2026-05-02T13:54:59.999Z</time></trkpt><trkpt lat="40.85264979373147" lon="16.048256530818982"><ele>407.0</ele><time>2026-05-02T13:55:00.999Z</time></trkpt><trkpt lat="40.852700027678026" lon="16.048203169957464"><ele>406.99999999999994</ele><time>2026-05-02T13:55:01.999Z</time></trkpt><trkpt lat="40.85273680189215" lon="16.04813025330652"><ele>407.0</ele><time>2026-05-02T13:55:03.999Z</time></trkpt><trkpt lat="40.852718147359205" lon="16.04804951928854"><ele>407.0</ele><time>2026-05-02T13:55:09.999Z</time></trkpt><trkpt lat="40.852650632131926" lon="16.048084403458308"><ele>407.0</ele><time>2026-05-02T13:55:12.999Z</time></trkpt><trkpt lat="40.85262106232399" lon="16.04817633870444"><ele>407.0</ele><time>2026-05-02T13:55:13.999Z</time></trkpt><trkpt lat="40.85256985409412" lon="16.04824048093801"><ele>407.0</ele><time>2026-05-02T13:55:14.999Z</time></trkpt><trkpt lat="40.852460042335785" lon="16.04830633435027"><ele>407.0</ele><time>2026-05-02T13:55:16.999Z</time></trkpt><trkpt lat="40.85236011433874" lon="16.04838124528104"><ele>406.99999999999994</ele><time>2026-05-02T13:55:17.999Z</time></trkpt><trkpt lat="40.852274254168336" lon="16.048453408646957"><ele>407.0</ele><time>2026-05-02T13:55:18.999Z</time></trkpt><trkpt lat="40.85218586355009" lon="16.04851609025072"><ele>407.0</ele><time>2026-05-02T13:55:19.999Z</time></trkpt><trkpt lat="40.85211924316429" lon="16.04856628612186"><ele>407.0</ele><time>2026-05-02T13:55:20.999Z</time></trkpt><trkpt lat="40.85205464946154" lon="16.04861973081081"><ele>406.99999999999994</ele><time>2026-05-02T13:55:21.999Z</time></trkpt><trkpt lat="40.85200692087235" lon="16.048682046895095"><ele>407.0</ele><time>2026-05-02T13:55:22.999Z</time></trkpt><trkpt lat="40.85195127864027" lon="16.048756662607243"><ele>406.99999999999994</ele><time>2026-05-02T13:55:23.999Z</time></trkpt><trkpt lat="40.85190706015908" lon="16.04882067443263"><ele>407.0</ele><time>2026-05-02T13:55:24.999Z</time></trkpt><trkpt lat="40.851827109138576" lon="16.04890505586175"><ele>407.0</ele><time>2026-05-02T13:55:26.999Z</time></trkpt><trkpt lat="40.85175910843023" lon="16.048937224005154"><ele>407.0</ele><time>2026-05-02T13:55:27.999Z</time></trkpt><trkpt lat="40.85167627363701" lon="16.04899991280868"><ele>406.99999999999994</ele><time>2026-05-02T13:55:29.999Z</time></trkpt><trkpt lat="40.851614721746685" lon="16.049079411662365"><ele>407.0</ele><time>2026-05-02T13:55:30.999Z</time></trkpt><trkpt lat="40.85154461126644" lon="16.0491623776108"><ele>408.3333333333333</ele><time>2026-05-02T13:55:31.999Z</time></trkpt><trkpt lat="40.851482638924246" lon="16.04920869660759"><ele>409.66666666666663</ele><time>2026-05-02T13:55:32.999Z</time></trkpt><trkpt lat="40.85139983692018" lon="16.04925976288347"><ele>411.0</ele><time>2026-05-02T13:55:33.999Z</time></trkpt><trkpt lat="40.851324057689204" lon="16.0492957512444"><ele>412.33333333333337</ele><time>2026-05-02T13:55:34.999Z</time></trkpt><trkpt lat="40.8512510736237" lon="16.049321609274887"><ele>413.6666666666667</ele><time>2026-05-02T13:55:35.999Z</time></trkpt><trkpt lat="40.85118439180388" lon="16.049346692161297"><ele>415.0</ele><time>2026-05-02T13:55:36.998Z</time></trkpt><trkpt lat="40.851077673764244" lon="16.049385789547593"><ele>415.00000000000006</ele><time>2026-05-02T13:55:38.998Z</time></trkpt><trkpt lat="40.85100881847399" lon="16.049405235796314"><ele>415.0</ele><time>2026-05-02T13:55:40.998Z</time></trkpt><trkpt lat="40.850937688838926" lon="16.049378846363112"><ele>415.0</ele><time>2026-05-02T13:55:43Z</time></trkpt><trkpt lat="40.85087908696009" lon="16.04933830964007"><ele>415.0</ele><time>2026-05-02T13:55:45Z</time></trkpt><trkpt lat="40.850788931416666" lon="16.049217783532296"><ele>415.00000000000006</ele><time>2026-05-02T13:55:48Z</time></trkpt><trkpt lat="40.85074334244259" lon="16.04914911994884"><ele>415.0</ele><time>2026-05-02T13:55:50Z</time></trkpt><trkpt lat="40.85071377408737" lon="16.0490270589309"><ele>416.33333333333337</ele><time>2026-05-02T13:55:52Z</time></trkpt><trkpt lat="40.85068089872991" lon="16.048874806421253"><ele>417.6666666666667</ele><time>2026-05-02T13:55:54Z</time></trkpt><trkpt lat="40.85066273444634" lon="16.04878641096178"><ele>419.0</ele><time>2026-05-02T13:55:55Z</time></trkpt><trkpt lat="40.85065303567453" lon="16.048687387211306"><ele>420.33333333333337</ele><time>2026-05-02T13:55:56Z</time></trkpt><trkpt lat="40.8506431579424" lon="16.048590219713073"><ele>421.6666666666667</ele><time>2026-05-02T13:55:57Z</time></trkpt><trkpt lat="40.85063109621536" lon="16.048469820037354"><ele>423.0</ele><time>2026-05-02T13:55:58Z</time></trkpt><trkpt lat="40.85062740967995" lon="16.04837369731514"><ele>423.0</ele><time>2026-05-02T13:55:59Z</time></trkpt><trkpt lat="40.85063772549061" lon="16.048291152003628"><ele>423.0</ele><time>2026-05-02T13:56:02Z</time></trkpt><trkpt lat="40.850720571876394" lon="16.048304408951257"><ele>423.0</ele><time>2026-05-02T13:56:15.999Z</time></trkpt><trkpt lat="40.85081549573362" lon="16.048296141653715"><ele>423.0</ele><time>2026-05-02T13:56:17.999Z</time></trkpt><trkpt lat="40.85090271024722" lon="16.048270677570624"><ele>423.0</ele><time>2026-05-02T13:56:19.999Z</time></trkpt><trkpt lat="40.85098391073669" lon="16.048229004146247"><ele>423.0</ele><time>2026-05-02T13:56:21.999Z</time></trkpt><trkpt lat="40.85107278388496" lon="16.04814662765484"><ele>423.2</ele><time>2026-05-02T13:56:23.999Z</time></trkpt><trkpt lat="40.85112250234202" lon="16.048080769786523"><ele>423.4</ele><time>2026-05-02T13:56:24.999Z</time></trkpt><trkpt lat="40.85121791329598" lon="16.047986994851463"><ele>423.59999999999997</ele><time>2026-05-02T13:56:26.999Z</time></trkpt><trkpt lat="40.851306967379784" lon="16.04793477813687"><ele>423.79999999999995</ele><time>2026-05-02T13:56:28.999Z</time></trkpt><trkpt lat="40.851364992755904" lon="16.04786368655832"><ele>424.0</ele><time>2026-05-02T13:56:30.999Z</time></trkpt><trkpt lat="40.851377975164155" lon="16.047744908159952"><ele>424.00000000000006</ele><time>2026-05-02T13:56:32.999Z</time></trkpt><trkpt lat="40.851364172380485" lon="16.04759514076405"><ele>424.0</ele><time>2026-05-02T13:56:34.999Z</time></trkpt><trkpt lat="40.85134837019208" lon="16.047513668567433"><ele>424.0</ele><time>2026-05-02T13:56:35.999Z</time></trkpt><trkpt lat="40.85132635273289" lon="16.047404276301545"><ele>424.0</ele><time>2026-05-02T13:56:36.999Z</time></trkpt><trkpt lat="40.85130208438101" lon="16.047296640675732"><ele>424.00000000000006</ele><time>2026-05-02T13:56:37.999Z</time></trkpt><trkpt lat="40.851264171974" lon="16.047179323055435"><ele>424.0</ele><time>2026-05-02T13:56:38.999Z</time></trkpt><trkpt lat="40.85122563081554" lon="16.047076906145996"><ele>426.25</ele><time>2026-05-02T13:56:39.999Z</time></trkpt><trkpt lat="40.85119150325696" lon="16.04695049619567"><ele>428.5</ele><time>2026-05-02T13:56:40.999Z</time></trkpt><trkpt lat="40.85115080531379" lon="16.0468264196628"><ele>430.75</ele><time>2026-05-02T13:56:41.999Z</time></trkpt><trkpt lat="40.851107460980096" lon="16.046671716061866"><ele>433.0</ele><time>2026-05-02T13:56:42.999Z</time></trkpt><trkpt lat="40.85106198023566" lon="16.046510296454787"><ele>435.5</ele><time>2026-05-02T13:56:43.999Z</time></trkpt><trkpt lat="40.851013142960724" lon="16.046339997440704"><ele>438.0</ele><time>2026-05-02T13:56:44.999Z</time></trkpt><trkpt lat="40.85096820129158" lon="16.04621707780485"><ele>440.5</ele><time>2026-05-02T13:56:45.999Z</time></trkpt><trkpt lat="40.85097349825996" lon="16.04603850660589"><ele>443.0</ele><time>2026-05-02T13:56:47.999Z</time></trkpt><trkpt lat="40.85090037943896" lon="16.046017930440154"><ele>444.0</ele><time>2026-05-02T13:56:53.999Z</time></trkpt><trkpt lat="40.8507928738196" lon="16.04603001951843"><ele>444.99999999999994</ele><time>2026-05-02T13:56:55.999Z</time></trkpt><trkpt lat="40.850709294755546" lon="16.046021836904448"><ele>445.99999999999994</ele><time>2026-05-02T13:56:57.999Z</time></trkpt><trkpt lat="40.85068044873527" lon="16.04593867580521"><ele>447.0</ele><time>2026-05-02T13:56:58.999Z</time></trkpt><trkpt lat="40.85056544021352" lon="16.046078758597357"><ele>448.0</ele><time>2026-05-02T13:56:59.999Z</time></trkpt><trkpt lat="40.85045575643304" lon="16.046015639263985"><ele>448.0</ele><time>2026-05-02T13:57:00.999Z</time></trkpt><trkpt lat="40.85032593660386" lon="16.045964790307348"><ele>447.99999999999994</ele><time>2026-05-02T13:57:01.999Z</time></trkpt><trkpt lat="40.8502279538587" lon="16.045921236233628"><ele>447.99999999999994</ele><time>2026-05-02T13:57:02.999Z</time></trkpt><trkpt lat="40.85015503399179" lon="16.045896524188585"><ele>448.0</ele><time>2026-05-02T13:57:03.999Z</time></trkpt><trkpt lat="40.85007767244775" lon="16.045867277641857"><ele>448.0</ele><time>2026-05-02T13:57:04.999Z</time></trkpt><trkpt lat="40.85001855003078" lon="16.045825884421834"><ele>449.59999999999997</ele><time>2026-05-02T13:57:05.999Z</time></trkpt><trkpt lat="40.84993928189104" lon="16.0456799128593"><ele>451.19999999999993</ele><time>2026-05-02T13:57:07.999Z</time></trkpt><trkpt lat="40.84989561669871" lon="16.045580129596758"><ele>452.8</ele><time>2026-05-02T13:57:08.999Z</time></trkpt><trkpt lat="40.84986459690979" lon="16.045502819846707"><ele>454.4</ele><time>2026-05-02T13:57:09.999Z</time></trkpt><trkpt lat="40.84981641927696" lon="16.045410736002488"><ele>456.0</ele><time>2026-05-02T13:57:10.999Z</time></trkpt><trkpt lat="40.84975701575153" lon="16.045287486213667"><ele>456.0</ele><time>2026-05-02T13:57:11.999Z</time></trkpt><trkpt lat="40.8497001275804" lon="16.04516166701573"><ele>456.0</ele><time>2026-05-02T13:57:12.999Z</time></trkpt><trkpt lat="40.849625539180884" lon="16.045074102582035"><ele>456.0</ele><time>2026-05-02T13:57:13.999Z</time></trkpt><trkpt lat="40.84953796769176" lon="16.04500607861431"><ele>456.0</ele><time>2026-05-02T13:57:14.999Z</time></trkpt><trkpt lat="40.84945073070848" lon="16.044928712971675"><ele>456.0</ele><time>2026-05-02T13:57:15.999Z</time></trkpt><trkpt lat="40.84935953431656" lon="16.044861344514228"><ele>455.6</ele><time>2026-05-02T13:57:16.999Z</time></trkpt><trkpt lat="40.84926726699686" lon="16.04481354258542"><ele>455.20000000000005</ele><time>2026-05-02T13:57:17.999Z</time></trkpt><trkpt lat="40.849182474514286" lon="16.04475243949977"><ele>454.79999999999995</ele><time>2026-05-02T13:57:18.999Z</time></trkpt><trkpt lat="40.849091283122895" lon="16.04469951228159"><ele>454.4</ele><time>2026-05-02T13:57:19.999Z</time></trkpt><trkpt lat="40.84899573324346" lon="16.044659854323754"><ele>454.0</ele><time>2026-05-02T13:57:20.999Z</time></trkpt><trkpt lat="40.84889615268125" lon="16.044666468210895"><ele>454.0</ele><time>2026-05-02T13:57:21.999Z</time></trkpt><trkpt lat="40.84879649743544" lon="16.04472187308406"><ele>454.0</ele><time>2026-05-02T13:57:22.999Z</time></trkpt><trkpt lat="40.848703893217746" lon="16.044800259131136"><ele>454.0</ele><time>2026-05-02T13:57:23.999Z</time></trkpt><trkpt lat="40.84862596180146" lon="16.044908159476353"><ele>454.0</ele><time>2026-05-02T13:57:24.999Z</time></trkpt><trkpt lat="40.84852770237454" lon="16.044993909087374"><ele>454.0</ele><time>2026-05-02T13:57:25.999Z</time></trkpt><trkpt lat="40.848449172027394" lon="16.045124158228944"><ele>453.25</ele><time>2026-05-02T13:57:26.999Z</time></trkpt><trkpt lat="40.84835327135528" lon="16.045207371021068"><ele>452.5</ele><time>2026-05-02T13:57:27.999Z</time></trkpt><trkpt lat="40.84824252767113" lon="16.04525204522289"><ele>451.75</ele><time>2026-05-02T13:57:28.999Z</time></trkpt><trkpt lat="40.84813899885111" lon="16.045340715226175"><ele>451.0</ele><time>2026-05-02T13:57:29.999Z</time></trkpt><trkpt lat="40.84803230272017" lon="16.045411829852334"><ele>451.0</ele><time>2026-05-02T13:57:30.999Z</time></trkpt><trkpt lat="40.847946322808504" lon="16.0455129889838"><ele>451.0</ele><time>2026-05-02T13:57:31.999Z</time></trkpt><trkpt lat="40.847862510150215" lon="16.045635410680326"><ele>451.0</ele><time>2026-05-02T13:57:32.999Z</time></trkpt><trkpt lat="40.84776391682349" lon="16.045762503919537"><ele>451.0</ele><time>2026-05-02T13:57:33.999Z</time></trkpt><trkpt lat="40.847683753226214" lon="16.04591889152916"><ele>454.0</ele><time>2026-05-02T13:57:34.999Z</time></trkpt><trkpt lat="40.84760773932933" lon="16.04607029240883"><ele>457.0</ele><time>2026-05-02T13:57:35.999Z</time></trkpt><trkpt lat="40.8475583807757" lon="16.046243938786663"><ele>460.0</ele><time>2026-05-02T13:57:36.999Z</time></trkpt><trkpt lat="40.84752758120383" lon="16.046425047879385"><ele>463.0</ele><time>2026-05-02T13:57:37.999Z</time></trkpt><trkpt lat="40.84749632499569" lon="16.04659052847718"><ele>463.2</ele><time>2026-05-02T13:57:38.999Z</time></trkpt><trkpt lat="40.84746735312051" lon="16.046735006024665"><ele>463.4</ele><time>2026-05-02T13:57:39.999Z</time></trkpt><trkpt lat="40.84744814894049" lon="16.046876629676355"><ele>463.59999999999997</ele><time>2026-05-02T13:57:40.999Z</time></trkpt><trkpt lat="40.84743973398703" lon="16.047024730337153"><ele>463.79999999999995</ele><time>2026-05-02T13:57:41.999Z</time></trkpt><trkpt lat="40.84742734520555" lon="16.047160898385982"><ele>464.0</ele><time>2026-05-02T13:57:42.998Z</time></trkpt><trkpt lat="40.84741096567047" lon="16.047281182551092"><ele>464.0</ele><time>2026-05-02T13:57:43.998Z</time></trkpt><trkpt lat="40.84740201648579" lon="16.04741058291824"><ele>464.0</ele><time>2026-05-02T13:57:44.998Z</time></trkpt><trkpt lat="40.8473808185839" lon="16.047536874720443"><ele>464.0</ele><time>2026-05-02T13:57:45.998Z</time></trkpt><trkpt lat="40.84734234933885" lon="16.047649395265353"><ele>464.0</ele><time>2026-05-02T13:57:46.998Z</time></trkpt><trkpt lat="40.84728212813459" lon="16.04775855266934"><ele>464.0</ele><time>2026-05-02T13:57:48Z</time></trkpt><trkpt lat="40.847195733009265" lon="16.047844815397237"><ele>464.0</ele><time>2026-05-02T13:57:49Z</time></trkpt><trkpt lat="40.84708665211952" lon="16.047880508018242"><ele>464.0</ele><time>2026-05-02T13:57:50Z</time></trkpt><trkpt lat="40.84697753515905" lon="16.047909931520337"><ele>464.0</ele><time>2026-05-02T13:57:51Z</time></trkpt><trkpt lat="40.846861525307055" lon="16.047882025546258"><ele>464.0</ele><time>2026-05-02T13:57:52Z</time></trkpt><trkpt lat="40.84675438662072" lon="16.04785193309861"><ele>465.79999999999995</ele><time>2026-05-02T13:57:53Z</time></trkpt><trkpt lat="40.846655495668166" lon="16.047834082573075"><ele>467.59999999999997</ele><time>2026-05-02T13:57:54Z</time></trkpt><trkpt lat="40.84656208024743" lon="16.04782530024402"><ele>469.4</ele><time>2026-05-02T13:57:55Z</time></trkpt><trkpt lat="40.84646636630362" lon="16.04783147091738"><ele>471.2</ele><time>2026-05-02T13:57:56Z</time></trkpt><trkpt lat="40.846360990329806" lon="16.04786333199965"><ele>473.0</ele><time>2026-05-02T13:57:57Z</time></trkpt><trkpt lat="40.84625241083958" lon="16.04790920102691"><ele>473.0</ele><time>2026-05-02T13:57:58Z</time></trkpt><trkpt lat="40.846144912711786" lon="16.047961320964074"><ele>472.99999999999994</ele><time>2026-05-02T13:57:59Z</time></trkpt><trkpt lat="40.846043307489445" lon="16.048010180102462"><ele>472.99999999999994</ele><time>2026-05-02T13:58:00Z</time></trkpt><trkpt lat="40.84595723633036" lon="16.048066403445368"><ele>473.0</ele><time>2026-05-02T13:58:01Z</time></trkpt><trkpt lat="40.84585587716196" lon="16.04812874914989"><ele>473.0</ele><time>2026-05-02T13:58:02Z</time></trkpt><trkpt lat="40.84576870580333" lon="16.04816068183196"><ele>474.66666666666663</ele><time>2026-05-02T13:58:03Z</time></trkpt><trkpt lat="40.84570021236651" lon="16.048171270446495"><ele>476.3333333333333</ele><time>2026-05-02T13:58:04Z</time></trkpt><trkpt lat="40.8456283475997" lon="16.048177648567265"><ele>478.0</ele><time>2026-05-02T13:58:05Z</time></trkpt><trkpt lat="40.84554707607758" lon="16.04817013507641"><ele>479.66666666666663</ele><time>2026-05-02T13:58:06Z</time></trkpt><trkpt lat="40.84546557482325" lon="16.048152640167757"><ele>481.3333333333333</ele><time>2026-05-02T13:58:07Z</time></trkpt><trkpt lat="40.845390809879994" lon="16.048135922952522"><ele>483.0</ele><time>2026-05-02T13:58:08Z</time></trkpt><trkpt lat="40.84530666613768" lon="16.048081661495907"><ele>483.0</ele><time>2026-05-02T13:58:10Z</time></trkpt><trkpt lat="40.845246013338986" lon="16.04804195772038"><ele>483.0</ele><time>2026-05-02T13:58:12Z</time></trkpt><trkpt lat="40.84517944470371" lon="16.047983213339926"><ele>483.0</ele><time>2026-05-02T13:58:14Z</time></trkpt><trkpt lat="40.84509250960904" lon="16.047893941543357"><ele>483.0</ele><time>2026-05-02T13:58:16Z</time></trkpt><trkpt lat="40.84503822214068" lon="16.047828352956756"><ele>483.0</ele><time>2026-05-02T13:58:17Z</time></trkpt><trkpt lat="40.84499084409695" lon="16.047739239300178"><ele>483.0</ele><time>2026-05-02T13:58:18Z</time></trkpt><trkpt lat="40.84493225833986" lon="16.04761656482347"><ele>484.0</ele><time>2026-05-02T13:58:18.999Z</time></trkpt><trkpt lat="40.844870461910055" lon="16.04748765878889"><ele>485.0</ele><time>2026-05-02T13:58:19.999Z</time></trkpt><trkpt lat="40.84481196608088" lon="16.047339542321243"><ele>486.0</ele><time>2026-05-02T13:58:20.999Z</time></trkpt><trkpt lat="40.8447568217554" lon="16.047186371843555"><ele>487.0</ele><time>2026-05-02T13:58:21.999Z</time></trkpt><trkpt lat="40.844701655745446" lon="16.047057584214407"><ele>488.6</ele><time>2026-05-02T13:58:22.999Z</time></trkpt><trkpt lat="40.84465325440659" lon="16.046944835655943"><ele>490.20000000000005</ele><time>2026-05-02T13:58:23.999Z</time></trkpt><trkpt lat="40.844612937554146" lon="16.046830056154395"><ele>491.8</ele><time>2026-05-02T13:58:24.999Z</time></trkpt><trkpt lat="40.8445623898078" lon="16.046712699626326"><ele>493.4</ele><time>2026-05-02T13:58:25.999Z</time></trkpt><trkpt lat="40.84450912048544" lon="16.046594194689803"><ele>495.0</ele><time>2026-05-02T13:58:26.999Z</time></trkpt><trkpt lat="40.84446029896036" lon="16.04647225525569"><ele>496.2</ele><time>2026-05-02T13:58:27.999Z</time></trkpt><trkpt lat="40.844392267709246" lon="16.046363407140188"><ele>497.4</ele><time>2026-05-02T13:58:28.999Z</time></trkpt><trkpt lat="40.84430846361076" lon="16.046265839324647"><ele>498.6</ele><time>2026-05-02T13:58:29.999Z</time></trkpt><trkpt lat="40.8442160733772" lon="16.04617906139624"><ele>499.8</ele><time>2026-05-02T13:58:30.999Z</time></trkpt><trkpt lat="40.84411389783232" lon="16.046109612374273"><ele>501.0</ele><time>2026-05-02T13:58:31.999Z</time></trkpt><trkpt lat="40.84400779976589" lon="16.046051300711408"><ele>501.0</ele><time>2026-05-02T13:58:32.999Z</time></trkpt><trkpt lat="40.84390851020565" lon="16.045995118733373"><ele>501.0</ele><time>2026-05-02T13:58:33.999Z</time></trkpt><trkpt lat="40.84383451102137" lon="16.04595542709018"><ele>501.0</ele><time>2026-05-02T13:58:34.999Z</time></trkpt><trkpt lat="40.84377184462987" lon="16.04591729769099"><ele>501.0</ele><time>2026-05-02T13:58:35.999Z</time></trkpt><trkpt lat="40.843699808707875" lon="16.04585222858519"><ele>501.0</ele><time>2026-05-02T13:58:37.999Z</time></trkpt><trkpt lat="40.843638077645316" lon="16.045796903098495"><ele>501.0</ele><time>2026-05-02T13:58:40.999Z</time></trkpt><trkpt lat="40.8435945553066" lon="16.04573659398632"><ele>500.4</ele><time>2026-05-02T13:58:54.999Z</time></trkpt><trkpt lat="40.843434320339874" lon="16.045829927580673"><ele>499.8</ele><time>2026-05-02T13:59:55Z</time></trkpt><trkpt lat="40.843352718681146" lon="16.045849232123093"><ele>499.19999999999993</ele><time>2026-05-02T13:59:59Z</time></trkpt><trkpt lat="40.84327169495206" lon="16.04586325430865"><ele>498.59999999999997</ele><time>2026-05-02T14:00:03Z</time></trkpt><trkpt lat="40.84320814023122" lon="16.045879319009142"><ele>498.0</ele><time>2026-05-02T14:00:06Z</time></trkpt><trkpt lat="40.84312927592086" lon="16.045876604514916"><ele>498.0</ele><time>2026-05-02T14:00:09Z</time></trkpt><trkpt lat="40.84304642545902" lon="16.045832866843543"><ele>498.0</ele><time>2026-05-02T14:00:12Z</time></trkpt><trkpt lat="40.84297835331369" lon="16.045806237499395"><ele>498.0</ele><time>2026-05-02T14:00:14Z</time></trkpt><trkpt lat="40.842914774655114" lon="16.045784017196052"><ele>498.0</ele><time>2026-05-02T14:00:16Z</time></trkpt><trkpt lat="40.84282635168354" lon="16.04575123198838"><ele>498.0</ele><time>2026-05-02T14:00:19Z</time></trkpt><trkpt lat="40.84276106190037" lon="16.04576073294827"><ele>498.0</ele><time>2026-05-02T14:00:22Z</time></trkpt><trkpt lat="40.84269199373494" lon="16.045737052184673"><ele>499.1666666666667</ele><time>2026-05-02T14:00:40Z</time></trkpt><trkpt lat="40.84262435789152" lon="16.045691069105363"><ele>500.33333333333337</ele><time>2026-05-02T14:01:08.999Z</time></trkpt><trkpt lat="40.84255021909792" lon="16.04566489504331"><ele>501.5</ele><time>2026-05-02T14:01:13.999Z</time></trkpt><trkpt lat="40.84247489546469" lon="16.04562711432431"><ele>502.6666666666667</ele><time>2026-05-02T14:01:15.999Z</time></trkpt><trkpt lat="40.842395270366445" lon="16.04560834660022"><ele>503.83333333333337</ele><time>2026-05-02T14:02:04Z</time></trkpt><trkpt lat="40.84232069498546" lon="16.045584470421222"><ele>505.0</ele><time>2026-05-02T14:02:06Z</time></trkpt><trkpt lat="40.8422359397365" lon="16.045582374902875"><ele>505.0</ele><time>2026-05-02T14:02:08Z</time></trkpt><trkpt lat="40.842148875199356" lon="16.045538301260017"><ele>505.0</ele><time>2026-05-02T14:02:10Z</time></trkpt><trkpt lat="40.842066280587" lon="16.045465096647327"><ele>505.0</ele><time>2026-05-02T14:02:12Z</time></trkpt><trkpt lat="40.84197542725883" lon="16.045434293207567"><ele>505.0</ele><time>2026-05-02T14:02:14Z</time></trkpt><trkpt lat="40.841888018279164" lon="16.045392997274572"><ele>505.0</ele><time>2026-05-02T14:02:16Z</time></trkpt><trkpt lat="40.84181417280264" lon="16.0453608439904"><ele>507.2</ele><time>2026-05-02T14:02:18Z</time></trkpt><trkpt lat="40.841753698569875" lon="16.045300982492613"><ele>509.4</ele><time>2026-05-02T14:02:22Z</time></trkpt><trkpt lat="40.84168670768132" lon="16.045259302456095"><ele>511.6</ele><time>2026-05-02T14:02:24Z</time></trkpt><trkpt lat="40.84160593402905" lon="16.045177056051703"><ele>513.8</ele><time>2026-05-02T14:02:26Z</time></trkpt><trkpt lat="40.84152111020894" lon="16.045146637458032"><ele>516.0</ele><time>2026-05-02T14:02:28Z</time></trkpt><trkpt lat="40.84138002967518" lon="16.045094437811677"><ele>516.0</ele><time>2026-05-02T14:02:30Z</time></trkpt><trkpt lat="40.841298778234105" lon="16.04507352660709"><ele>516.0</ele><time>2026-05-02T14:02:31Z</time></trkpt><trkpt lat="40.84119790791232" lon="16.045051102028552"><ele>516.0</ele><time>2026-05-02T14:02:33Z</time></trkpt><trkpt lat="40.84111279715614" lon="16.045034237040788"><ele>516.0</ele><time>2026-05-02T14:02:35Z</time></trkpt><trkpt lat="40.84102899802105" lon="16.04505020685239"><ele>516.0</ele><time>2026-05-02T14:02:37Z</time></trkpt><trkpt lat="40.84095561945536" lon="16.04510308864479"><ele>516.0</ele><time>2026-05-02T14:02:39Z</time></trkpt><trkpt lat="40.84085159362365" lon="16.045182201619845"><ele>516.5</ele><time>2026-05-02T14:02:41Z</time></trkpt><trkpt lat="40.84079070377724" lon="16.045261751776135"><ele>517.0</ele><time>2026-05-02T14:02:43Z</time></trkpt><trkpt lat="40.840724882357414" lon="16.045330538943805"><ele>517.5</ele><time>2026-05-02T14:02:46Z</time></trkpt><trkpt lat="40.840487823929" lon="16.0451372665261"><ele>518.0</ele><time>2026-05-02T14:02:48Z</time></trkpt><trkpt lat="40.84042339722998" lon="16.045098870308134"><ele>518.0</ele><time>2026-05-02T14:02:49Z</time></trkpt><trkpt lat="40.840311841319206" lon="16.045115185571227"><ele>518.0</ele><time>2026-05-02T14:02:51Z</time></trkpt><trkpt lat="40.840241656524036" lon="16.045156619685162"><ele>518.0</ele><time>2026-05-02T14:02:52Z</time></trkpt><trkpt lat="40.84017267487107" lon="16.045212931005043"><ele>518.0</ele><time>2026-05-02T14:02:52.999Z</time></trkpt><trkpt lat="40.840112711210715" lon="16.045266412482306"><ele>518.0</ele><time>2026-05-02T14:02:53.999Z</time></trkpt><trkpt lat="40.840047128176515" lon="16.045330027061805"><ele>518.0</ele><time>2026-05-02T14:02:54.999Z</time></trkpt><trkpt lat="40.83991596622491" lon="16.04539883106171"><ele>520.4</ele><time>2026-05-02T14:02:56.999Z</time></trkpt><trkpt lat="40.839848771786436" lon="16.045452236478575"><ele>522.8</ele><time>2026-05-02T14:02:57.999Z</time></trkpt><trkpt lat="40.83976843493787" lon="16.045527114644717"><ele>525.2</ele><time>2026-05-02T14:02:58.999Z</time></trkpt><trkpt lat="40.839691395113825" lon="16.04560842542241"><ele>527.6</ele><time>2026-05-02T14:02:59.999Z</time></trkpt><trkpt lat="40.83961487624482" lon="16.045692940166944"><ele>530.0</ele><time>2026-05-02T14:03:00.999Z</time></trkpt><trkpt lat="40.83952900865465" lon="16.045775632295506"><ele>530.6</ele><time>2026-05-02T14:03:01.999Z</time></trkpt><trkpt lat="40.83944092215186" lon="16.045854637819726"><ele>531.2</ele><time>2026-05-02T14:03:02.999Z</time></trkpt><trkpt lat="40.83936343147891" lon="16.04591678127499"><ele>531.8</ele><time>2026-05-02T14:03:03.999Z</time></trkpt><trkpt lat="40.8392854930954" lon="16.045964373288392"><ele>532.4</ele><time>2026-05-02T14:03:04.999Z</time></trkpt><trkpt lat="40.839192063538455" lon="16.046009133604223"><ele>533.0</ele><time>2026-05-02T14:03:05.999Z</time></trkpt><trkpt lat="40.839126881603725" lon="16.04605238299916"><ele>533.0</ele><time>2026-05-02T14:03:06.999Z</time></trkpt><trkpt lat="40.83899249426881" lon="16.046087078322724"><ele>533.0</ele><time>2026-05-02T14:03:08.999Z</time></trkpt><trkpt lat="40.83890211772435" lon="16.046076385094675"><ele>533.0</ele><time>2026-05-02T14:03:09.999Z</time></trkpt><trkpt lat="40.838808905102184" lon="16.04606293617673"><ele>533.0</ele><time>2026-05-02T14:03:10.999Z</time></trkpt><trkpt lat="40.83873244531055" lon="16.046043018762468"><ele>533.0</ele><time>2026-05-02T14:03:11.999Z</time></trkpt><trkpt lat="40.83864048892872" lon="16.046007166617315"><ele>533.0</ele><time>2026-05-02T14:03:13.999Z</time></trkpt><trkpt lat="40.83853270487029" lon="16.045920418348828"><ele>533.0</ele><time>2026-05-02T14:03:15.999Z</time></trkpt><trkpt lat="40.83845583434348" lon="16.045859890902285"><ele>533.0</ele><time>2026-05-02T14:03:16.999Z</time></trkpt><trkpt lat="40.83837503890834" lon="16.045785895033827"><ele>533.0</ele><time>2026-05-02T14:03:17.999Z</time></trkpt><trkpt lat="40.838297799444064" lon="16.045703410983794"><ele>533.0</ele><time>2026-05-02T14:03:18.999Z</time></trkpt><trkpt lat="40.83821171215486" lon="16.04562535058897"><ele>537.8</ele><time>2026-05-02T14:03:19.999Z</time></trkpt><trkpt lat="40.83811821368963" lon="16.045547180792322"><ele>542.5999999999999</ele><time>2026-05-02T14:03:20.999Z</time></trkpt><trkpt lat="40.83803150063963" lon="16.045475870162303"><ele>547.4000000000001</ele><time>2026-05-02T14:03:21.999Z</time></trkpt><trkpt lat="40.83794713254062" lon="16.04540957045148"><ele>552.2</ele><time>2026-05-02T14:03:22.999Z</time></trkpt><trkpt lat="40.83786202966062" lon="16.04533826876915"><ele>557.0</ele><time>2026-05-02T14:03:23.999Z</time></trkpt><trkpt lat="40.8377771215253" lon="16.045260289418778"><ele>557.0</ele><time>2026-05-02T14:03:24.999Z</time></trkpt><trkpt lat="40.83771278875208" lon="16.04519532368162"><ele>557.0</ele><time>2026-05-02T14:03:25.999Z</time></trkpt><trkpt lat="40.83764045679194" lon="16.045111170690543"><ele>557.0</ele><time>2026-05-02T14:03:26.999Z</time></trkpt><trkpt lat="40.83756664792137" lon="16.045035648466815"><ele>557.0</ele><time>2026-05-02T14:03:27.999Z</time></trkpt><trkpt lat="40.83749999019903" lon="16.04495842832857"><ele>557.0</ele><time>2026-05-02T14:03:28.999Z</time></trkpt><trkpt lat="40.83743157955485" lon="16.044869765370326"><ele>556.4</ele><time>2026-05-02T14:03:29.999Z</time></trkpt><trkpt lat="40.837374481574194" lon="16.044801340655688"><ele>555.8000000000001</ele><time>2026-05-02T14:03:30.999Z</time></trkpt><trkpt lat="40.837322458311455" lon="16.044708802193604"><ele>555.2</ele><time>2026-05-02T14:03:32.999Z</time></trkpt><trkpt lat="40.83732579908729" lon="16.04461943238402"><ele>554.6</ele><time>2026-05-02T14:03:34.999Z</time></trkpt><trkpt lat="40.83734864892102" lon="16.044427924439223"><ele>554.0</ele><time>2026-05-02T14:03:36.999Z</time></trkpt><trkpt lat="40.83735075149713" lon="16.04431495317275"><ele>554.0</ele><time>2026-05-02T14:03:37.999Z</time></trkpt><trkpt lat="40.83736161388094" lon="16.044201118228127"><ele>554.0</ele><time>2026-05-02T14:03:39.999Z</time></trkpt><trkpt lat="40.837385205345235" lon="16.04409109045838"><ele>554.0</ele><time>2026-05-02T14:03:42.999Z</time></trkpt><trkpt lat="40.8374131638261" lon="16.04401406203147"><ele>554.0</ele><time>2026-05-02T14:03:43.999Z</time></trkpt><trkpt lat="40.837440445565385" lon="16.04391181367317"><ele>554.0</ele><time>2026-05-02T14:03:44.999Z</time></trkpt><trkpt lat="40.837477949146916" lon="16.04379921728229"><ele>554.0</ele><time>2026-05-02T14:03:45.999Z</time></trkpt><trkpt lat="40.83751555112295" lon="16.043690623610896"><ele>554.3333333333333</ele><time>2026-05-02T14:03:46.999Z</time></trkpt><trkpt lat="40.83754773553006" lon="16.043563367965277"><ele>554.6666666666666</ele><time>2026-05-02T14:03:48.999Z</time></trkpt><trkpt lat="40.83753787337012" lon="16.043463870103757"><ele>555.0</ele><time>2026-05-02T14:03:50.999Z</time></trkpt><trkpt lat="40.83750550859581" lon="16.043366502000296"><ele>555.3333333333334</ele><time>2026-05-02T14:03:52.999Z</time></trkpt><trkpt lat="40.83747585790093" lon="16.04322583500111"><ele>555.6666666666667</ele><time>2026-05-02T14:03:54.999Z</time></trkpt><trkpt lat="40.83745824046104" lon="16.04314237826154"><ele>556.0</ele><time>2026-05-02T14:03:55.999Z</time></trkpt><trkpt lat="40.837443768058" lon="16.043055949248913"><ele>556.0</ele><time>2026-05-02T14:03:56.999Z</time></trkpt><trkpt lat="40.83743503870305" lon="16.04296427711425"><ele>556.0</ele><time>2026-05-02T14:03:57.999Z</time></trkpt><trkpt lat="40.837426738753514" lon="16.042855550041015"><ele>556.0</ele><time>2026-05-02T14:03:58.999Z</time></trkpt><trkpt lat="40.83742630300743" lon="16.042738712959697"><ele>556.0</ele><time>2026-05-02T14:03:59.999Z</time></trkpt><trkpt lat="40.837431957318245" lon="16.04264250405485"><ele>556.0</ele><time>2026-05-02T14:04:00.999Z</time></trkpt><trkpt lat="40.83742571084977" lon="16.04248357021719"><ele>556.0</ele><time>2026-05-02T14:04:02.999Z</time></trkpt><trkpt lat="40.83740727291742" lon="16.042395498450766"><ele>556.3333333333334</ele><time>2026-05-02T14:04:03.999Z</time></trkpt><trkpt lat="40.83738672429737" lon="16.042293520059943"><ele>556.6666666666667</ele><time>2026-05-02T14:04:05Z</time></trkpt><trkpt lat="40.837364588381625" lon="16.042185840725573"><ele>557.0</ele><time>2026-05-02T14:04:06Z</time></trkpt><trkpt lat="40.83735641034516" lon="16.04208312307215"><ele>557.3333333333334</ele><time>2026-05-02T14:04:07Z</time></trkpt><trkpt lat="40.83736072790693" lon="16.041962561891935"><ele>557.6666666666666</ele><time>2026-05-02T14:04:08Z</time></trkpt><trkpt lat="40.83736237914969" lon="16.041847531454895"><ele>558.0</ele><time>2026-05-02T14:04:09Z</time></trkpt><trkpt lat="40.8373643745278" lon="16.04173911094638"><ele>558.0</ele><time>2026-05-02T14:04:10Z</time></trkpt><trkpt lat="40.83736082231579" lon="16.041643440509997"><ele>558.0</ele><time>2026-05-02T14:04:11Z</time></trkpt><trkpt lat="40.83737495045375" lon="16.041482286350167"><ele>558.0</ele><time>2026-05-02T14:04:13Z</time></trkpt><trkpt lat="40.83739617408998" lon="16.041319157953865"><ele>558.0</ele><time>2026-05-02T14:04:15Z</time></trkpt><trkpt lat="40.83740995114114" lon="16.041234660267843"><ele>558.0</ele><time>2026-05-02T14:04:16Z</time></trkpt><trkpt lat="40.83742924670614" lon="16.041148624025023"><ele>558.1999999999999</ele><time>2026-05-02T14:04:17Z</time></trkpt><trkpt lat="40.8374405343145" lon="16.041044144331202"><ele>558.4</ele><time>2026-05-02T14:04:18Z</time></trkpt><trkpt lat="40.83744511467599" lon="16.040946480424715"><ele>558.5999999999999</ele><time>2026-05-02T14:04:19Z</time></trkpt><trkpt lat="40.837438880874764" lon="16.0408233519562"><ele>558.8</ele><time>2026-05-02T14:04:20Z</time></trkpt><trkpt lat="40.83743548887564" lon="16.0406857874441"><ele>559.0</ele><time>2026-05-02T14:04:21Z</time></trkpt><trkpt lat="40.8374329355361" lon="16.04055417331897"><ele>559.0</ele><time>2026-05-02T14:04:22Z</time></trkpt><trkpt lat="40.83743015972635" lon="16.040441242091994"><ele>559.0</ele><time>2026-05-02T14:04:23Z</time></trkpt><trkpt lat="40.83742755632111" lon="16.04033258003729"><ele>559.0</ele><time>2026-05-02T14:04:24Z</time></trkpt><trkpt lat="40.83742763832298" lon="16.0402304932601"><ele>559.0</ele><time>2026-05-02T14:04:25Z</time></trkpt><trkpt lat="40.837424586855214" lon="16.040132969079007"><ele>559.0</ele><time>2026-05-02T14:04:26Z</time></trkpt><trkpt lat="40.837423690816074" lon="16.04002655120225"><ele>559.0</ele><time>2026-05-02T14:04:27Z</time></trkpt><trkpt lat="40.83741857464979" lon="16.039914878369988"><ele>558.8333333333334</ele><time>2026-05-02T14:04:28Z</time></trkpt><trkpt lat="40.83741850255277" lon="16.039807632383795"><ele>558.6666666666667</ele><time>2026-05-02T14:04:29Z</time></trkpt><trkpt lat="40.837422133277435" lon="16.039697241842138"><ele>558.5</ele><time>2026-05-02T14:04:30Z</time></trkpt><trkpt lat="40.83743204312862" lon="16.039584136129697"><ele>558.3333333333334</ele><time>2026-05-02T14:04:31Z</time></trkpt><trkpt lat="40.837433217100724" lon="16.039460500684363"><ele>558.1666666666666</ele><time>2026-05-02T14:04:32Z</time></trkpt><trkpt lat="40.837429058568326" lon="16.039341192214042"><ele>558.0</ele><time>2026-05-02T14:04:33Z</time></trkpt><trkpt lat="40.83742187044791" lon="16.039243310005883"><ele>558.3333333333334</ele><time>2026-05-02T14:04:34Z</time></trkpt><trkpt lat="40.8374297668813" lon="16.039131631121098"><ele>558.6666666666666</ele><time>2026-05-02T14:04:35Z</time></trkpt><trkpt lat="40.83742896610033" lon="16.039003996501446"><ele>559.0</ele><time>2026-05-02T14:04:36Z</time></trkpt><trkpt lat="40.837416283301444" lon="16.038885986328918"><ele>559.3333333333333</ele><time>2026-05-02T14:04:37Z</time></trkpt><trkpt lat="40.837407541008936" lon="16.038782828817514"><ele>559.6666666666666</ele><time>2026-05-02T14:04:38Z</time></trkpt><trkpt lat="40.83739243294254" lon="16.03867953773608"><ele>560.0</ele><time>2026-05-02T14:04:39Z</time></trkpt><trkpt lat="40.837371391965405" lon="16.038575018557125"><ele>560.0</ele><time>2026-05-02T14:04:40Z</time></trkpt><trkpt lat="40.83735104585507" lon="16.038489055317168"><ele>560.0</ele><time>2026-05-02T14:04:41Z</time></trkpt><trkpt lat="40.83732753498269" lon="16.038388122491703"><ele>560.0</ele><time>2026-05-02T14:04:42Z</time></trkpt><trkpt lat="40.83730646199231" lon="16.03828208964195"><ele>560.0</ele><time>2026-05-02T14:04:43Z</time></trkpt><trkpt lat="40.837286654811095" lon="16.038170105101816"><ele>560.0</ele><time>2026-05-02T14:04:44Z</time></trkpt><trkpt lat="40.83726632147658" lon="16.038054682710126"><ele>560.0</ele><time>2026-05-02T14:04:45Z</time></trkpt><trkpt lat="40.83724830844922" lon="16.037944109783368"><ele>559.8</ele><time>2026-05-02T14:04:46Z</time></trkpt><trkpt lat="40.83723647921484" lon="16.037839586487735"><ele>559.6</ele><time>2026-05-02T14:04:47Z</time></trkpt><trkpt lat="40.83722265898154" lon="16.037730344305785"><ele>559.4</ele><time>2026-05-02T14:04:48Z</time></trkpt><trkpt lat="40.83720256806685" lon="16.037605419037217"><ele>559.2</ele><time>2026-05-02T14:04:49Z</time></trkpt><trkpt lat="40.8373302549399" lon="16.037447939624197"><ele>559.0</ele><time>2026-05-02T14:04:50Z</time></trkpt><trkpt lat="40.83731430942151" lon="16.037345528631068"><ele>559.0</ele><time>2026-05-02T14:04:51Z</time></trkpt><trkpt lat="40.837276832573814" lon="16.037218446368676"><ele>559.0</ele><time>2026-05-02T14:04:51.999Z</time></trkpt><trkpt lat="40.83724978601342" lon="16.03710645049853"><ele>559.0</ele><time>2026-05-02T14:04:52.999Z</time></trkpt><trkpt lat="40.83723245373446" lon="16.03699929143562"><ele>559.0</ele><time>2026-05-02T14:04:53.999Z</time></trkpt><trkpt lat="40.837219441515664" lon="16.036893104410293"><ele>559.0</ele><time>2026-05-02T14:04:54.999Z</time></trkpt><trkpt lat="40.837206381423066" lon="16.036786526655266"><ele>559.0</ele><time>2026-05-02T14:04:55.999Z</time></trkpt><trkpt lat="40.83719614928131" lon="16.03669561135343"><ele>557.3333333333334</ele><time>2026-05-02T14:04:56.999Z</time></trkpt><trkpt lat="40.837184957063016" lon="16.036589778170924"><ele>555.6666666666667</ele><time>2026-05-02T14:04:57.999Z</time></trkpt><trkpt lat="40.83717744246649" lon="16.036478451580834"><ele>554.0</ele><time>2026-05-02T14:04:58.999Z</time></trkpt><trkpt lat="40.837175537925" lon="16.036371069136077"><ele>552.3333333333334</ele><time>2026-05-02T14:04:59.999Z</time></trkpt><trkpt lat="40.837171108234756" lon="16.036273042960655"><ele>550.6666666666666</ele><time>2026-05-02T14:05:00.999Z</time></trkpt><trkpt lat="40.83717505390395" lon="16.03618746442552"><ele>549.0</ele><time>2026-05-02T14:05:01.999Z</time></trkpt><trkpt lat="40.837181777434616" lon="16.036092257946073"><ele>549.0</ele><time>2026-05-02T14:05:02.999Z</time></trkpt><trkpt lat="40.83720292066214" lon="16.03594511155479"><ele>549.0</ele><time>2026-05-02T14:05:04.999Z</time></trkpt><trkpt lat="40.83721115763565" lon="16.035842548698042"><ele>549.0</ele><time>2026-05-02T14:05:06.999Z</time></trkpt><trkpt lat="40.83735028149253" lon="16.035694516131056"><ele>549.0</ele><time>2026-05-02T14:05:08.999Z</time></trkpt><trkpt lat="40.83744891415238" lon="16.035603856194978"><ele>549.1666666666666</ele><time>2026-05-02T14:05:09.999Z</time></trkpt><trkpt lat="40.837537453210686" lon="16.035519442765906"><ele>549.3333333333334</ele><time>2026-05-02T14:05:10.999Z</time></trkpt><trkpt lat="40.83759439698896" lon="16.035441162725903"><ele>549.5</ele><time>2026-05-02T14:05:11.999Z</time></trkpt><trkpt lat="40.83766336057792" lon="16.035382226052633"><ele>549.6666666666667</ele><time>2026-05-02T14:05:12.999Z</time></trkpt><trkpt lat="40.83769371479192" lon="16.035278542701235"><ele>549.8333333333334</ele><time>2026-05-02T14:05:13.999Z</time></trkpt><trkpt lat="40.83775688201553" lon="16.035290356201585"><ele>550.0</ele><time>2026-05-02T14:05:14.999Z</time></trkpt><trkpt lat="40.83774651144981" lon="16.03520817743598"><ele>550.0</ele><time>2026-05-02T14:05:15.999Z</time></trkpt><trkpt lat="40.83779124852543" lon="16.03511429569505"><ele>550.0</ele><time>2026-05-02T14:05:17.999Z</time></trkpt><trkpt lat="40.837803869643324" lon="16.034962930097063"><ele>550.0</ele><time>2026-05-02T14:05:19.999Z</time></trkpt><trkpt lat="40.837748024763506" lon="16.034892606453603"><ele>550.0</ele><time>2026-05-02T14:05:20.999Z</time></trkpt><trkpt lat="40.837718295792946" lon="16.034803368618363"><ele>550.0</ele><time>2026-05-02T14:05:21.999Z</time></trkpt><trkpt lat="40.83767361469956" lon="16.03471784926557"><ele>550.0</ele><time>2026-05-02T14:05:22.999Z</time></trkpt><trkpt lat="40.83762713766331" lon="16.034628892526033"><ele>544.6666666666667</ele><time>2026-05-02T14:05:23.999Z</time></trkpt><trkpt lat="40.83758124748347" lon="16.034541058921175"><ele>539.3333333333334</ele><time>2026-05-02T14:05:24.999Z</time></trkpt><trkpt lat="40.837534691170816" lon="16.034448893671723"><ele>534.0</ele><time>2026-05-02T14:05:25.999Z</time></trkpt><trkpt lat="40.837489227249044" lon="16.034355775098092"><ele>528.6666666666666</ele><time>2026-05-02T14:05:26.999Z</time></trkpt><trkpt lat="40.83744392656153" lon="16.03426299092444"><ele>523.3333333333333</ele><time>2026-05-02T14:05:27.999Z</time></trkpt><trkpt lat="40.8374002596469" lon="16.034178721129166"><ele>518.0</ele><time>2026-05-02T14:05:28.999Z</time></trkpt><trkpt lat="40.83735386940501" lon="16.034120015827607"><ele>517.6</ele><time>2026-05-02T14:05:29.999Z</time></trkpt><trkpt lat="40.83731187743772" lon="16.034053194387038"><ele>517.1999999999999</ele><time>2026-05-02T14:05:30.999Z</time></trkpt><trkpt lat="40.83720536054092" lon="16.033991515369323"><ele>516.8</ele><time>2026-05-02T14:05:32.999Z</time></trkpt><trkpt lat="40.837127167563985" lon="16.033958780448554"><ele>516.4</ele><time>2026-05-02T14:05:33.999Z</time></trkpt><trkpt lat="40.83703211607366" lon="16.03392547437528"><ele>516.0</ele><time>2026-05-02T14:05:34.999Z</time></trkpt><trkpt lat="40.83694284575878" lon="16.033862397815795"><ele>516.0</ele><time>2026-05-02T14:05:35.999Z</time></trkpt><trkpt lat="40.8368623265827" lon="16.033809477173023"><ele>516.0</ele><time>2026-05-02T14:05:36.999Z</time></trkpt><trkpt lat="40.83678269825421" lon="16.033754638640623"><ele>516.0</ele><time>2026-05-02T14:05:37.999Z</time></trkpt><trkpt lat="40.836703324168646" lon="16.033725861138652"><ele>516.0</ele><time>2026-05-02T14:05:38.999Z</time></trkpt><trkpt lat="40.83663297112299" lon="16.03367572081255"><ele>516.0</ele><time>2026-05-02T14:05:39.999Z</time></trkpt><trkpt lat="40.836549689646674" lon="16.03365482529484"><ele>516.0</ele><time>2026-05-02T14:05:40.999Z</time></trkpt><trkpt lat="40.83646186613652" lon="16.03363534558514"><ele>514.6666666666666</ele><time>2026-05-02T14:05:41.999Z</time></trkpt><trkpt lat="40.836386782759895" lon="16.03362438450128"><ele>513.3333333333334</ele><time>2026-05-02T14:05:42.999Z</time></trkpt><trkpt lat="40.83628901439141" lon="16.033619393924095"><ele>512.0</ele><time>2026-05-02T14:05:44.999Z</time></trkpt><trkpt lat="40.83622159442266" lon="16.033615807002867"><ele>510.6666666666667</ele><time>2026-05-02T14:05:46.999Z</time></trkpt><trkpt lat="40.836152116250496" lon="16.033699479796958"><ele>509.33333333333337</ele><time>2026-05-02T14:05:48.999Z</time></trkpt><trkpt lat="40.836084439701416" lon="16.033742944693234"><ele>508.0</ele><time>2026-05-02T14:05:51.999Z</time></trkpt><trkpt lat="40.83602291301305" lon="16.03376449398812"><ele>507.50000000000006</ele><time>2026-05-02T14:06:25Z</time></trkpt><trkpt lat="40.83592400152381" lon="16.03377633097008"><ele>507.0</ele><time>2026-05-02T14:07:08.999Z</time></trkpt><trkpt lat="40.83587272229064" lon="16.033833479692156"><ele>506.5</ele><time>2026-05-02T14:07:12.999Z</time></trkpt><trkpt lat="40.83576904693863" lon="16.033779896084273"><ele>506.0</ele><time>2026-05-02T14:07:14.999Z</time></trkpt><trkpt lat="40.83571215070033" lon="16.033729717148457"><ele>505.50000000000006</ele><time>2026-05-02T14:07:15.999Z</time></trkpt><trkpt lat="40.83563833163723" lon="16.033664434561324"><ele>505.0</ele><time>2026-05-02T14:07:16.999Z</time></trkpt><trkpt lat="40.83557813693758" lon="16.033612970613685"><ele>505.00000000000006</ele><time>2026-05-02T14:07:17.999Z</time></trkpt><trkpt lat="40.83550778175821" lon="16.033552985325706"><ele>505.0</ele><time>2026-05-02T14:07:18.999Z</time></trkpt><trkpt lat="40.835446584409084" lon="16.033504915483174"><ele>505.0</ele><time>2026-05-02T14:07:19.999Z</time></trkpt><trkpt lat="40.83537883099496" lon="16.033465464209407"><ele>505.0</ele><time>2026-05-02T14:07:20.999Z</time></trkpt><trkpt lat="40.83531713540182" lon="16.03343490079214"><ele>505.00000000000006</ele><time>2026-05-02T14:07:21.999Z</time></trkpt><trkpt lat="40.83524416570458" lon="16.03338804929583"><ele>505.0</ele><time>2026-05-02T14:07:23.999Z</time></trkpt><trkpt lat="40.83515976837015" lon="16.0334008348294"><ele>507.0</ele><time>2026-05-02T14:07:25.999Z</time></trkpt><trkpt lat="40.83508908129845" lon="16.033467348303656"><ele>509.0</ele><time>2026-05-02T14:07:28.999Z</time></trkpt><trkpt lat="40.835013643012076" lon="16.033477635465513"><ele>511.0</ele><time>2026-05-02T14:07:29.999Z</time></trkpt><trkpt lat="40.83493454300078" lon="16.03347856315884"><ele>513.0</ele><time>2026-05-02T14:07:30.999Z</time></trkpt><trkpt lat="40.834763778050096" lon="16.032996099480027"><ele>514.0</ele><time>2026-05-02T14:07:32.999Z</time></trkpt><trkpt lat="40.83468318653406" lon="16.03293327062158"><ele>515.0</ele><time>2026-05-02T14:07:34.999Z</time></trkpt><trkpt lat="40.83461851180724" lon="16.032936775766395"><ele>516.0</ele><time>2026-05-02T14:07:36.999Z</time></trkpt><trkpt lat="40.83455707286061" lon="16.03303247275706"><ele>517.0</ele><time>2026-05-02T14:07:38.999Z</time></trkpt><trkpt lat="40.834508691423565" lon="16.03313163090134"><ele>518.0</ele><time>2026-05-02T14:07:39.999Z</time></trkpt><trkpt lat="40.834455053044266" lon="16.0332561613693"><ele>517.1666666666666</ele><time>2026-05-02T14:07:40.999Z</time></trkpt><trkpt lat="40.834405020464125" lon="16.033360287088446"><ele>516.3333333333333</ele><time>2026-05-02T14:07:41.999Z</time></trkpt><trkpt lat="40.83436792746705" lon="16.03343461729278"><ele>515.5</ele><time>2026-05-02T14:07:42.999Z</time></trkpt><trkpt lat="40.83429507680983" lon="16.033533615672614"><ele>514.6666666666666</ele><time>2026-05-02T14:07:44.999Z</time></trkpt><trkpt lat="40.83421905102415" lon="16.033586020830793"><ele>513.8333333333334</ele><time>2026-05-02T14:07:46.999Z</time></trkpt><trkpt lat="40.83412679864563" lon="16.03359270797851"><ele>513.0</ele><time>2026-05-02T14:07:50.999Z</time></trkpt><trkpt lat="40.834050864375335" lon="16.03362638926113"><ele>514.6666666666666</ele><time>2026-05-02T14:07:52.999Z</time></trkpt><trkpt lat="40.83399690183233" lon="16.033688466916402"><ele>516.3333333333334</ele><time>2026-05-02T14:07:55.999Z</time></trkpt><trkpt lat="40.833901097054266" lon="16.033715089478147"><ele>518.0</ele><time>2026-05-02T14:07:57.999Z</time></trkpt><trkpt lat="40.833839251179576" lon="16.03374493888945"><ele>519.6666666666667</ele><time>2026-05-02T14:07:58.999Z</time></trkpt><trkpt lat="40.83376697440799" lon="16.033764081996974"><ele>521.3333333333334</ele><time>2026-05-02T14:07:59.999Z</time></trkpt><trkpt lat="40.833689343282856" lon="16.033793083736608"><ele>523.0</ele><time>2026-05-02T14:08:00.999Z</time></trkpt><trkpt lat="40.83361512351732" lon="16.033824833828287"><ele>523.0</ele><time>2026-05-02T14:08:01.999Z</time></trkpt><trkpt lat="40.83355062250041" lon="16.033853856466965"><ele>523.0</ele><time>2026-05-02T14:08:02.999Z</time></trkpt><trkpt lat="40.83345147334603" lon="16.033903504223336"><ele>523.0</ele><time>2026-05-02T14:08:04.999Z</time></trkpt><trkpt lat="40.83333617798485" lon="16.03394907561373"><ele>523.0</ele><time>2026-05-02T14:08:06.999Z</time></trkpt><trkpt lat="40.833278013790014" lon="16.033983286246247"><ele>523.0</ele><time>2026-05-02T14:08:07.999Z</time></trkpt><trkpt lat="40.833177672900675" lon="16.034023867925985"><ele>523.3333333333334</ele><time>2026-05-02T14:08:09.999Z</time></trkpt><trkpt lat="40.833110122537185" lon="16.034036197657883"><ele>523.6666666666667</ele><time>2026-05-02T14:08:10.999Z</time></trkpt><trkpt lat="40.83304524937693" lon="16.03405060998131"><ele>524.0</ele><time>2026-05-02T14:08:11.999Z</time></trkpt><trkpt lat="40.832982513134255" lon="16.034079574802412"><ele>524.3333333333334</ele><time>2026-05-02T14:08:12.999Z</time></trkpt><trkpt lat="40.832920444985824" lon="16.03410472067761"><ele>524.6666666666666</ele><time>2026-05-02T14:08:13.999Z</time></trkpt><trkpt lat="40.832856471723865" lon="16.034129734430465"><ele>525.0</ele><time>2026-05-02T14:08:15Z</time></trkpt><trkpt lat="40.83273903479304" lon="16.034195519466206"><ele>525.0</ele><time>2026-05-02T14:08:17Z</time></trkpt><trkpt lat="40.83268070110611" lon="16.03422704431379"><ele>525.0</ele><time>2026-05-02T14:08:18Z</time></trkpt><trkpt lat="40.83256780312842" lon="16.034264067308253"><ele>525.0</ele><time>2026-05-02T14:08:20Z</time></trkpt><trkpt lat="40.832472318969636" lon="16.03427885518376"><ele>525.0</ele><time>2026-05-02T14:08:22Z</time></trkpt><trkpt lat="40.83236023844229" lon="16.034250827406836"><ele>525.0</ele><time>2026-05-02T14:08:24Z</time></trkpt><trkpt lat="40.832255078777465" lon="16.034199253205315"><ele>526.2</ele><time>2026-05-02T14:08:26Z</time></trkpt><trkpt lat="40.83212694163584" lon="16.034196398061347"><ele>527.4</ele><time>2026-05-02T14:08:28Z</time></trkpt><trkpt lat="40.831993196814665" lon="16.03416545722292"><ele>528.6</ele><time>2026-05-02T14:08:30Z</time></trkpt><trkpt lat="40.83191408022237" lon="16.034139414903308"><ele>529.8</ele><time>2026-05-02T14:08:31Z</time></trkpt><trkpt lat="40.83182529635943" lon="16.03409704359726"><ele>531.0</ele><time>2026-05-02T14:08:32Z</time></trkpt><trkpt lat="40.83174215912612" lon="16.03405817768613"><ele>534.8</ele><time>2026-05-02T14:08:33Z</time></trkpt><trkpt lat="40.83164061752668" lon="16.034013584916227"><ele>538.6</ele><time>2026-05-02T14:08:34Z</time></trkpt><trkpt lat="40.831526585607776" lon="16.0339724514824"><ele>542.4</ele><time>2026-05-02T14:08:35Z</time></trkpt><trkpt lat="40.83142324919068" lon="16.033929789357064"><ele>546.2</ele><time>2026-05-02T14:08:36Z</time></trkpt><trkpt lat="40.83133466149741" lon="16.03389397150981"><ele>550.0</ele><time>2026-05-02T14:08:37Z</time></trkpt><trkpt lat="40.83125786846281" lon="16.033865795945854"><ele>550.0</ele><time>2026-05-02T14:08:38Z</time></trkpt><trkpt lat="40.83119059870369" lon="16.033839673401907"><ele>550.0</ele><time>2026-05-02T14:08:39Z</time></trkpt><trkpt lat="40.83113297483594" lon="16.033806128893648"><ele>550.0</ele><time>2026-05-02T14:08:40Z</time></trkpt><trkpt lat="40.83106668074469" lon="16.033763851738666"><ele>550.0</ele><time>2026-05-02T14:08:41Z</time></trkpt><trkpt lat="40.83098964141668" lon="16.033724331136945"><ele>550.0</ele><time>2026-05-02T14:08:42Z</time></trkpt><trkpt lat="40.83091887486133" lon="16.033686737833186"><ele>550.0</ele><time>2026-05-02T14:08:43Z</time></trkpt><trkpt lat="40.83085066748976" lon="16.033652323762485"><ele>550.0</ele><time>2026-05-02T14:08:44Z</time></trkpt><trkpt lat="40.83074997112101" lon="16.033593915689885"><ele>549.6</ele><time>2026-05-02T14:08:46Z</time></trkpt><trkpt lat="40.83068436506997" lon="16.033553814554487"><ele>549.2</ele><time>2026-05-02T14:08:49Z</time></trkpt><trkpt lat="40.83061855717779" lon="16.033442689878996"><ele>548.8</ele><time>2026-05-02T14:08:51Z</time></trkpt><trkpt lat="40.83055449632062" lon="16.03336045805506"><ele>548.4</ele><time>2026-05-02T14:08:52Z</time></trkpt><trkpt lat="40.8304776044612" lon="16.033283633972786"><ele>548.0</ele><time>2026-05-02T14:08:53Z</time></trkpt><trkpt lat="40.83038520299748" lon="16.033210126321737"><ele>547.3333333333333</ele><time>2026-05-02T14:08:54Z</time></trkpt><trkpt lat="40.83027386515647" lon="16.033096718433814"><ele>546.6666666666666</ele><time>2026-05-02T14:08:55Z</time></trkpt><trkpt lat="40.83015345071884" lon="16.032961008318267"><ele>546.0</ele><time>2026-05-02T14:08:55.999Z</time></trkpt><trkpt lat="40.8300382515094" lon="16.032821580532726"><ele>546.0</ele><time>2026-05-02T14:08:56.999Z</time></trkpt><trkpt lat="40.82993078819642" lon="16.032685048485025"><ele>546.0</ele><time>2026-05-02T14:08:57.999Z</time></trkpt><trkpt lat="40.82983794504833" lon="16.032574227653495"><ele>546.0</ele><time>2026-05-02T14:08:58.999Z</time></trkpt><trkpt lat="40.82975645556905" lon="16.032482923875143"><ele>546.0</ele><time>2026-05-02T14:08:59.999Z</time></trkpt><trkpt lat="40.82969251910972" lon="16.032399920966515"><ele>547.6</ele><time>2026-05-02T14:09:00.999Z</time></trkpt><trkpt lat="40.82964175242157" lon="16.0323233521136"><ele>549.2</ele><time>2026-05-02T14:09:01.999Z</time></trkpt><trkpt lat="40.82958950846059" lon="16.03219900274309"><ele>550.8</ele><time>2026-05-02T14:09:03.999Z</time></trkpt><trkpt lat="40.82959785524662" lon="16.03206120508382"><ele>552.4</ele><time>2026-05-02T14:09:05.999Z</time></trkpt><trkpt lat="40.82960426474373" lon="16.03194736019317"><ele>554.0</ele><time>2026-05-02T14:09:06.999Z</time></trkpt><trkpt lat="40.82960617860497" lon="16.03180689000028"><ele>556.25</ele><time>2026-05-02T14:09:07.999Z</time></trkpt><trkpt lat="40.829611754333776" lon="16.031631438284563"><ele>558.5</ele><time>2026-05-02T14:09:08.999Z</time></trkpt><trkpt lat="40.829616290285415" lon="16.031432405155538"><ele>560.75</ele><time>2026-05-02T14:09:09.999Z</time></trkpt><trkpt lat="40.829629106388076" lon="16.031219349181686"><ele>563.0</ele><time>2026-05-02T14:09:10.999Z</time></trkpt><trkpt lat="40.829646084132655" lon="16.03098007454485"><ele>564.5</ele><time>2026-05-02T14:09:11.999Z</time></trkpt><trkpt lat="40.829660765617334" lon="16.030773275092557"><ele>566.0</ele><time>2026-05-02T14:09:12.999Z</time></trkpt><trkpt lat="40.82966648036663" lon="16.030606847986594"><ele>567.5</ele><time>2026-05-02T14:09:13.999Z</time></trkpt><trkpt lat="40.82966752739727" lon="16.030464441947334"><ele>569.0</ele><time>2026-05-02T14:09:14.999Z</time></trkpt><trkpt lat="40.82965765034806" lon="16.030333385902892"><ele>569.0</ele><time>2026-05-02T14:09:15.999Z</time></trkpt><trkpt lat="40.8296681111803" lon="16.03020810725845"><ele>569.0</ele><time>2026-05-02T14:09:16.999Z</time></trkpt><trkpt lat="40.82966584709633" lon="16.03008774045331"><ele>569.0</ele><time>2026-05-02T14:09:17.999Z</time></trkpt><trkpt lat="40.829663279239206" lon="16.029995695678263"><ele>569.0</ele><time>2026-05-02T14:09:18.999Z</time></trkpt><trkpt lat="40.8296593951311" lon="16.029895815755484"><ele>569.0</ele><time>2026-05-02T14:09:19.999Z</time></trkpt><trkpt lat="40.82966926190126" lon="16.029792206753527"><ele>569.0</ele><time>2026-05-02T14:09:20.999Z</time></trkpt><trkpt lat="40.82968581568592" lon="16.02970338021971"><ele>569.2</ele><time>2026-05-02T14:09:21.999Z</time></trkpt><trkpt lat="40.82970042447901" lon="16.02958931655609"><ele>569.4</ele><time>2026-05-02T14:09:22.999Z</time></trkpt><trkpt lat="40.8297115478853" lon="16.029503453824855"><ele>569.6</ele><time>2026-05-02T14:09:23.999Z</time></trkpt><trkpt lat="40.829740036753314" lon="16.029387922561256"><ele>569.8</ele><time>2026-05-02T14:09:24.999Z</time></trkpt><trkpt lat="40.829779877242" lon="16.029271377625136"><ele>570.0</ele><time>2026-05-02T14:09:25.999Z</time></trkpt><trkpt lat="40.82982789801998" lon="16.02913679849016"><ele>570.0</ele><time>2026-05-02T14:09:26.999Z</time></trkpt><trkpt lat="40.829867517039226" lon="16.02900349229494"><ele>570.0</ele><time>2026-05-02T14:09:27.999Z</time></trkpt><trkpt lat="40.82990850224502" lon="16.02887600271365"><ele>570.0</ele><time>2026-05-02T14:09:28.999Z</time></trkpt><trkpt lat="40.829957991978794" lon="16.02876628663408"><ele>570.0</ele><time>2026-05-02T14:09:29.999Z</time></trkpt><trkpt lat="40.830002268576095" lon="16.028679321384253"><ele>570.0</ele><time>2026-05-02T14:09:30.999Z</time></trkpt><trkpt lat="40.83005818677927" lon="16.028569725321443"><ele>570.0</ele><time>2026-05-02T14:09:31.999Z</time></trkpt><trkpt lat="40.830109995928915" lon="16.028454194955046"><ele>570.0</ele><time>2026-05-02T14:09:32.999Z</time></trkpt><trkpt lat="40.83015124064773" lon="16.028342383595007"><ele>570.0</ele><time>2026-05-02T14:09:33.999Z</time></trkpt><trkpt lat="40.83018617616476" lon="16.02824002883264"><ele>570.0</ele><time>2026-05-02T14:09:34.999Z</time></trkpt><trkpt lat="40.830230416210824" lon="16.028131531694118"><ele>570.0</ele><time>2026-05-02T14:09:35.999Z</time></trkpt><trkpt lat="40.830257152573886" lon="16.028032831876722"><ele>573.3333333333334</ele><time>2026-05-02T14:09:36.999Z</time></trkpt><trkpt lat="40.83029202502366" lon="16.027941240354995"><ele>576.6666666666666</ele><time>2026-05-02T14:09:37.999Z</time></trkpt><trkpt lat="40.83033238001371" lon="16.027849524622148"><ele>580.0</ele><time>2026-05-02T14:09:38.999Z</time></trkpt><trkpt lat="40.83038197759542" lon="16.0277630566205"><ele>583.3333333333333</ele><time>2026-05-02T14:09:39.999Z</time></trkpt><trkpt lat="40.830433286054706" lon="16.027696253700682"><ele>586.6666666666666</ele><time>2026-05-02T14:09:40.999Z</time></trkpt><trkpt lat="40.830496777173636" lon="16.027618978736495"><ele>590.0</ele><time>2026-05-02T14:09:41.999Z</time></trkpt><trkpt lat="40.83055555332965" lon="16.027535834480474"><ele>589.5</ele><time>2026-05-02T14:09:42.999Z</time></trkpt><trkpt lat="40.83060970648691" lon="16.027463653830576"><ele>589.0</ele><time>2026-05-02T14:09:43.999Z</time></trkpt><trkpt lat="40.83065136529793" lon="16.027395014219152"><ele>588.5</ele><time>2026-05-02T14:09:44.999Z</time></trkpt><trkpt lat="40.830685496604445" lon="16.027319114587307"><ele>588.0</ele><time>2026-05-02T14:09:45.999Z</time></trkpt><trkpt lat="40.8306990467991" lon="16.027165916540955"><ele>587.5</ele><time>2026-05-02T14:09:47.999Z</time></trkpt><trkpt lat="40.830728454815116" lon="16.02706092387586"><ele>587.0</ele><time>2026-05-02T14:09:48.999Z</time></trkpt><trkpt lat="40.830762775461515" lon="16.026951851555012"><ele>587.0</ele><time>2026-05-02T14:09:49.999Z</time></trkpt><trkpt lat="40.83080123075826" lon="16.02684997029168"><ele>587.0</ele><time>2026-05-02T14:09:50.999Z</time></trkpt><trkpt lat="40.8308433880851" lon="16.026757212264194"><ele>587.0</ele><time>2026-05-02T14:09:51.999Z</time></trkpt><trkpt lat="40.83088163238056" lon="16.026672726755663"><ele>587.0</ele><time>2026-05-02T14:09:52.999Z</time></trkpt><trkpt lat="40.83091571474922" lon="16.026561152590777"><ele>587.0</ele><time>2026-05-02T14:09:53.999Z</time></trkpt><trkpt lat="40.830951908784606" lon="16.026488319400197"><ele>587.0</ele><time>2026-05-02T14:09:54.999Z</time></trkpt><trkpt lat="40.83099427944305" lon="16.026402657960112"><ele>588.1666666666666</ele><time>2026-05-02T14:09:55.999Z</time></trkpt><trkpt lat="40.83100488652354" lon="16.026318007915286"><ele>589.3333333333333</ele><time>2026-05-02T14:09:56.999Z</time></trkpt><trkpt lat="40.83099295215876" lon="16.02621340699078"><ele>590.5</ele><time>2026-05-02T14:09:57.999Z</time></trkpt><trkpt lat="40.830977273513035" lon="16.0261083352837"><ele>591.6666666666666</ele><time>2026-05-02T14:09:58.999Z</time></trkpt><trkpt lat="40.83096738445839" lon="16.025989279388217"><ele>592.8333333333334</ele><time>2026-05-02T14:09:59.999Z</time></trkpt><trkpt lat="40.8309593803204" lon="16.02586539767967"><ele>594.0</ele><time>2026-05-02T14:10:00.999Z</time></trkpt><trkpt lat="40.83095643610362" lon="16.02574084894633"><ele>595.4</ele><time>2026-05-02T14:10:01.999Z</time></trkpt><trkpt lat="40.83096180702374" lon="16.02561001045652"><ele>596.8</ele><time>2026-05-02T14:10:02.999Z</time></trkpt><trkpt lat="40.83096439579266" lon="16.025479988203458"><ele>598.2</ele><time>2026-05-02T14:10:03.999Z</time></trkpt><trkpt lat="40.830967809965756" lon="16.02536764320079"><ele>599.6</ele><time>2026-05-02T14:10:04.999Z</time></trkpt><trkpt lat="40.83096809102072" lon="16.025208191380575"><ele>601.0</ele><time>2026-05-02T14:10:05.999Z</time></trkpt><trkpt lat="40.83096788614938" lon="16.025028049350087"><ele>603.4</ele><time>2026-05-02T14:10:06.999Z</time></trkpt><trkpt lat="40.83098043772566" lon="16.0248582096993"><ele>605.8</ele><time>2026-05-02T14:10:07.999Z</time></trkpt><trkpt lat="40.83098065856306" lon="16.024703826969976"><ele>608.1999999999999</ele><time>2026-05-02T14:10:08.999Z</time></trkpt><trkpt lat="40.83099002267366" lon="16.024583129847905"><ele>610.6</ele><time>2026-05-02T14:10:09.999Z</time></trkpt><trkpt lat="40.831013821385056" lon="16.024455867391854"><ele>613.0</ele><time>2026-05-02T14:10:10.999Z</time></trkpt><trkpt lat="40.83105605433687" lon="16.02431326370062"><ele>613.0</ele><time>2026-05-02T14:10:11.999Z</time></trkpt><trkpt lat="40.83110699701899" lon="16.02417497193329"><ele>613.0</ele><time>2026-05-02T14:10:12.999Z</time></trkpt><trkpt lat="40.83113985831068" lon="16.024047531877553"><ele>613.0</ele><time>2026-05-02T14:10:13.999Z</time></trkpt><trkpt lat="40.8311761020533" lon="16.02394606409329"><ele>613.0</ele><time>2026-05-02T14:10:14.999Z</time></trkpt><trkpt lat="40.83119043073367" lon="16.02384096953986"><ele>613.0</ele><time>2026-05-02T14:10:15.999Z</time></trkpt><trkpt lat="40.83118546840679" lon="16.02372723623376"><ele>612.6</ele><time>2026-05-02T14:10:16.999Z</time></trkpt><trkpt lat="40.831156839880514" lon="16.023606359874954"><ele>612.1999999999999</ele><time>2026-05-02T14:10:17.999Z</time></trkpt><trkpt lat="40.831118690279496" lon="16.023465416917652"><ele>611.8</ele><time>2026-05-02T14:10:18.999Z</time></trkpt><trkpt lat="40.83108365035161" lon="16.023339833514076"><ele>611.4</ele><time>2026-05-02T14:10:20Z</time></trkpt><trkpt lat="40.831083361187694" lon="16.023212585237086"><ele>611.0</ele><time>2026-05-02T14:10:21Z</time></trkpt><trkpt lat="40.83106823588901" lon="16.023091510857057"><ele>611.0</ele><time>2026-05-02T14:10:22Z</time></trkpt><trkpt lat="40.83109665778965" lon="16.022975228328388"><ele>611.0</ele><time>2026-05-02T14:10:23Z</time></trkpt><trkpt lat="40.8311426531046" lon="16.022826427289374"><ele>611.0</ele><time>2026-05-02T14:10:24Z</time></trkpt><trkpt lat="40.831187641943906" lon="16.02268191162218"><ele>611.0</ele><time>2026-05-02T14:10:25Z</time></trkpt><trkpt lat="40.831248504588615" lon="16.02254257393436"><ele>611.0</ele><time>2026-05-02T14:10:26Z</time></trkpt><trkpt lat="40.83131224463633" lon="16.022416739338873"><ele>611.0</ele><time>2026-05-02T14:10:27Z</time></trkpt><trkpt lat="40.83138590360756" lon="16.02230205660468"><ele>611.0</ele><time>2026-05-02T14:10:28Z</time></trkpt><trkpt lat="40.83144403150825" lon="16.022199127415572"><ele>611.0</ele><time>2026-05-02T14:10:29Z</time></trkpt><trkpt lat="40.831498723424744" lon="16.02208053074105"><ele>611.0</ele><time>2026-05-02T14:10:30Z</time></trkpt><trkpt lat="40.83156779220995" lon="16.02196174396626"><ele>611.0</ele><time>2026-05-02T14:10:31Z</time></trkpt><trkpt lat="40.8316386293502" lon="16.021831547264924"><ele>611.0</ele><time>2026-05-02T14:10:32Z</time></trkpt><trkpt lat="40.83171030704658" lon="16.021709416105086"><ele>611.0</ele><time>2026-05-02T14:10:33Z</time></trkpt><trkpt lat="40.831772192045314" lon="16.02158937636769"><ele>611.0</ele><time>2026-05-02T14:10:34Z</time></trkpt><trkpt lat="40.83183582780385" lon="16.02147895763969"><ele>611.8333333333333</ele><time>2026-05-02T14:10:35Z</time></trkpt><trkpt lat="40.8318845773618" lon="16.02137850698561"><ele>612.6666666666666</ele><time>2026-05-02T14:10:36Z</time></trkpt><trkpt lat="40.831934978740996" lon="16.021281816413484"><ele>613.5</ele><time>2026-05-02T14:10:37Z</time></trkpt><trkpt lat="40.83198267507318" lon="16.021192590091463"><ele>614.3333333333334</ele><time>2026-05-02T14:10:38Z</time></trkpt><trkpt lat="40.83202364647159" lon="16.021109495647842"><ele>615.1666666666667</ele><time>2026-05-02T14:10:39Z</time></trkpt><trkpt lat="40.8320580153736" lon="16.02103195030693"><ele>616.0</ele><time>2026-05-02T14:10:40Z</time></trkpt><trkpt lat="40.83211556429945" lon="16.02091280812215"><ele>615.0</ele><time>2026-05-02T14:10:42Z</time></trkpt><trkpt lat="40.83218559761086" lon="16.020757650080252"><ele>614.0</ele><time>2026-05-02T14:10:44Z</time></trkpt><trkpt lat="40.832235499516365" lon="16.020654255237517"><ele>613.0</ele><time>2026-05-02T14:10:45Z</time></trkpt><trkpt lat="40.83229593997621" lon="16.020525264074244"><ele>612.0</ele><time>2026-05-02T14:10:46Z</time></trkpt><trkpt lat="40.83235900372771" lon="16.020388288743153"><ele>612.0</ele><time>2026-05-02T14:10:47Z</time></trkpt><trkpt lat="40.8324273938833" lon="16.020249530790103"><ele>612.0</ele><time>2026-05-02T14:10:48Z</time></trkpt><trkpt lat="40.83249866813552" lon="16.02010745486502"><ele>612.0</ele><time>2026-05-02T14:10:49Z</time></trkpt><trkpt lat="40.83257662718659" lon="16.019958064749407"><ele>612.0</ele><time>2026-05-02T14:10:50Z</time></trkpt><trkpt lat="40.83266052315899" lon="16.01979518997321"><ele>612.3333333333334</ele><time>2026-05-02T14:10:51Z</time></trkpt><trkpt lat="40.83276429759163" lon="16.019611857090833"><ele>612.6666666666667</ele><time>2026-05-02T14:10:52Z</time></trkpt><trkpt lat="40.83285859797838" lon="16.019455112892594"><ele>613.0</ele><time>2026-05-02T14:10:53Z</time></trkpt><trkpt lat="40.83294817754164" lon="16.019329695982144"><ele>613.0</ele><time>2026-05-02T14:10:53.999Z</time></trkpt><trkpt lat="40.833028492348994" lon="16.01920327578949"><ele>613.0</ele><time>2026-05-02T14:10:54.999Z</time></trkpt><trkpt lat="40.83310673851472" lon="16.019074556436482"><ele>613.0</ele><time>2026-05-02T14:10:55.999Z</time></trkpt><trkpt lat="40.83318385420558" lon="16.01896817247693"><ele>613.0</ele><time>2026-05-02T14:10:56.999Z</time></trkpt><trkpt lat="40.833263143701004" lon="16.018863796014724"><ele>612.6</ele><time>2026-05-02T14:10:57.999Z</time></trkpt><trkpt lat="40.83332444852737" lon="16.018771775460795"><ele>612.1999999999999</ele><time>2026-05-02T14:10:58.999Z</time></trkpt><trkpt lat="40.83338062701527" lon="16.018680657639273"><ele>611.8</ele><time>2026-05-02T14:10:59.999Z</time></trkpt><trkpt lat="40.83342490724359" lon="16.018565397650637"><ele>611.4</ele><time>2026-05-02T14:11:00.999Z</time></trkpt><trkpt lat="40.833455774418034" lon="16.018421582180455"><ele>611.0</ele><time>2026-05-02T14:11:01.999Z</time></trkpt><trkpt lat="40.83347885442535" lon="16.018275848470772"><ele>611.0</ele><time>2026-05-02T14:11:02.999Z</time></trkpt><trkpt lat="40.83350481271032" lon="16.018127616487156"><ele>611.0</ele><time>2026-05-02T14:11:03.999Z</time></trkpt><trkpt lat="40.833524813034735" lon="16.0179796483107"><ele>611.0</ele><time>2026-05-02T14:11:04.999Z</time></trkpt><trkpt lat="40.833539973509815" lon="16.017831248119016"><ele>611.0</ele><time>2026-05-02T14:11:05.999Z</time></trkpt><trkpt lat="40.833548295894374" lon="16.01768553885689"><ele>611.0</ele><time>2026-05-02T14:11:06.999Z</time></trkpt><trkpt lat="40.83354377285243" lon="16.017537205333408"><ele>611.0</ele><time>2026-05-02T14:11:07.999Z</time></trkpt><trkpt lat="40.83352920020604" lon="16.017390802461907"><ele>611.0</ele><time>2026-05-02T14:11:08.999Z</time></trkpt><trkpt lat="40.833524488865024" lon="16.01724617430749"><ele>611.0</ele><time>2026-05-02T14:11:09.999Z</time></trkpt><trkpt lat="40.83353179797222" lon="16.01709750224624"><ele>611.0</ele><time>2026-05-02T14:11:10.999Z</time></trkpt><trkpt lat="40.83355248254915" lon="16.016947179456373"><ele>611.4</ele><time>2026-05-02T14:11:11.999Z</time></trkpt><trkpt lat="40.833581141554234" lon="16.016788757530982"><ele>611.8</ele><time>2026-05-02T14:11:12.999Z</time></trkpt><trkpt lat="40.83359770962326" lon="16.016659568770763"><ele>612.1999999999999</ele><time>2026-05-02T14:11:13.999Z</time></trkpt><trkpt lat="40.83360680555565" lon="16.016533963974755"><ele>612.6</ele><time>2026-05-02T14:11:14.999Z</time></trkpt><trkpt lat="40.833606714443754" lon="16.016414359160343"><ele>613.0</ele><time>2026-05-02T14:11:15.999Z</time></trkpt><trkpt lat="40.8335992241166" lon="16.016305571242313"><ele>613.4</ele><time>2026-05-02T14:11:16.999Z</time></trkpt><trkpt lat="40.83358422961721" lon="16.016189391864994"><ele>613.8</ele><time>2026-05-02T14:11:17.999Z</time></trkpt><trkpt lat="40.83357093770897" lon="16.016053539062767"><ele>614.2</ele><time>2026-05-02T14:11:18.999Z</time></trkpt><trkpt lat="40.83356833666547" lon="16.015941546630295"><ele>614.6</ele><time>2026-05-02T14:11:19.999Z</time></trkpt><trkpt lat="40.83357505475893" lon="16.015809710539685"><ele>615.0</ele><time>2026-05-02T14:11:20.999Z</time></trkpt><trkpt lat="40.833600611496145" lon="16.015665289515795"><ele>615.25</ele><time>2026-05-02T14:11:21.999Z</time></trkpt><trkpt lat="40.83364814055191" lon="16.015527312466915"><ele>615.5</ele><time>2026-05-02T14:11:22.999Z</time></trkpt><trkpt lat="40.83372327924327" lon="16.01537630092243"><ele>615.75</ele><time>2026-05-02T14:11:23.999Z</time></trkpt><trkpt lat="40.83380616278098" lon="16.01523287176637"><ele>616.0</ele><time>2026-05-02T14:11:24.999Z</time></trkpt><trkpt lat="40.83389003502125" lon="16.015094112972047"><ele>614.75</ele><time>2026-05-02T14:11:25.999Z</time></trkpt><trkpt lat="40.83395909023386" lon="16.014963489271203"><ele>613.5</ele><time>2026-05-02T14:11:26.999Z</time></trkpt><trkpt lat="40.83402972827786" lon="16.01482904680256"><ele>612.25</ele><time>2026-05-02T14:11:27.999Z</time></trkpt><trkpt lat="40.834106838568616" lon="16.014680695294196"><ele>611.0</ele><time>2026-05-02T14:11:28.999Z</time></trkpt><trkpt lat="40.83418265233457" lon="16.014564780200352"><ele>611.0</ele><time>2026-05-02T14:11:29.999Z</time></trkpt><trkpt lat="40.83425190904856" lon="16.014476597930813"><ele>611.0</ele><time>2026-05-02T14:11:30.999Z</time></trkpt><trkpt lat="40.83432306985957" lon="16.01440010891993"><ele>611.0</ele><time>2026-05-02T14:11:31.999Z</time></trkpt><trkpt lat="40.8344113838945" lon="16.014316879387188"><ele>611.0</ele><time>2026-05-02T14:11:32.999Z</time></trkpt><trkpt lat="40.83450005768322" lon="16.014247925673217"><ele>611.0</ele><time>2026-05-02T14:11:33.999Z</time></trkpt><trkpt lat="40.83460199277548" lon="16.014187217220176"><ele>611.5</ele><time>2026-05-02T14:11:34.999Z</time></trkpt><trkpt lat="40.83472070880979" lon="16.01413831821262"><ele>612.0</ele><time>2026-05-02T14:11:35.999Z</time></trkpt><trkpt lat="40.83486540682467" lon="16.014071051663596"><ele>612.5</ele><time>2026-05-02T14:11:36.999Z</time></trkpt><trkpt lat="40.83500435000051" lon="16.013985767030825"><ele>613.0</ele><time>2026-05-02T14:11:37.999Z</time></trkpt><trkpt lat="40.835120166450835" lon="16.013910770760383"><ele>612.6</ele><time>2026-05-02T14:11:38.999Z</time></trkpt><trkpt lat="40.83521930546248" lon="16.013840537266574"><ele>612.1999999999999</ele><time>2026-05-02T14:11:39.999Z</time></trkpt><trkpt lat="40.83531372327158" lon="16.01377064227708"><ele>611.8</ele><time>2026-05-02T14:11:40.999Z</time></trkpt><trkpt lat="40.83540558649732" lon="16.01369721719614"><ele>611.4</ele><time>2026-05-02T14:11:41.999Z</time></trkpt><trkpt lat="40.835496895661116" lon="16.01361329961291"><ele>611.0</ele><time>2026-05-02T14:11:42.999Z</time></trkpt><trkpt lat="40.83558750979189" lon="16.01354155572638"><ele>611.0</ele><time>2026-05-02T14:11:43.999Z</time></trkpt><trkpt lat="40.8356862737706" lon="16.013500930101802"><ele>611.0</ele><time>2026-05-02T14:11:44.999Z</time></trkpt><trkpt lat="40.8358001798549" lon="16.01346692335089"><ele>611.0</ele><time>2026-05-02T14:11:45.999Z</time></trkpt><trkpt lat="40.835925417186616" lon="16.013443393036823"><ele>611.0</ele><time>2026-05-02T14:11:46.999Z</time></trkpt><trkpt lat="40.83604765446952" lon="16.013445473481216"><ele>611.3333333333333</ele><time>2026-05-02T14:11:47.999Z</time></trkpt><trkpt lat="40.83619162231684" lon="16.013454286461265"><ele>611.6666666666666</ele><time>2026-05-02T14:11:48.999Z</time></trkpt><trkpt lat="40.8363631079749" lon="16.013443735555885"><ele>612.0</ele><time>2026-05-02T14:11:49.999Z</time></trkpt><trkpt lat="40.836542141883356" lon="16.013416717012657"><ele>612.0</ele><time>2026-05-02T14:11:50.999Z</time></trkpt><trkpt lat="40.83670095321295" lon="16.013373923706865"><ele>612.0</ele><time>2026-05-02T14:11:51.999Z</time></trkpt><trkpt lat="40.83686642270881" lon="16.01330704462432"><ele>612.0</ele><time>2026-05-02T14:11:52.999Z</time></trkpt><trkpt lat="40.83703625226488" lon="16.013230600807063"><ele>612.0</ele><time>2026-05-02T14:11:53.999Z</time></trkpt><trkpt lat="40.837191513591634" lon="16.01315621875891"><ele>612.0</ele><time>2026-05-02T14:11:54.999Z</time></trkpt><trkpt lat="40.83733770399298" lon="16.0131054418168"><ele>612.0</ele><time>2026-05-02T14:11:55.999Z</time></trkpt><trkpt lat="40.83746880844399" lon="16.013069068959787"><ele>612.0</ele><time>2026-05-02T14:11:56.999Z</time></trkpt><trkpt lat="40.83758507260175" lon="16.0130334125393"><ele>612.0</ele><time>2026-05-02T14:11:57.999Z</time></trkpt><trkpt lat="40.83767893873822" lon="16.013004888904362"><ele>612.0</ele><time>2026-05-02T14:11:58.999Z</time></trkpt><trkpt lat="40.83774827367865" lon="16.01297899297821"><ele>612.0</ele><time>2026-05-02T14:11:59.999Z</time></trkpt><trkpt lat="40.837815662949886" lon="16.012951334847962"><ele>612.0</ele><time>2026-05-02T14:12:01.999Z</time></trkpt><trkpt lat="40.8377671860332" lon="16.012744260411534"><ele>612.0</ele><time>2026-05-02T14:12:04.999Z</time></trkpt><trkpt lat="40.83769946090839" lon="16.012644952381663"><ele>612.0</ele><time>2026-05-02T14:12:05.999Z</time></trkpt><trkpt lat="40.83762387500082" lon="16.012517776699354"><ele>612.0</ele><time>2026-05-02T14:12:06.999Z</time></trkpt><trkpt lat="40.837545655647624" lon="16.01235199676554"><ele>612.0</ele><time>2026-05-02T14:12:07.999Z</time></trkpt><trkpt lat="40.8374659521294" lon="16.01216280701673"><ele>612.6666666666666</ele><time>2026-05-02T14:12:08.999Z</time></trkpt><trkpt lat="40.83738201569278" lon="16.011950331720076"><ele>613.3333333333333</ele><time>2026-05-02T14:12:09.999Z</time></trkpt><trkpt lat="40.83731692007639" lon="16.011754286800436"><ele>614.0</ele><time>2026-05-02T14:12:10.999Z</time></trkpt><trkpt lat="40.837255448313634" lon="16.011599544465994"><ele>614.6</ele><time>2026-05-02T14:12:11.999Z</time></trkpt><trkpt lat="40.837193611891784" lon="16.011481226899065"><ele>615.2</ele><time>2026-05-02T14:12:12.999Z</time></trkpt><trkpt lat="40.83713778210706" lon="16.011380304402493"><ele>615.8000000000001</ele><time>2026-05-02T14:12:13.999Z</time></trkpt><trkpt lat="40.83707897709584" lon="16.011290425790772"><ele>616.4</ele><time>2026-05-02T14:12:14.999Z</time></trkpt><trkpt lat="40.837011916104196" lon="16.01122029268531"><ele>617.0</ele><time>2026-05-02T14:12:15.999Z</time></trkpt><trkpt lat="40.836945891168384" lon="16.011148779923065"><ele>617.0</ele><time>2026-05-02T14:12:16.999Z</time></trkpt><trkpt lat="40.83689237378122" lon="16.011066586111323"><ele>617.0</ele><time>2026-05-02T14:12:17.999Z</time></trkpt><trkpt lat="40.83686968698464" lon="16.010930649457826"><ele>617.0</ele><time>2026-05-02T14:12:18.999Z</time></trkpt><trkpt lat="40.836840496968875" lon="16.010793905849816"><ele>617.0</ele><time>2026-05-02T14:12:19.999Z</time></trkpt><trkpt lat="40.83681689850749" lon="16.010639568269383"><ele>617.0</ele><time>2026-05-02T14:12:20.999Z</time></trkpt><trkpt lat="40.83679209994304" lon="16.010483542387824"><ele>616.0</ele><time>2026-05-02T14:12:21.998Z</time></trkpt><trkpt lat="40.83674881633044" lon="16.010323905334655"><ele>615.0</ele><time>2026-05-02T14:12:22.998Z</time></trkpt><trkpt lat="40.83668573878055" lon="16.01012328682391"><ele>614.0</ele><time>2026-05-02T14:12:23.998Z</time></trkpt><trkpt lat="40.836641340560334" lon="16.009944234509636"><ele>613.0</ele><time>2026-05-02T14:12:25Z</time></trkpt><trkpt lat="40.83659114958913" lon="16.00975162874381"><ele>613.0</ele><time>2026-05-02T14:12:26Z</time></trkpt><trkpt lat="40.83654468534249" lon="16.00957041614214"><ele>613.0</ele><time>2026-05-02T14:12:27Z</time></trkpt><trkpt lat="40.83650296149004" lon="16.009392834385377"><ele>613.0</ele><time>2026-05-02T14:12:28Z</time></trkpt><trkpt lat="40.83646410484577" lon="16.00921447652567"><ele>613.0</ele><time>2026-05-02T14:12:29Z</time></trkpt><trkpt lat="40.83642575137237" lon="16.00902272966025"><ele>613.25</ele><time>2026-05-02T14:12:30Z</time></trkpt><trkpt lat="40.83640063934034" lon="16.00883976723695"><ele>613.5</ele><time>2026-05-02T14:12:31Z</time></trkpt><trkpt lat="40.8363857343074" lon="16.008658171078455"><ele>613.75</ele><time>2026-05-02T14:12:32Z</time></trkpt><trkpt lat="40.83637784193549" lon="16.00846822254897"><ele>614.0</ele><time>2026-05-02T14:12:33Z</time></trkpt><trkpt lat="40.83637389573541" lon="16.008268030356124"><ele>614.5</ele><time>2026-05-02T14:12:34Z</time></trkpt><trkpt lat="40.836374709160296" lon="16.008072863037917"><ele>615.0</ele><time>2026-05-02T14:12:35Z</time></trkpt><trkpt lat="40.83637539577796" lon="16.00788545181852"><ele>615.5</ele><time>2026-05-02T14:12:36Z</time></trkpt><trkpt lat="40.836374197567935" lon="16.007704617994058"><ele>616.0</ele><time>2026-05-02T14:12:37Z</time></trkpt><trkpt lat="40.83637186412215" lon="16.007501071639954"><ele>616.25</ele><time>2026-05-02T14:12:38Z</time></trkpt><trkpt lat="40.836369658777116" lon="16.00731139808234"><ele>616.5</ele><time>2026-05-02T14:12:39Z</time></trkpt><trkpt lat="40.83636386572365" lon="16.00712605762733"><ele>616.75</ele><time>2026-05-02T14:12:40Z</time></trkpt><trkpt lat="40.83634545783203" lon="16.006939772685936"><ele>617.0</ele><time>2026-05-02T14:12:41Z</time></trkpt><trkpt lat="40.83632894411068" lon="16.006775435913543"><ele>617.0</ele><time>2026-05-02T14:12:42Z</time></trkpt><trkpt lat="40.83631958988071" lon="16.00662814587443"><ele>617.0</ele><time>2026-05-02T14:12:43Z</time></trkpt><trkpt lat="40.83632593731679" lon="16.006486263237274"><ele>617.0</ele><time>2026-05-02T14:12:44Z</time></trkpt><trkpt lat="40.836342749824155" lon="16.006352143904643"><ele>617.0</ele><time>2026-05-02T14:12:45Z</time></trkpt><trkpt lat="40.836346673941364" lon="16.00621249047599"><ele>617.0</ele><time>2026-05-02T14:12:46Z</time></trkpt><trkpt lat="40.83632857586629" lon="16.006065801457773"><ele>617.0</ele><time>2026-05-02T14:12:47Z</time></trkpt><trkpt lat="40.836281771665824" lon="16.005920455683903"><ele>617.0</ele><time>2026-05-02T14:12:48Z</time></trkpt><trkpt lat="40.83623373126429" lon="16.005795033403036"><ele>617.0</ele><time>2026-05-02T14:12:49Z</time></trkpt><trkpt lat="40.836194176688664" lon="16.00568753088923"><ele>617.0</ele><time>2026-05-02T14:12:50Z</time></trkpt><trkpt lat="40.836163764124514" lon="16.00558673973616"><ele>617.0</ele><time>2026-05-02T14:12:51Z</time></trkpt><trkpt lat="40.83614239955509" lon="16.00549639970189"><ele>616.6666666666666</ele><time>2026-05-02T14:12:52Z</time></trkpt><trkpt lat="40.836126784560285" lon="16.005357307013384"><ele>616.3333333333333</ele><time>2026-05-02T14:12:53.999Z</time></trkpt><trkpt lat="40.83608120741592" lon="16.005265051396684"><ele>616.0</ele><time>2026-05-02T14:12:55.999Z</time></trkpt><trkpt lat="40.83602310534912" lon="16.005161286588642"><ele>615.6666666666666</ele><time>2026-05-02T14:12:57.999Z</time></trkpt><trkpt lat="40.835964982710465" lon="16.005090276103587"><ele>615.3333333333334</ele><time>2026-05-02T14:12:59.999Z</time></trkpt><trkpt lat="40.8359217229223" lon="16.005017347752563"><ele>615.0</ele><time>2026-05-02T14:13:01.999Z</time></trkpt><trkpt lat="40.83587813486067" lon="16.004919417918813"><ele>614.8</ele><time>2026-05-02T14:13:03.999Z</time></trkpt><trkpt lat="40.83599464752057" lon="16.00470176220795"><ele>614.6</ele><time>2026-05-02T14:13:04.999Z</time></trkpt><trkpt lat="40.83601722988903" lon="16.004608247552866"><ele>614.4</ele><time>2026-05-02T14:13:05.999Z</time></trkpt><trkpt lat="40.83603111215295" lon="16.004524407497193"><ele>614.2</ele><time>2026-05-02T14:13:06.999Z</time></trkpt><trkpt lat="40.83603778450462" lon="16.004438343327134"><ele>614.0</ele><time>2026-05-02T14:13:07.999Z</time></trkpt><trkpt lat="40.836034145081804" lon="16.004340413028704"><ele>614.0</ele><time>2026-05-02T14:13:08.999Z</time></trkpt><trkpt lat="40.836027646022174" lon="16.004247201210198"><ele>614.0</ele><time>2026-05-02T14:13:09.999Z</time></trkpt><trkpt lat="40.836018964309844" lon="16.00415763936277"><ele>614.0</ele><time>2026-05-02T14:13:10.999Z</time></trkpt><trkpt lat="40.83600378436778" lon="16.004071584951603"><ele>614.0</ele><time>2026-05-02T14:13:11.999Z</time></trkpt><trkpt lat="40.835970666931054" lon="16.003913253860556"><ele>614.0</ele><time>2026-05-02T14:13:13.999Z</time></trkpt><trkpt lat="40.835948438989774" lon="16.00383514684237"><ele>614.0</ele><time>2026-05-02T14:13:14.999Z</time></trkpt><trkpt lat="40.83589963680688" lon="16.003710646080425"><ele>611.0</ele><time>2026-05-02T14:13:16.999Z</time></trkpt><trkpt lat="40.835826007742085" lon="16.003588858229726"><ele>608.0</ele><time>2026-05-02T14:13:18.999Z</time></trkpt><trkpt lat="40.83574078718275" lon="16.003478223096852"><ele>605.0</ele><time>2026-05-02T14:13:20.999Z</time></trkpt><trkpt lat="40.83563919847487" lon="16.00338973450232"><ele>602.0</ele><time>2026-05-02T14:13:22.999Z</time></trkpt><trkpt lat="40.83553695105134" lon="16.00330553302704"><ele>602.0</ele><time>2026-05-02T14:13:24.999Z</time></trkpt><trkpt lat="40.83548505028493" lon="16.003258057492"><ele>602.0</ele><time>2026-05-02T14:13:25.999Z</time></trkpt><trkpt lat="40.835395672485504" lon="16.00315504479217"><ele>602.0</ele><time>2026-05-02T14:13:27.999Z</time></trkpt><trkpt lat="40.835315353422274" lon="16.00305405110414"><ele>602.0</ele><time>2026-05-02T14:13:29.999Z</time></trkpt><trkpt lat="40.83525134069672" lon="16.002963110194347"><ele>602.0</ele><time>2026-05-02T14:13:31.999Z</time></trkpt><trkpt lat="40.835217197288344" lon="16.0028605537098"><ele>602.0</ele><time>2026-05-02T14:13:33.999Z</time></trkpt><trkpt lat="40.835208884790134" lon="16.002748479202364"><ele>602.0</ele><time>2026-05-02T14:13:35.999Z</time></trkpt><trkpt lat="40.835198119243024" lon="16.002623121308275"><ele>602.0</ele><time>2026-05-02T14:13:37.999Z</time></trkpt><trkpt lat="40.8351288511241" lon="16.002515350943977"><ele>602.0</ele><time>2026-05-02T14:13:39.999Z</time></trkpt><trkpt lat="40.83507297572138" lon="16.002462520671298"><ele>602.0</ele><time>2026-05-02T14:13:40.999Z</time></trkpt><trkpt lat="40.83501573689377" lon="16.0024193331633"><ele>602.0</ele><time>2026-05-02T14:13:41.999Z</time></trkpt><trkpt lat="40.83491897436079" lon="16.002354183667087"><ele>595.4</ele><time>2026-05-02T14:13:43.999Z</time></trkpt><trkpt lat="40.834806203335" lon="16.00227335830218"><ele>588.8000000000001</ele><time>2026-05-02T14:13:45.999Z</time></trkpt><trkpt lat="40.83474292474814" lon="16.002234336342177"><ele>582.2</ele><time>2026-05-02T14:13:46.999Z</time></trkpt><trkpt lat="40.83466132113062" lon="16.002174747208866"><ele>575.6</ele><time>2026-05-02T14:13:48.999Z</time></trkpt><trkpt lat="40.83459911201155" lon="16.00212847123007"><ele>569.0</ele><time>2026-05-02T14:13:50.999Z</time></trkpt><trkpt lat="40.83452482419569" lon="16.0020680796829"><ele>569.0</ele><time>2026-05-02T14:13:53.999Z</time></trkpt><trkpt lat="40.834470163551224" lon="16.00202484654615"><ele>569.0</ele><time>2026-05-02T14:13:54.999Z</time></trkpt><trkpt lat="40.8343906523764" lon="16.001941131725328"><ele>569.0</ele><time>2026-05-02T14:13:56.999Z</time></trkpt><trkpt lat="40.83431165620574" lon="16.001868260095126"><ele>569.0</ele><time>2026-05-02T14:13:58.999Z</time></trkpt><trkpt lat="40.834236507559275" lon="16.001791302856375"><ele>569.0</ele><time>2026-05-02T14:14:00.999Z</time></trkpt><trkpt lat="40.83415606409706" lon="16.00171814813389"><ele>562.0</ele><time>2026-05-02T14:14:02.999Z</time></trkpt><trkpt lat="40.83408791736174" lon="16.001618984235847"><ele>555.0</ele><time>2026-05-02T14:14:04.999Z</time></trkpt><trkpt lat="40.83402637206354" lon="16.001512350175684"><ele>548.0</ele><time>2026-05-02T14:14:06.999Z</time></trkpt><trkpt lat="40.83399149097498" lon="16.00139525533003"><ele>541.0</ele><time>2026-05-02T14:14:08.999Z</time></trkpt><trkpt lat="40.83398998676404" lon="16.00128137003504"><ele>534.0</ele><time>2026-05-02T14:14:10.999Z</time></trkpt><trkpt lat="40.83403095242001" lon="16.001172082402462"><ele>534.0</ele><time>2026-05-02T14:14:12.999Z</time></trkpt><trkpt lat="40.834062179930406" lon="16.00109806441246"><ele>534.0</ele><time>2026-05-02T14:14:13.999Z</time></trkpt><trkpt lat="40.83411786035269" lon="16.000992358492454"><ele>534.0</ele><time>2026-05-02T14:14:15.999Z</time></trkpt><trkpt lat="40.834189126702796" lon="16.00085502024305"><ele>534.0</ele><time>2026-05-02T14:14:17.999Z</time></trkpt><trkpt lat="40.83423169100381" lon="16.000776074681195"><ele>534.0</ele><time>2026-05-02T14:14:18.999Z</time></trkpt><trkpt lat="40.834274160201225" lon="16.0007055535777"><ele>534.0</ele><time>2026-05-02T14:14:19.999Z</time></trkpt><trkpt lat="40.834315631361214" lon="16.000638011577927"><ele>531.8333333333334</ele><time>2026-05-02T14:14:20.999Z</time></trkpt><trkpt lat="40.83435850667368" lon="16.0005757582041"><ele>529.6666666666666</ele><time>2026-05-02T14:14:21.999Z</time></trkpt><trkpt lat="40.8344316909389" lon="16.000460777282708"><ele>527.5</ele><time>2026-05-02T14:14:23.998Z</time></trkpt><trkpt lat="40.834487298658814" lon="16.000377725760384"><ele>525.3333333333333</ele><time>2026-05-02T14:14:25.998Z</time></trkpt><trkpt lat="40.834548756625956" lon="16.000288811031865"><ele>523.1666666666666</ele><time>2026-05-02T14:14:27.998Z</time></trkpt><trkpt lat="40.834614883759514" lon="16.00021425208427"><ele>521.0</ele><time>2026-05-02T14:14:29.998Z</time></trkpt><trkpt lat="40.83467392435369" lon="16.000136010245885"><ele>521.0</ele><time>2026-05-02T14:14:32Z</time></trkpt><trkpt lat="40.834732992237896" lon="16.000049227406965"><ele>521.0</ele><time>2026-05-02T14:14:34Z</time></trkpt><trkpt lat="40.834792668342196" lon="15.99995365971417"><ele>521.0</ele><time>2026-05-02T14:14:36Z</time></trkpt><trkpt lat="40.834863465095964" lon="15.999876501420761"><ele>521.0</ele><time>2026-05-02T14:14:38Z</time></trkpt><trkpt lat="40.83492991519929" lon="15.99980811363089"><ele>521.0</ele><time>2026-05-02T14:14:40Z</time></trkpt><trkpt lat="40.83496459458931" lon="15.999732616996454"><ele>521.0</ele><time>2026-05-02T14:14:44Z</time></trkpt><trkpt lat="40.83494740678865" lon="15.999650160420359"><ele>521.0</ele><time>2026-05-02T14:14:47Z</time></trkpt><trkpt lat="40.83490680498363" lon="15.999581018416405"><ele>521.0</ele><time>2026-05-02T14:14:50Z</time></trkpt><trkpt lat="40.83483072097164" lon="15.999518596600607"><ele>521.0</ele><time>2026-05-02T14:14:53Z</time></trkpt><trkpt lat="40.83471952087189" lon="15.999418784274953"><ele>521.0</ele><time>2026-05-02T14:14:55Z</time></trkpt><trkpt lat="40.83465702971163" lon="15.99935827861031"><ele>521.0</ele><time>2026-05-02T14:14:56Z</time></trkpt><trkpt lat="40.83459563504262" lon="15.999297212593817"><ele>521.0</ele><time>2026-05-02T14:14:57Z</time></trkpt><trkpt lat="40.834559137876894" lon="15.999209421737117"><ele>517.4</ele><time>2026-05-02T14:14:58Z</time></trkpt><trkpt lat="40.83449616607734" lon="15.999144257512098"><ele>513.8</ele><time>2026-05-02T14:14:59Z</time></trkpt><trkpt lat="40.834436655016496" lon="15.999093034505862"><ele>510.19999999999993</ele><time>2026-05-02T14:15:00Z</time></trkpt><trkpt lat="40.834317726544796" lon="15.998981036332628"><ele>506.59999999999997</ele><time>2026-05-02T14:15:02Z</time></trkpt><trkpt lat="40.83424908602265" lon="15.99891326072798"><ele>503.0</ele><time>2026-05-02T14:15:03Z</time></trkpt><trkpt lat="40.8341818370702" lon="15.998846063570769"><ele>502.66666666666663</ele><time>2026-05-02T14:15:04Z</time></trkpt><trkpt lat="40.83412439552381" lon="15.998773652712158"><ele>502.3333333333333</ele><time>2026-05-02T14:15:05Z</time></trkpt><trkpt lat="40.83407124089076" lon="15.998720845397086"><ele>502.0</ele><time>2026-05-02T14:15:05.999Z</time></trkpt><trkpt lat="40.83396659696284" lon="15.998669553102713"><ele>501.66666666666663</ele><time>2026-05-02T14:15:07.999Z</time></trkpt><trkpt lat="40.83390876075929" lon="15.998633421682985"><ele>501.3333333333333</ele><time>2026-05-02T14:15:08.999Z</time></trkpt><trkpt lat="40.83384843773816" lon="15.998672818243476"><ele>501.0</ele><time>2026-05-02T14:15:09.999Z</time></trkpt><trkpt lat="40.83373944295175" lon="15.998735566316093"><ele>501.0</ele><time>2026-05-02T14:15:11.999Z</time></trkpt><trkpt lat="40.833694328726544" lon="15.998843009229901"><ele>501.0</ele><time>2026-05-02T14:15:12.999Z</time></trkpt><trkpt lat="40.833639344103325" lon="15.99890816965037"><ele>501.0</ele><time>2026-05-02T14:15:13.999Z</time></trkpt><trkpt lat="40.833569855060254" lon="15.999040713703652"><ele>501.0</ele><time>2026-05-02T14:15:15.999Z</time></trkpt><trkpt lat="40.83349235976915" lon="15.999188541930495"><ele>501.0</ele><time>2026-05-02T14:15:16.999Z</time></trkpt><trkpt lat="40.83342060733331" lon="15.99931928496676"><ele>502.25</ele><time>2026-05-02T14:15:17.999Z</time></trkpt><trkpt lat="40.83334592791521" lon="15.999449990085386"><ele>503.5</ele><time>2026-05-02T14:15:18.999Z</time></trkpt><trkpt lat="40.833258560285685" lon="15.999597454646013"><ele>504.75</ele><time>2026-05-02T14:15:19.999Z</time></trkpt><trkpt lat="40.83315899884751" lon="15.999757518300408"><ele>506.0</ele><time>2026-05-02T14:15:20.999Z</time></trkpt><trkpt lat="40.833070050375476" lon="15.9998963113438"><ele>506.0</ele><time>2026-05-02T14:15:21.999Z</time></trkpt><trkpt lat="40.83296720765705" lon="16.000057703598422"><ele>506.0</ele><time>2026-05-02T14:15:22.999Z</time></trkpt><trkpt lat="40.83287588814538" lon="16.000241056018865"><ele>506.0</ele><time>2026-05-02T14:15:23.999Z</time></trkpt><trkpt lat="40.83278046485435" lon="16.00040114363975"><ele>506.0</ele><time>2026-05-02T14:15:24.999Z</time></trkpt><trkpt lat="40.8327080165191" lon="16.00052190540584"><ele>506.0</ele><time>2026-05-02T14:15:25.999Z</time></trkpt><trkpt lat="40.832639433483976" lon="16.000608034064946"><ele>506.0</ele><time>2026-05-02T14:15:26.999Z</time></trkpt><trkpt lat="40.832586560649574" lon="16.00069772776821"><ele>506.0</ele><time>2026-05-02T14:15:27.999Z</time></trkpt><trkpt lat="40.832549044107516" lon="16.000790609760006"><ele>506.0</ele><time>2026-05-02T14:15:28.999Z</time></trkpt><trkpt lat="40.83249288476465" lon="16.00085908550434"><ele>504.4</ele><time>2026-05-02T14:15:29.999Z</time></trkpt><trkpt lat="40.83242406688253" lon="16.00098056170239"><ele>502.8</ele><time>2026-05-02T14:15:31.999Z</time></trkpt><trkpt lat="40.83237886323771" lon="16.001051105523576"><ele>501.19999999999993</ele><time>2026-05-02T14:15:33.999Z</time></trkpt><trkpt lat="40.832296847830264" lon="16.00093649715758"><ele>499.59999999999997</ele><time>2026-05-02T14:15:36.999Z</time></trkpt><trkpt lat="40.832208600552356" lon="16.000852599148107"><ele>498.0</ele><time>2026-05-02T14:15:38.999Z</time></trkpt><trkpt lat="40.83211963284138" lon="16.000738008639562"><ele>497.1666666666667</ele><time>2026-05-02T14:15:40.999Z</time></trkpt><trkpt lat="40.83206349779509" lon="16.000672028009028"><ele>496.33333333333337</ele><time>2026-05-02T14:15:41.999Z</time></trkpt><trkpt lat="40.8320074483791" lon="16.000602113359978"><ele>495.5</ele><time>2026-05-02T14:15:42.999Z</time></trkpt><trkpt lat="40.83195143829322" lon="16.0005369054896"><ele>494.6666666666667</ele><time>2026-05-02T14:15:43.999Z</time></trkpt><trkpt lat="40.83188592643704" lon="16.000471464173128"><ele>493.83333333333337</ele><time>2026-05-02T14:15:44.999Z</time></trkpt><trkpt lat="40.83181943204805" lon="16.000406378186213"><ele>493.0</ele><time>2026-05-02T14:15:45.999Z</time></trkpt><trkpt lat="40.83177009697339" lon="16.00033108482257"><ele>490.6666666666667</ele><time>2026-05-02T14:15:46.999Z</time></trkpt><trkpt lat="40.831707229134764" lon="16.000296452608506"><ele>488.33333333333337</ele><time>2026-05-02T14:15:47.999Z</time></trkpt><trkpt lat="40.831652279868855" lon="16.0002388846382"><ele>486.0</ele><time>2026-05-02T14:15:48.999Z</time></trkpt><trkpt lat="40.831586897483675" lon="16.000172729559996"><ele>483.66666666666663</ele><time>2026-05-02T14:15:49.999Z</time></trkpt><trkpt lat="40.83152021594026" lon="16.00010352587958"><ele>481.3333333333333</ele><time>2026-05-02T14:15:50.999Z</time></trkpt><trkpt lat="40.83145401803311" lon="16.00004134631876"><ele>479.0</ele><time>2026-05-02T14:15:51.999Z</time></trkpt><trkpt lat="40.83138010311518" lon="15.999969845566143"><ele>478.99999999999994</ele><time>2026-05-02T14:15:52.999Z</time></trkpt><trkpt lat="40.83131099041281" lon="15.999901010293872"><ele>479.0</ele><time>2026-05-02T14:15:53.999Z</time></trkpt><trkpt lat="40.83123302117338" lon="15.999828008746437"><ele>479.0</ele><time>2026-05-02T14:15:54.999Z</time></trkpt><trkpt lat="40.83116338304124" lon="15.999770602401364"><ele>479.0</ele><time>2026-05-02T14:15:55.999Z</time></trkpt><trkpt lat="40.83109067285567" lon="15.999718725797914"><ele>478.99999999999994</ele><time>2026-05-02T14:15:56.999Z</time></trkpt><trkpt lat="40.83101922741019" lon="15.999659740426333"><ele>479.0</ele><time>2026-05-02T14:15:57.999Z</time></trkpt><trkpt lat="40.83094401474917" lon="15.999596597390367"><ele>476.3333333333333</ele><time>2026-05-02T14:15:58.999Z</time></trkpt><trkpt lat="40.83087440135861" lon="15.999540227251758"><ele>473.66666666666663</ele><time>2026-05-02T14:15:59.999Z</time></trkpt><trkpt lat="40.83081250754953" lon="15.999457233615814"><ele>471.0</ele><time>2026-05-02T14:16:00.999Z</time></trkpt><trkpt lat="40.830737764735865" lon="15.999411248525934"><ele>468.33333333333337</ele><time>2026-05-02T14:16:01.999Z</time></trkpt><trkpt lat="40.830666561274725" lon="15.999335996070487"><ele>465.6666666666667</ele><time>2026-05-02T14:16:02.999Z</time></trkpt><trkpt lat="40.83059931830122" lon="15.999267296821207"><ele>463.0</ele><time>2026-05-02T14:16:03.999Z</time></trkpt><trkpt lat="40.8305249745727" lon="15.999187291158279"><ele>461.79999999999995</ele><time>2026-05-02T14:16:04.999Z</time></trkpt><trkpt lat="40.83045545794601" lon="15.999101220353676"><ele>460.59999999999997</ele><time>2026-05-02T14:16:05.999Z</time></trkpt><trkpt lat="40.8303847976167" lon="15.99902576614009"><ele>459.40000000000003</ele><time>2026-05-02T14:16:06.999Z</time></trkpt><trkpt lat="40.83030786094285" lon="15.998942555932215"><ele>458.20000000000005</ele><time>2026-05-02T14:16:07.999Z</time></trkpt><trkpt lat="40.83023918043991" lon="15.998864966963986"><ele>457.0</ele><time>2026-05-02T14:16:08.999Z</time></trkpt><trkpt lat="40.83016542259104" lon="15.998787431446098"><ele>454.0</ele><time>2026-05-02T14:16:09.999Z</time></trkpt><trkpt lat="40.830093630759265" lon="15.998700522492369"><ele>451.00000000000006</ele><time>2026-05-02T14:16:10.999Z</time></trkpt><trkpt lat="40.83002531930534" lon="15.99862365924051"><ele>448.00000000000006</ele><time>2026-05-02T14:16:11.999Z</time></trkpt><trkpt lat="40.82996946331171" lon="15.998531336061301"><ele>445.0</ele><time>2026-05-02T14:16:12.999Z</time></trkpt><trkpt lat="40.82989339479446" lon="15.998466859331879"><ele>442.0</ele><time>2026-05-02T14:16:13.999Z</time></trkpt><trkpt lat="40.82982395936745" lon="15.998400989531046"><ele>441.83333333333337</ele><time>2026-05-02T14:16:14.999Z</time></trkpt><trkpt lat="40.82975491146775" lon="15.998329636328686"><ele>441.6666666666667</ele><time>2026-05-02T14:16:15.999Z</time></trkpt><trkpt lat="40.82968172693861" lon="15.998262354047295"><ele>441.5</ele><time>2026-05-02T14:16:16.999Z</time></trkpt><trkpt lat="40.82961284270732" lon="15.998187108479517"><ele>441.33333333333337</ele><time>2026-05-02T14:16:17.999Z</time></trkpt><trkpt lat="40.82954596453573" lon="15.998134611654752"><ele>441.1666666666667</ele><time>2026-05-02T14:16:18.999Z</time></trkpt><trkpt lat="40.82947234358511" lon="15.998062811016279"><ele>441.0</ele><time>2026-05-02T14:16:19.999Z</time></trkpt><trkpt lat="40.82938307540261" lon="15.998017160033882"><ele>438.0</ele><time>2026-05-02T14:16:20.999Z</time></trkpt><trkpt lat="40.82928616120028" lon="15.997988223865681"><ele>435.0</ele><time>2026-05-02T14:16:21.999Z</time></trkpt><trkpt lat="40.829207658499094" lon="15.997945176797712"><ele>432.0</ele><time>2026-05-02T14:16:22.999Z</time></trkpt><trkpt lat="40.829129406280934" lon="15.997906299382993"><ele>429.0</ele><time>2026-05-02T14:16:23.999Z</time></trkpt><trkpt lat="40.829051170003005" lon="15.99785817342012"><ele>426.0</ele><time>2026-05-02T14:16:24.999Z</time></trkpt><trkpt lat="40.82895424390359" lon="15.997777241504629"><ele>426.0</ele><time>2026-05-02T14:16:25.999Z</time></trkpt><trkpt lat="40.82887274952368" lon="15.997699715761955"><ele>426.0</ele><time>2026-05-02T14:16:26.999Z</time></trkpt><trkpt lat="40.82879812124692" lon="15.997623110148773"><ele>426.0</ele><time>2026-05-02T14:16:27.999Z</time></trkpt><trkpt lat="40.8287230244272" lon="15.997569574284372"><ele>426.0</ele><time>2026-05-02T14:16:28.999Z</time></trkpt><trkpt lat="40.82868882963752" lon="15.997485700336911"><ele>426.0</ele><time>2026-05-02T14:16:29.999Z</time></trkpt><trkpt lat="40.82866166311328" lon="15.997344867687003"><ele>426.6</ele><time>2026-05-02T14:16:31.999Z</time></trkpt><trkpt lat="40.828664364985435" lon="15.997211465989913"><ele>427.20000000000005</ele><time>2026-05-02T14:16:33.998Z</time></trkpt><trkpt lat="40.82871455070512" lon="15.997088225670351"><ele>427.79999999999995</ele><time>2026-05-02T14:16:35.998Z</time></trkpt><trkpt lat="40.828757939027135" lon="15.996976468269262"><ele>428.4</ele><time>2026-05-02T14:16:38Z</time></trkpt><trkpt lat="40.82878732015768" lon="15.996897379063595"><ele>429.0</ele><time>2026-05-02T14:16:41Z</time></trkpt><trkpt lat="40.828627446559636" lon="15.996616679206129"><ele>428.0</ele><time>2026-05-02T14:17:15.999Z</time></trkpt><trkpt lat="40.828569840419775" lon="15.996552035368435"><ele>427.0</ele><time>2026-05-02T14:17:18.999Z</time></trkpt><trkpt lat="40.82849984697616" lon="15.996498227803267"><ele>426.0</ele><time>2026-05-02T14:17:21.999Z</time></trkpt><trkpt lat="40.828438390628186" lon="15.996448461975342"><ele>425.0</ele><time>2026-05-02T14:17:24.999Z</time></trkpt><trkpt lat="40.82837448141131" lon="15.996389837758"><ele>424.0</ele><time>2026-05-02T14:17:27.999Z</time></trkpt><trkpt lat="40.82830111517525" lon="15.996341384657757"><ele>423.0</ele><time>2026-05-02T14:17:30.999Z</time></trkpt><trkpt lat="40.8282284506218" lon="15.996303740492877"><ele>420.0</ele><time>2026-05-02T14:17:33.999Z</time></trkpt><trkpt lat="40.828163850733645" lon="15.996267262725862"><ele>417.0</ele><time>2026-05-02T14:17:36.999Z</time></trkpt><trkpt lat="40.828102478812006" lon="15.996219836206194"><ele>414.0</ele><time>2026-05-02T14:23:14.999Z</time></trkpt><trkpt lat="40.82803437201798" lon="15.996175344043714"><ele>411.0</ele><time>2026-05-02T14:23:18.999Z</time></trkpt><trkpt lat="40.82796036170461" lon="15.9961326727091"><ele>408.0</ele><time>2026-05-02T14:23:21.999Z</time></trkpt><trkpt lat="40.82789510450228" lon="15.99608121867121"><ele>405.0</ele><time>2026-05-02T14:23:24.999Z</time></trkpt><trkpt lat="40.82782445807657" lon="15.996005879443398"><ele>405.0</ele><time>2026-05-02T14:23:27.999Z</time></trkpt><trkpt lat="40.82775585859329" lon="15.995931424543885"><ele>405.0</ele><time>2026-05-02T14:23:30.999Z</time></trkpt><trkpt lat="40.827697895892044" lon="15.995865237590925"><ele>405.0</ele><time>2026-05-02T14:23:32.999Z</time></trkpt><trkpt lat="40.82762227841405" lon="15.995783818885524"><ele>405.0</ele><time>2026-05-02T14:23:34.999Z</time></trkpt><trkpt lat="40.827546554633535" lon="15.99568787533615"><ele>405.0</ele><time>2026-05-02T14:23:36.999Z</time></trkpt><trkpt lat="40.82749875481614" lon="15.99557268994963"><ele>398.8</ele><time>2026-05-02T14:23:59.999Z</time></trkpt><trkpt lat="40.827429654031654" lon="15.995470010675579"><ele>392.6</ele><time>2026-05-02T14:24:01.999Z</time></trkpt><trkpt lat="40.82734283130139" lon="15.995371665794876"><ele>386.4</ele><time>2026-05-02T14:24:03.999Z</time></trkpt><trkpt lat="40.827289958564826" lon="15.995310708198602"><ele>380.2</ele><time>2026-05-02T14:24:04.999Z</time></trkpt><trkpt lat="40.82723015392766" lon="15.995240983459153"><ele>374.0</ele><time>2026-05-02T14:24:05.999Z</time></trkpt><trkpt lat="40.82715438078786" lon="15.99516029788708"><ele>374.0</ele><time>2026-05-02T14:24:06.999Z</time></trkpt><trkpt lat="40.8270910452175" lon="15.995092090082657"><ele>374.0</ele><time>2026-05-02T14:24:07.999Z</time></trkpt><trkpt lat="40.8270094646176" lon="15.995002696549378"><ele>374.0</ele><time>2026-05-02T14:24:08.999Z</time></trkpt><trkpt lat="40.82692033094354" lon="15.994911268963714"><ele>374.0</ele><time>2026-05-02T14:24:09.999Z</time></trkpt><trkpt lat="40.82682736324589" lon="15.994814630838826"><ele>374.0</ele><time>2026-05-02T14:24:10.999Z</time></trkpt><trkpt lat="40.82673504752162" lon="15.994719864188594"><ele>376.6</ele><time>2026-05-02T14:24:11.999Z</time></trkpt><trkpt lat="40.82665032870204" lon="15.994620019752297"><ele>379.2</ele><time>2026-05-02T14:24:12.999Z</time></trkpt><trkpt lat="40.82655327482544" lon="15.994516665495977"><ele>381.8</ele><time>2026-05-02T14:24:13.999Z</time></trkpt><trkpt lat="40.82646844886204" lon="15.99442989309311"><ele>384.40000000000003</ele><time>2026-05-02T14:24:14.999Z</time></trkpt><trkpt lat="40.826392473651985" lon="15.994355395419577"><ele>387.0</ele><time>2026-05-02T14:24:15.999Z</time></trkpt><trkpt lat="40.82630124852144" lon="15.994258223856168"><ele>387.0</ele><time>2026-05-02T14:24:16.999Z</time></trkpt><trkpt lat="40.826218687351044" lon="15.994172699443423"><ele>387.0</ele><time>2026-05-02T14:24:17.999Z</time></trkpt><trkpt lat="40.82615302073531" lon="15.99410483456964"><ele>387.0</ele><time>2026-05-02T14:24:18.999Z</time></trkpt><trkpt lat="40.82610095717931" lon="15.994044705479473"><ele>387.0</ele><time>2026-05-02T14:24:19.999Z</time></trkpt><trkpt lat="40.82605092429822" lon="15.993992395237461"><ele>387.0</ele><time>2026-05-02T14:24:20.999Z</time></trkpt><trkpt lat="40.825990431813956" lon="15.993936909292762"><ele>387.0</ele><time>2026-05-02T14:24:21.999Z</time></trkpt><trkpt lat="40.82591201106291" lon="15.993874827671434"><ele>387.5</ele><time>2026-05-02T14:24:22.999Z</time></trkpt><trkpt lat="40.82583840507588" lon="15.993798747315573"><ele>388.0</ele><time>2026-05-02T14:24:23.999Z</time></trkpt><trkpt lat="40.825777356576516" lon="15.993733160439136"><ele>388.5</ele><time>2026-05-02T14:24:24.999Z</time></trkpt><trkpt lat="40.825713825281426" lon="15.993666303027057"><ele>389.0</ele><time>2026-05-02T14:24:25.999Z</time></trkpt><trkpt lat="40.82566342759792" lon="15.993611220899263"><ele>389.5</ele><time>2026-05-02T14:24:26.999Z</time></trkpt><trkpt lat="40.825575097926574" lon="15.993523268759402"><ele>390.0</ele><time>2026-05-02T14:24:28.999Z</time></trkpt><trkpt lat="40.825596798428585" lon="15.993439205027853"><ele>390.0</ele><time>2026-05-02T14:24:33.999Z</time></trkpt><trkpt lat="40.825660240037585" lon="15.993531784494117"><ele>390.0</ele><time>2026-05-02T14:24:36.999Z</time></trkpt><trkpt lat="40.82567188721181" lon="15.993646184667531"><ele>390.0</ele><time>2026-05-02T14:24:38.998Z</time></trkpt><trkpt lat="40.82576511220376" lon="15.99371538005979"><ele>390.0</ele><time>2026-05-02T14:24:40.998Z</time></trkpt><trkpt lat="40.82585083596851" lon="15.99380508268353"><ele>390.0</ele><time>2026-05-02T14:24:41.998Z</time></trkpt><trkpt lat="40.825963494806764" lon="15.993925867800403"><ele>389.25</ele><time>2026-05-02T14:24:42.998Z</time></trkpt><trkpt lat="40.8260735914425" lon="15.994027792878134"><ele>388.5</ele><time>2026-05-02T14:24:43.998Z</time></trkpt><trkpt lat="40.826174601370816" lon="15.994121945639415"><ele>387.75</ele><time>2026-05-02T14:24:44.998Z</time></trkpt><trkpt lat="40.82628537592758" lon="15.994238696344299"><ele>387.0</ele><time>2026-05-02T14:24:45.998Z</time></trkpt><trkpt lat="40.82639816320291" lon="15.994366748216077"><ele>387.0</ele><time>2026-05-02T14:24:46.998Z</time></trkpt><trkpt lat="40.82649865513081" lon="15.994468921194894"><ele>387.0</ele><time>2026-05-02T14:24:47.998Z</time></trkpt><trkpt lat="40.82657922223501" lon="15.994551017510124"><ele>387.0</ele><time>2026-05-02T14:24:48.998Z</time></trkpt><trkpt lat="40.82665039578503" lon="15.994664183099653"><ele>387.0</ele><time>2026-05-02T14:24:49.998Z</time></trkpt><trkpt lat="40.826731704717446" lon="15.99477077060682"><ele>385.8</ele><time>2026-05-02T14:24:50.998Z</time></trkpt><trkpt lat="40.82684783441468" lon="15.994855519866205"><ele>384.6</ele><time>2026-05-02T14:24:51.998Z</time></trkpt><trkpt lat="40.82693276837786" lon="15.994939318776114"><ele>383.40000000000003</ele><time>2026-05-02T14:24:52.998Z</time></trkpt><trkpt lat="40.82701506294693" lon="15.995027038571514"><ele>382.20000000000005</ele><time>2026-05-02T14:24:53.998Z</time></trkpt><trkpt lat="40.82708955366173" lon="15.995093938514554"><ele>381.0</ele><time>2026-05-02T14:24:54.998Z</time></trkpt><trkpt lat="40.827156299780334" lon="15.995168694242716"><ele>379.8333333333333</ele><time>2026-05-02T14:24:55.998Z</time></trkpt><trkpt lat="40.82721662565811" lon="15.995232224304038"><ele>378.6666666666667</ele><time>2026-05-02T14:24:56.998Z</time></trkpt><trkpt lat="40.82726644183431" lon="15.995293440493136"><ele>377.5</ele><time>2026-05-02T14:24:57.998Z</time></trkpt><trkpt lat="40.82732364279246" lon="15.995353003984176"><ele>376.33333333333337</ele><time>2026-05-02T14:24:58.998Z</time></trkpt><trkpt lat="40.827406879305045" lon="15.995455649014856"><ele>375.1666666666667</ele><time>2026-05-02T14:25:00.999Z</time></trkpt><trkpt lat="40.827474631064256" lon="15.99556685471542"><ele>374.0</ele><time>2026-05-02T14:25:02.999Z</time></trkpt><trkpt lat="40.827548076699024" lon="15.995677457207165"><ele>374.0</ele><time>2026-05-02T14:25:04.999Z</time></trkpt><trkpt lat="40.82758629472275" lon="15.995752237165567"><ele>374.0</ele><time>2026-05-02T14:25:06.999Z</time></trkpt><trkpt lat="40.82760587384458" lon="15.995843657748031"><ele>374.0</ele><time>2026-05-02T14:25:12.999Z</time></trkpt><trkpt lat="40.82758649122259" lon="15.995753624324717"><ele>374.0</ele><time>2026-05-02T14:25:50.999Z</time></trkpt><trkpt lat="40.82754254543187" lon="15.995688200355888"><ele>374.0</ele><time>2026-05-02T14:28:13.999Z</time></trkpt><trkpt lat="40.82749445018267" lon="15.99561251654904"><ele>374.0</ele><time>2026-05-02T14:28:14.999Z</time></trkpt><trkpt lat="40.82744716932339" lon="15.995524590225184"><ele>374.0</ele><time>2026-05-02T14:28:16.999Z</time></trkpt><trkpt lat="40.82738186739966" lon="15.995431879024581"><ele>374.0</ele><time>2026-05-02T14:28:18.999Z</time></trkpt><trkpt lat="40.827331508962295" lon="15.995361775422841"><ele>374.0</ele><time>2026-05-02T14:28:19.999Z</time></trkpt><trkpt lat="40.8272832612007" lon="15.995301845789971"><ele>374.0</ele><time>2026-05-02T14:28:20.999Z</time></trkpt><trkpt lat="40.827229616277194" lon="15.995240582931288"><ele>374.0</ele><time>2026-05-02T14:28:21.999Z</time></trkpt><trkpt lat="40.82717767570817" lon="15.995185334315943"><ele>374.0</ele><time>2026-05-02T14:28:22.999Z</time></trkpt><trkpt lat="40.8271280340431" lon="15.99513319605456"><ele>374.0</ele><time>2026-05-02T14:28:23.999Z</time></trkpt><trkpt lat="40.827070770030964" lon="15.995069579482346"><ele>374.0</ele><time>2026-05-02T14:28:24.999Z</time></trkpt><trkpt lat="40.8270170895688" lon="15.99500459749662"><ele>375.4</ele><time>2026-05-02T14:28:25.999Z</time></trkpt><trkpt lat="40.82696603097249" lon="15.99495029542344"><ele>376.79999999999995</ele><time>2026-05-02T14:28:26.999Z</time></trkpt><trkpt lat="40.82686519205728" lon="15.994852931882889"><ele>378.20000000000005</ele><time>2026-05-02T14:28:28.999Z</time></trkpt><trkpt lat="40.82681168001113" lon="15.99480643199826"><ele>379.6</ele><time>2026-05-02T14:28:29.999Z</time></trkpt><trkpt lat="40.82671766264381" lon="15.994699198499953"><ele>381.0</ele><time>2026-05-02T14:28:31.999Z</time></trkpt><trkpt lat="40.82666143461794" lon="15.994635341666019"><ele>381.85714285714283</ele><time>2026-05-02T14:28:32.999Z</time></trkpt><trkpt lat="40.82660687514561" lon="15.994577587248019"><ele>382.7142857142857</ele><time>2026-05-02T14:28:33.999Z</time></trkpt><trkpt lat="40.826553062951795" lon="15.994520641371455"><ele>383.57142857142856</ele><time>2026-05-02T14:28:34.999Z</time></trkpt><trkpt lat="40.82649647035632" lon="15.994461028076783"><ele>384.42857142857144</ele><time>2026-05-02T14:28:35.999Z</time></trkpt><trkpt lat="40.82643214219208" lon="15.994396116038564"><ele>385.28571428571433</ele><time>2026-05-02T14:28:36.999Z</time></trkpt><trkpt lat="40.826369777067825" lon="15.994333154428706"><ele>386.14285714285717</ele><time>2026-05-02T14:28:37.999Z</time></trkpt><trkpt lat="40.82631346516876" lon="15.994272526171178"><ele>387.0</ele><time>2026-05-02T14:28:38.999Z</time></trkpt><trkpt lat="40.82625755538634" lon="15.994214586888663"><ele>387.42857142857144</ele><time>2026-05-02T14:28:39.999Z</time></trkpt><trkpt lat="40.82620420331072" lon="15.994155563316024"><ele>387.8571428571429</ele><time>2026-05-02T14:28:40.999Z</time></trkpt><trkpt lat="40.8261502215157" lon="15.994099010192658"><ele>388.2857142857143</ele><time>2026-05-02T14:28:41.999Z</time></trkpt><trkpt lat="40.82609399756615" lon="15.994038928984102"><ele>388.7142857142857</ele><time>2026-05-02T14:28:42.999Z</time></trkpt><trkpt lat="40.82603634385482" lon="15.993979586810962"><ele>389.1428571428571</ele><time>2026-05-02T14:28:43.999Z</time></trkpt><trkpt lat="40.825970857026896" lon="15.99392468789051"><ele>389.57142857142856</ele><time>2026-05-02T14:28:44.999Z</time></trkpt><trkpt lat="40.825905518082415" lon="15.993867626958146"><ele>390.0</ele><time>2026-05-02T14:28:45.998Z</time></trkpt><trkpt lat="40.825848444860064" lon="15.993809060378911"><ele>390.0</ele><time>2026-05-02T14:28:46.998Z</time></trkpt><trkpt lat="40.82578456928315" lon="15.993760716125664"><ele>390.0</ele><time>2026-05-02T14:28:47.998Z</time></trkpt><trkpt lat="40.82573023932998" lon="15.993684672456117"><ele>390.0</ele><time>2026-05-02T14:28:48.998Z</time></trkpt><trkpt lat="40.82567426604907" lon="15.993624963177004"><ele>390.0</ele><time>2026-05-02T14:28:49.998Z</time></trkpt><trkpt lat="40.82561367509336" lon="15.9935595190072"><ele>390.0</ele><time>2026-05-02T14:28:50.998Z</time></trkpt><trkpt lat="40.825518328576386" lon="15.993459128223352"><ele>390.0</ele><time>2026-05-02T14:28:52.998Z</time></trkpt><trkpt lat="40.82544619111763" lon="15.993380034541941"><ele>389.4</ele><time>2026-05-02T14:28:54.998Z</time></trkpt><trkpt lat="40.82537225230384" lon="15.993304920672331"><ele>388.8</ele><time>2026-05-02T14:28:56.998Z</time></trkpt><trkpt lat="40.825275362066186" lon="15.993219281423213"><ele>388.20000000000005</ele><time>2026-05-02T14:28:58.998Z</time></trkpt><trkpt lat="40.82518105602421" lon="15.993122741261981"><ele>387.6</ele><time>2026-05-02T14:29:00.998Z</time></trkpt><trkpt lat="40.82512873205929" lon="15.993068852469587"><ele>387.0</ele><time>2026-05-02T14:29:01.998Z</time></trkpt><trkpt lat="40.82507158664083" lon="15.993008787993665"><ele>387.0</ele><time>2026-05-02T14:29:02.998Z</time></trkpt><trkpt lat="40.825013357441186" lon="15.992950569728498"><ele>387.0</ele><time>2026-05-02T14:29:03.998Z</time></trkpt><trkpt lat="40.824956055769846" lon="15.992896321872326"><ele>387.0</ele><time>2026-05-02T14:29:04.998Z</time></trkpt><trkpt lat="40.82489993528037" lon="15.99285015001656"><ele>387.0</ele><time>2026-05-02T14:29:05.998Z</time></trkpt><trkpt lat="40.824846332356294" lon="15.992801147854403"><ele>387.0</ele><time>2026-05-02T14:29:06.998Z</time></trkpt><trkpt lat="40.82474844507947" lon="15.992701330675516"><ele>387.0</ele><time>2026-05-02T14:29:08.998Z</time></trkpt><trkpt lat="40.82470200238179" lon="15.992643387480005"><ele>387.0</ele><time>2026-05-02T14:29:09.998Z</time></trkpt><trkpt lat="40.824641500285" lon="15.992574919536564"><ele>387.0</ele><time>2026-05-02T14:29:10.998Z</time></trkpt><trkpt lat="40.824567360136335" lon="15.992502399964454"><ele>387.0</ele><time>2026-05-02T14:29:11.999Z</time></trkpt><trkpt lat="40.82449514278954" lon="15.99243035659722"><ele>387.0</ele><time>2026-05-02T14:29:12.999Z</time></trkpt><trkpt lat="40.82442484705481" lon="15.992359928191359"><ele>387.0</ele><time>2026-05-02T14:29:13.999Z</time></trkpt><trkpt lat="40.82436530983841" lon="15.992294428672695"><ele>387.0</ele><time>2026-05-02T14:29:14.999Z</time></trkpt><trkpt lat="40.82430825881285" lon="15.992234466744845"><ele>384.2857142857143</ele><time>2026-05-02T14:29:15.999Z</time></trkpt><trkpt lat="40.82424378291506" lon="15.9921706446952"><ele>381.57142857142856</ele><time>2026-05-02T14:29:16.999Z</time></trkpt><trkpt lat="40.824188361916924" lon="15.992108196848202"><ele>378.8571428571429</ele><time>2026-05-02T14:29:17.999Z</time></trkpt><trkpt lat="40.824141237940886" lon="15.992045543906107"><ele>376.1428571428571</ele><time>2026-05-02T14:29:18.999Z</time></trkpt><trkpt lat="40.82410294713017" lon="15.99197874063246"><ele>373.4285714285714</ele><time>2026-05-02T14:29:19.999Z</time></trkpt><trkpt lat="40.82406761267173" lon="15.991907279924208"><ele>370.7142857142857</ele><time>2026-05-02T14:29:20.999Z</time></trkpt><trkpt lat="40.82401170816375" lon="15.991796683009412"><ele>368.0</ele><time>2026-05-02T14:29:22.999Z</time></trkpt><trkpt lat="40.82393044439278" lon="15.991725143878872"><ele>367.79999999999995</ele><time>2026-05-02T14:29:24.999Z</time></trkpt><trkpt lat="40.82387954603772" lon="15.991673260655471"><ele>367.6</ele><time>2026-05-02T14:29:25.999Z</time></trkpt><trkpt lat="40.823785693342096" lon="15.99157603833649"><ele>367.4</ele><time>2026-05-02T14:29:27.999Z</time></trkpt><trkpt lat="40.82373309141972" lon="15.991525296722203"><ele>367.20000000000005</ele><time>2026-05-02T14:29:28.999Z</time></trkpt><trkpt lat="40.82364423926043" lon="15.991445271245594"><ele>367.0</ele><time>2026-05-02T14:29:30.999Z</time></trkpt><trkpt lat="40.823541323570495" lon="15.991361021226094"><ele>364.6</ele><time>2026-05-02T14:29:32.999Z</time></trkpt><trkpt lat="40.82346241695122" lon="15.991287138856771"><ele>362.20000000000005</ele><time>2026-05-02T14:29:34.999Z</time></trkpt><trkpt lat="40.823384858901754" lon="15.991195636890938"><ele>359.8</ele><time>2026-05-02T14:29:36.999Z</time></trkpt><trkpt lat="40.82329668645531" lon="15.991108200454626"><ele>357.4</ele><time>2026-05-02T14:29:38.999Z</time></trkpt><trkpt lat="40.82322414207406" lon="15.991040223970396"><ele>355.0</ele><time>2026-05-02T14:29:40.999Z</time></trkpt><trkpt lat="40.82315046913627" lon="15.990967917142841"><ele>355.0</ele><time>2026-05-02T14:29:42.999Z</time></trkpt><trkpt lat="40.823078629527686" lon="15.990905131682405"><ele>355.0</ele><time>2026-05-02T14:29:44.999Z</time></trkpt><trkpt lat="40.82301747173308" lon="15.990846278436624"><ele>355.0</ele><time>2026-05-02T14:29:46.999Z</time></trkpt><trkpt lat="40.82294128406256" lon="15.990762220003024"><ele>355.0</ele><time>2026-05-02T14:29:48.999Z</time></trkpt><trkpt lat="40.82285151832463" lon="15.990675608592184"><ele>355.0</ele><time>2026-05-02T14:29:50.999Z</time></trkpt><trkpt lat="40.82274483056168" lon="15.990585548964484"><ele>351.6</ele><time>2026-05-02T14:29:52.999Z</time></trkpt><trkpt lat="40.82264258046686" lon="15.990499109308749"><ele>348.2</ele><time>2026-05-02T14:29:54.999Z</time></trkpt><trkpt lat="40.82256219099926" lon="15.990421004279293"><ele>344.79999999999995</ele><time>2026-05-02T14:29:56.999Z</time></trkpt><trkpt lat="40.822501802900774" lon="15.99037726652476"><ele>341.4</ele><time>2026-05-02T14:29:57.999Z</time></trkpt><trkpt lat="40.82242488533305" lon="15.990290826874308"><ele>338.0</ele><time>2026-05-02T14:29:59.999Z</time></trkpt><trkpt lat="40.82232688921682" lon="15.990187284515653"><ele>338.0</ele><time>2026-05-02T14:30:01.999Z</time></trkpt><trkpt lat="40.822273461765135" lon="15.990138482534602"><ele>338.0</ele><time>2026-05-02T14:30:02.999Z</time></trkpt><trkpt lat="40.822193590762964" lon="15.990060949884077"><ele>338.0</ele><time>2026-05-02T14:30:04.999Z</time></trkpt><trkpt lat="40.82211606639771" lon="15.98998590865857"><ele>338.0</ele><time>2026-05-02T14:30:06.999Z</time></trkpt><trkpt lat="40.82203224576157" lon="15.989904354044945"><ele>338.0</ele><time>2026-05-02T14:30:08.999Z</time></trkpt><trkpt lat="40.821944203160136" lon="15.989821525269079"><ele>338.5</ele><time>2026-05-02T14:30:10.999Z</time></trkpt><trkpt lat="40.82187335562565" lon="15.989754640348155"><ele>339.0</ele><time>2026-05-02T14:30:11.999Z</time></trkpt><trkpt lat="40.821807223023235" lon="15.989699847040233"><ele>339.5</ele><time>2026-05-02T14:30:12.999Z</time></trkpt><trkpt lat="40.82174595299356" lon="15.98962330345058"><ele>340.0</ele><time>2026-05-02T14:30:14.999Z</time></trkpt><trkpt lat="40.82173015299438" lon="15.9895323918747"><ele>340.5</ele><time>2026-05-02T14:30:17.999Z</time></trkpt><trkpt lat="40.82165152112924" lon="15.989472928290292"><ele>341.0</ele><time>2026-05-02T14:30:19.999Z</time></trkpt><trkpt lat="40.82156632103226" lon="15.989436285897723"><ele>339.0</ele><time>2026-05-02T14:30:22.999Z</time></trkpt><trkpt lat="40.82148999495923" lon="15.989365117695376"><ele>337.0</ele><time>2026-05-02T14:30:25.999Z</time></trkpt><trkpt lat="40.821432723277304" lon="15.98931288437061"><ele>335.0</ele><time>2026-05-02T14:30:27.999Z</time></trkpt><trkpt lat="40.821359777661854" lon="15.98923684299465"><ele>333.0</ele><time>2026-05-02T14:30:29.999Z</time></trkpt><trkpt lat="40.82126318187955" lon="15.989137262472207"><ele>331.0</ele><time>2026-05-02T14:30:31.999Z</time></trkpt><trkpt lat="40.821195786126765" lon="15.98907548861659"><ele>331.0</ele><time>2026-05-02T14:30:33.999Z</time></trkpt><trkpt lat="40.821105025831784" lon="15.989041899939076"><ele>331.0</ele><time>2026-05-02T14:30:35.999Z</time></trkpt><trkpt lat="40.82100759191467" lon="15.98896739357123"><ele>331.0</ele><time>2026-05-02T14:30:37.999Z</time></trkpt><trkpt lat="40.82095854311952" lon="15.988909599190883"><ele>331.0</ele><time>2026-05-02T14:30:38.999Z</time></trkpt><trkpt lat="40.820913695070885" lon="15.988842397540509"><ele>331.0</ele><time>2026-05-02T14:30:39.999Z</time></trkpt><trkpt lat="40.82086506909988" lon="15.988787290216798"><ele>331.0</ele><time>2026-05-02T14:30:40.999Z</time></trkpt><trkpt lat="40.82080588863839" lon="15.988738803861086"><ele>332.0</ele><time>2026-05-02T14:30:41.999Z</time></trkpt><trkpt lat="40.82073400527514" lon="15.988671711194556"><ele>333.0</ele><time>2026-05-02T14:30:42.999Z</time></trkpt><trkpt lat="40.820684158046234" lon="15.988611274570815"><ele>334.0</ele><time>2026-05-02T14:30:43.999Z</time></trkpt><trkpt lat="40.820642689733674" lon="15.98853980745089"><ele>335.0</ele><time>2026-05-02T14:30:44.999Z</time></trkpt><trkpt lat="40.82060503613926" lon="15.988463101487993"><ele>336.0</ele><time>2026-05-02T14:30:45.999Z</time></trkpt><trkpt lat="40.82054929053341" lon="15.988385048849766"><ele>337.0</ele><time>2026-05-02T14:30:46.999Z</time></trkpt><trkpt lat="40.82048593487825" lon="15.988308493959227"><ele>337.3333333333333</ele><time>2026-05-02T14:30:47.999Z</time></trkpt><trkpt lat="40.8204226325995" lon="15.98823540394552"><ele>337.66666666666663</ele><time>2026-05-02T14:30:48.999Z</time></trkpt><trkpt lat="40.82035590901159" lon="15.98817330002742"><ele>338.0</ele><time>2026-05-02T14:30:49.999Z</time></trkpt><trkpt lat="40.82027225778885" lon="15.98810303892077"><ele>338.3333333333333</ele><time>2026-05-02T14:30:50.999Z</time></trkpt><trkpt lat="40.82021365274313" lon="15.988053985053504"><ele>338.6666666666667</ele><time>2026-05-02T14:30:51.999Z</time></trkpt><trkpt lat="40.820153375340524" lon="15.98799624070954"><ele>339.0</ele><time>2026-05-02T14:30:52.999Z</time></trkpt><trkpt lat="40.82007917388129" lon="15.98791896359997"><ele>341.2</ele><time>2026-05-02T14:30:53.999Z</time></trkpt><trkpt lat="40.82000655741711" lon="15.987845938959913"><ele>343.4</ele><time>2026-05-02T14:30:54.998Z</time></trkpt><trkpt lat="40.81992506158243" lon="15.987753881686585"><ele>345.6</ele><time>2026-05-02T14:30:55.998Z</time></trkpt><trkpt lat="40.81984590559897" lon="15.98767125699982"><ele>347.8</ele><time>2026-05-02T14:30:56.998Z</time></trkpt><trkpt lat="40.81977121144788" lon="15.987595141765675"><ele>350.0</ele><time>2026-05-02T14:30:57.998Z</time></trkpt><trkpt lat="40.81970610914787" lon="15.987525321578989"><ele>350.83333333333337</ele><time>2026-05-02T14:30:58.998Z</time></trkpt><trkpt lat="40.8196268742582" lon="15.987438343659512"><ele>351.6666666666667</ele><time>2026-05-02T14:30:59.998Z</time></trkpt><trkpt lat="40.81954571777761" lon="15.987356775535854"><ele>352.5</ele><time>2026-05-02T14:31:00.998Z</time></trkpt><trkpt lat="40.81948226796237" lon="15.98729017381969"><ele>353.3333333333333</ele><time>2026-05-02T14:31:01.998Z</time></trkpt><trkpt lat="40.81942466932037" lon="15.987227527741817"><ele>354.16666666666663</ele><time>2026-05-02T14:31:02.998Z</time></trkpt><trkpt lat="40.81935692210449" lon="15.987153791071252"><ele>355.0</ele><time>2026-05-02T14:31:03.998Z</time></trkpt><trkpt lat="40.81928609448932" lon="15.987076745748347"><ele>355.2</ele><time>2026-05-02T14:31:04.998Z</time></trkpt><trkpt lat="40.819210720858344" lon="15.987001409854113"><ele>355.4</ele><time>2026-05-02T14:31:05.998Z</time></trkpt><trkpt lat="40.81912989771239" lon="15.986922630908031"><ele>355.6</ele><time>2026-05-02T14:31:06.998Z</time></trkpt><trkpt lat="40.81905199798253" lon="15.986844453521481"><ele>355.8</ele><time>2026-05-02T14:31:07.998Z</time></trkpt><trkpt lat="40.81898117022652" lon="15.986774282882763"><ele>356.0</ele><time>2026-05-02T14:31:08.998Z</time></trkpt><trkpt lat="40.8189185575608" lon="15.986704942091931"><ele>356.5</ele><time>2026-05-02T14:31:09.998Z</time></trkpt><trkpt lat="40.81885228302871" lon="15.986629392694168"><ele>357.0</ele><time>2026-05-02T14:31:10.998Z</time></trkpt><trkpt lat="40.81878230931764" lon="15.986555564797165"><ele>357.5</ele><time>2026-05-02T14:31:11.998Z</time></trkpt><trkpt lat="40.818713236612034" lon="15.986486378425047"><ele>358.0</ele><time>2026-05-02T14:31:12.998Z</time></trkpt><trkpt lat="40.818649929302865" lon="15.98641325873725"><ele>358.5</ele><time>2026-05-02T14:31:13.998Z</time></trkpt><trkpt lat="40.81858294833418" lon="15.986330815111682"><ele>359.0</ele><time>2026-05-02T14:31:14.998Z</time></trkpt><trkpt lat="40.81852069042877" lon="15.98624564505193"><ele>358.83333333333337</ele><time>2026-05-02T14:31:15.998Z</time></trkpt><trkpt lat="40.818473148046266" lon="15.986164451145036"><ele>358.6666666666667</ele><time>2026-05-02T14:31:16.998Z</time></trkpt><trkpt lat="40.81843416785562" lon="15.986091486894162"><ele>358.5</ele><time>2026-05-02T14:31:17.999Z</time></trkpt><trkpt lat="40.81838672768214" lon="15.98601021726958"><ele>358.3333333333333</ele><time>2026-05-02T14:31:18.999Z</time></trkpt><trkpt lat="40.818325229978974" lon="15.985926274089321"><ele>358.16666666666663</ele><time>2026-05-02T14:31:19.999Z</time></trkpt><trkpt lat="40.81823901033498" lon="15.985838221129738"><ele>358.0</ele><time>2026-05-02T14:31:20.999Z</time></trkpt><trkpt lat="40.81814334839067" lon="15.98574857725938"><ele>358.0</ele><time>2026-05-02T14:31:21.999Z</time></trkpt><trkpt lat="40.81805565965752" lon="15.985674968616483"><ele>358.0</ele><time>2026-05-02T14:31:22.999Z</time></trkpt><trkpt lat="40.81798050174509" lon="15.98560665568619"><ele>358.0</ele><time>2026-05-02T14:31:23.999Z</time></trkpt><trkpt lat="40.81791257318536" lon="15.985549419205531"><ele>358.0</ele><time>2026-05-02T14:31:24.999Z</time></trkpt><trkpt lat="40.817837262681266" lon="15.985486943864494"><ele>358.0</ele><time>2026-05-02T14:31:25.999Z</time></trkpt><trkpt lat="40.81775871121544" lon="15.985414570835976"><ele>358.0</ele><time>2026-05-02T14:31:26.999Z</time></trkpt><trkpt lat="40.81769148992869" lon="15.98534528412082"><ele>358.0</ele><time>2026-05-02T14:31:27.999Z</time></trkpt><trkpt lat="40.81763017180084" lon="15.98528828567471"><ele>358.0</ele><time>2026-05-02T14:31:28.999Z</time></trkpt><trkpt lat="40.8175767974319" lon="15.985229388466276"><ele>358.0</ele><time>2026-05-02T14:31:29.999Z</time></trkpt><trkpt lat="40.81748895247813" lon="15.985136057934596"><ele>358.0</ele><time>2026-05-02T14:31:31.999Z</time></trkpt><trkpt lat="40.81736554479746" lon="15.985073839061114"><ele>357.59999999999997</ele><time>2026-05-02T14:31:33.999Z</time></trkpt><trkpt lat="40.81725851879508" lon="15.985049149973138"><ele>357.2</ele><time>2026-05-02T14:31:34.999Z</time></trkpt><trkpt lat="40.81716561570799" lon="15.985030666826127"><ele>356.8</ele><time>2026-05-02T14:31:35.999Z</time></trkpt><trkpt lat="40.81708810986561" lon="15.985006141721435"><ele>356.4</ele><time>2026-05-02T14:31:36.999Z</time></trkpt><trkpt lat="40.81701682781479" lon="15.9849962198616"><ele>356.0</ele><time>2026-05-02T14:31:37.999Z</time></trkpt><trkpt lat="40.81691785692698" lon="15.984970069629346"><ele>356.0</ele><time>2026-05-02T14:31:39.999Z</time></trkpt><trkpt lat="40.81684908875712" lon="15.984968581855052"><ele>356.0</ele><time>2026-05-02T14:31:41.999Z</time></trkpt></trkseg></trk></gpx>